[[{"header":{"parameterUnit":"m.s-1","parameterCategory":1,"la1":30.6,"la2":29.2853,"lo1":-89.7004,"lo2":-87.6739,"dy":0.0162,"dx":0.0183,"nx":112,"ny":82,"refTime":"2023-06-27T12:00:00:Z","depth":0,"parameterNumber":2,"parameterNumberName":"U-component_of_WINDS"},"data":[0.0,0.0,0.0,0.0,0.0,0.0,0.0,0.0,0.0,0.0,0.0,0.0,0.0,0.0,0.0,0.0,0.0,0.0,0.0,0.0,0.0,0.0,0.0,0.0,0.0,0.0,0.0,0.0,0.0,0.0,0.0,0.0,0.0,0.0,0.0,0.0,0.0,0.0,0.0,0.0,0.0,0.0,0.0,0.0,0.0,0.0,0.0,0.0,0.0,0.0,0.0,0.0,0.0,0.0,0.0,0.0,0.0,0.0,0.0,0.0,0.0,0.0,0.0,0.0,0.0,0.0,0.0,0.0,0.0,0.0,0.0,0.0,0.0,0.0,0.0,0.0,0.0,0.0,0.0,0.0,0.0,0.0,0.0,0.0,0.0,0.0,0.0,0.0,0.0,0.0,0.9202,0.9524,1.1563,1.308,1.3524,1.3533,1.3326,1.2932,0.0,0.0,0.0,0.0,0.0,0.0,0.0,0.0,0.0,0.0,0.0,0.0,0.0,0.0,0.0,0.0,0.0,0.0,0.0,0.0,0.0,0.0,0.0,0.0,0.0,0.0,0.0,0.0,0.0,0.0,0.0,0.0,0.0,0.0,0.0,0.0,0.0,0.0,0.0,0.0,0.0,0.0,0.0,0.0,0.0,0.0,0.0,0.0,0.0,0.0,0.0,0.0,0.0,0.0,0.0,0.0,0.0,0.0,0.0,0.0,0.0,0.0,0.0,0.0,0.0,0.0,0.0,0.0,0.0,0.0,0.0,0.0,0.0,0.0,0.0,0.0,0.0,0.0,0.0,0.0,0.0,0.0,0.0,0.0,0.0,0.0,0.0,0.0,0.0,0.0,0.0,0.0,0.0,0.0,0.0,0.0,0.0,0.0,0.0,0.0,0.0,0.0,0.0,0.0,0.8439,0.9262,1.1489,1.2889,1.2854,1.2441,1.2516,1.3257,0.0,0.0,0.0,0.0,0.0,0.0,0.0,0.0,0.0,0.0,0.0,0.0,0.0,0.0,0.0,0.0,0.0,0.0,0.0,0.0,0.0,0.0,0.0,0.0,0.0,0.0,0.0,0.0,0.0,0.0,0.0,0.0,0.0,0.0,0.0,0.0,0.0,0.0,0.0,0.0,0.0,0.0,0.0,0.0,0.0,0.0,0.0,0.0,0.0,0.0,0.0,0.0,0.0,0.0,0.0,0.0,0.0,0.0,0.0,0.0,0.0,0.0,0.0,0.0,0.0,0.0,0.0,0.0,0.0,0.0,0.0,0.0,0.0,0.0,0.0,0.0,0.0,0.0,0.0,0.0,0.0,0.0,0.0,0.0,0.0,0.0,0.0,0.0,0.0,0.0,0.0,0.0,0.0,0.0,0.0,0.0,0.0,0.0,0.0,0.0,0.0,0.0,0.0,0.9317,0.9316,1.0215,1.1583,1.251,1.2735,1.2337,1.2483,1.3505,1.3209,0.0,0.0,0.0,0.0,0.0,0.0,0.0,0.0,0.0,0.0,0.0,0.0,0.0,0.0,0.0,0.0,0.0,0.0,0.0,0.0,0.0,0.0,0.0,0.0,0.0,0.0,0.0,0.0,0.0,0.0,0.0,0.0,0.0,0.0,0.0,0.0,0.0,0.0,0.0,0.0,0.0,0.0,0.0,0.0,0.0,0.0,0.0,0.0,0.0,0.0,0.0,0.0,0.0,0.0,0.0,0.0,0.0,0.0,0.0,0.0,0.0,0.0,0.0,0.0,0.0,0.0,0.0,0.0,0.0,0.0,0.0,0.0,0.0,0.0,0.0,0.0,0.0,0.0,0.0,0.0,0.0,0.0,0.0,0.0,0.0,0.0,0.0,0.0,0.0,0.0,0.0,0.0,0.0,0.0,0.0,0.0,0.0,0.0,0.0,0.0,0.0,0.0,0.9577,0.9648,1.0397,1.1059,1.173,1.2389,1.2023,1.2367,1.3786,1.3063,0.0,0.0,0.0,0.0,0.0,0.0,0.0,0.0,0.0,0.0,0.0,0.0,0.0,0.0,0.0,0.0,0.0,0.0,0.0,0.0,0.0,0.0,0.0,0.0,0.0,0.0,0.0,0.0,0.0,0.0,0.0,0.0,0.0,0.0,0.0,0.0,0.0,0.0,0.0,0.0,0.0,0.0,0.0,0.0,0.0,0.0,0.0,0.0,0.0,0.0,0.0,0.0,0.0,0.0,0.0,0.0,0.0,0.0,0.0,0.0,0.0,0.0,0.0,0.0,0.0,0.0,0.0,0.0,0.0,0.0,0.0,0.0,0.0,0.0,0.0,0.0,0.0,0.0,0.0,0.0,0.0,0.0,0.0,0.0,0.0,0.0,0.0,0.0,0.0,0.0,0.0,0.0,0.0,0.0,0.0,0.0,0.0,0.0,0.0,0.0,0.0,0.0,0.7864,0.7906,0.8287,0.9234,1.0278,1.1327,1.0802,1.154,1.4178,1.3588,0.0,0.0,0.0,0.0,0.0,0.0,0.0,0.0,0.0,0.0,0.0,0.0,0.0,0.0,0.0,0.0,0.0,0.0,0.0,0.0,0.0,0.0,0.0,0.0,0.0,0.0,0.0,0.0,0.0,0.0,0.0,0.0,0.0,0.0,0.0,0.0,0.0,0.0,0.0,0.0,0.0,0.0,0.0,0.0,0.0,0.0,0.0,0.0,0.0,0.0,0.0,0.0,0.0,0.0,0.0,0.0,0.0,0.0,0.0,0.0,0.0,0.0,0.0,0.0,0.0,0.0,0.0,0.0,0.0,0.0,0.0,0.0,0.0,0.0,0.0,0.0,0.0,0.0,0.0,0.0,0.0,0.0,0.0,0.0,0.0,0.0,0.0,0.0,0.0,0.0,0.0,0.0,0.0,0.0,0.0,0.0,0.0,0.0,0.0,0.0,0.0,0.0,0.8498,0.838,0.0,0.971,1.0693,1.1309,1.1675,1.2671,1.454,0.0,0.0,0.0,0.0,0.0,0.0,0.0,0.0,0.0,0.0,0.0,0.0,0.0,0.0,0.0,0.0,0.0,0.0,0.0,0.0,0.0,0.0,0.0,0.0,0.0,0.0,0.0,0.0,0.0,0.0,0.0,0.0,0.0,0.0,0.0,0.0,0.0,0.0,0.0,0.0,0.0,0.0,0.0,0.0,0.0,0.0,0.0,0.0,0.0,0.0,0.0,0.0,0.0,0.0,0.0,0.0,0.0,0.0,0.0,0.0,0.0,0.0,0.0,0.0,0.0,0.0,0.0,0.0,0.0,0.0,0.0,0.0,0.0,0.0,0.0,0.0,0.0,0.0,0.0,0.0,0.0,0.0,0.0,0.0,0.0,0.0,0.0,0.0,0.0,0.0,0.0,0.0,0.0,0.0,0.0,0.0,0.0,0.0,0.0,0.0,0.0,0.0,0.9054,0.8736,0.8512,0.0,0.9688,1.0533,1.1042,1.1816,1.2911,1.4465,0.0,0.0,0.0,0.0,0.0,0.0,0.0,0.0,0.0,0.0,0.0,0.0,0.0,0.0,0.0,0.0,0.0,0.0,0.0,0.0,0.0,0.0,0.0,0.0,0.0,0.0,0.0,0.0,0.0,0.0,0.0,0.0,0.0,0.0,0.0,0.0,0.0,0.0,0.0,0.0,0.0,0.0,0.0,0.0,0.0,0.0,0.0,0.0,0.0,0.0,0.0,0.0,0.0,0.0,0.0,0.0,0.0,0.0,0.0,0.0,0.0,0.0,0.0,0.0,0.0,0.0,0.0,0.0,0.0,0.0,0.0,0.0,0.0,0.0,0.0,0.0,0.0,0.0,0.0,0.0,0.0,0.0,0.0,0.0,0.0,0.0,0.0,0.0,0.0,0.0,0.0,0.0,0.0,0.0,0.0,0.0,0.0,0.0,0.0,0.0,0.0,0.0,0.8405,0.8142,0.802,0.8355,0.882,0.9469,1.0325,1.0832,1.1948,0.0,0.0,0.0,0.0,0.0,0.0,0.0,0.0,0.0,0.0,0.0,0.0,0.0,0.0,0.0,0.0,0.0,0.0,0.0,0.0,0.0,0.0,0.0,0.0,0.0,0.0,0.0,0.0,0.0,0.0,0.0,0.0,0.0,0.0,0.0,0.0,0.0,0.0,0.0,0.0,0.0,0.0,0.0,0.0,0.0,0.0,0.0,0.0,0.0,0.0,0.0,0.0,0.0,0.0,0.0,0.0,0.0,0.0,0.0,0.0,0.0,0.0,0.0,0.0,0.0,0.0,0.0,0.0,0.0,0.0,0.0,0.0,0.0,0.0,0.0,0.0,0.0,0.0,0.0,0.0,0.0,0.0,0.0,0.0,0.0,0.0,0.0,0.0,0.0,0.0,0.0,0.0,0.0,0.0,0.0,0.0,0.0,0.0,0.0,0.0,0.0,0.0,0.0,0.835,0.7803,0.7599,0.8131,0.8939,0.975,1.0483,1.171,1.3175,1.4885,0.0,0.0,0.0,0.0,0.0,0.0,0.0,0.0,0.0,0.0,0.0,0.0,0.0,0.0,0.0,0.0,0.0,0.0,0.0,0.0,0.0,0.0,0.0,0.0,0.0,0.0,0.0,0.0,0.0,0.0,0.0,0.0,0.0,0.0,0.0,0.0,0.0,0.0,0.0,0.0,0.0,0.0,0.0,0.0,0.0,0.0,0.0,0.0,0.0,0.0,0.0,0.0,0.0,0.0,0.0,0.0,0.0,0.0,0.0,0.0,0.0,0.0,0.0,0.0,0.0,0.0,0.0,0.0,0.0,0.0,0.0,0.0,0.0,0.0,0.0,0.0,0.0,0.0,0.0,0.0,0.0,0.0,0.0,0.0,0.0,0.0,0.0,0.0,0.0,0.0,0.0,0.0,0.0,0.0,0.0,0.0,0.0,0.0,0.0,0.0,0.0,0.0,0.8665,0.8109,0.7907,0.8382,0.9438,1.0366,1.0991,1.2346,1.3733,1.5073,0.0,0.0,0.0,0.0,0.0,0.0,0.0,0.0,0.0,0.0,0.0,0.0,0.0,0.0,0.0,0.0,0.0,0.0,0.0,0.0,0.0,0.0,0.0,0.0,0.0,0.0,0.0,0.0,0.0,0.0,0.0,0.0,0.0,0.0,0.0,0.0,0.0,0.0,0.0,0.0,0.0,0.0,0.0,0.0,0.0,0.0,0.0,0.0,0.0,0.0,0.0,0.0,0.0,0.0,0.0,0.0,0.0,0.0,0.0,0.0,0.0,0.0,0.0,0.0,0.0,0.0,0.0,0.0,0.0,0.0,0.0,0.0,0.0,0.0,0.0,0.0,0.0,0.0,0.0,0.0,0.0,0.0,0.0,0.0,0.0,0.0,0.0,0.0,0.0,0.0,0.0,0.0,0.0,0.0,0.0,0.0,0.0,0.0,0.0,0.0,0.0,0.0,0.9189,0.8804,0.865,0.8955,1.0135,1.112,1.168,1.2789,1.3865,1.4815,0.0,0.0,0.0,0.0,0.0,0.0,0.0,0.0,0.0,0.0,0.0,0.0,0.0,0.0,0.0,0.0,0.0,0.0,0.0,0.0,0.0,0.0,0.0,0.0,0.0,0.0,0.0,0.0,0.0,0.0,0.0,0.0,0.0,0.0,0.0,0.0,0.0,0.0,0.0,0.0,0.0,0.0,0.0,0.0,0.0,0.0,0.0,0.0,0.0,0.0,0.0,0.0,0.0,0.0,0.0,0.0,0.0,0.0,0.0,0.0,0.6877,0.7366,0.0,0.0,0.0,0.0,0.0,0.0,0.0,0.0,0.0,0.0,0.0,0.0,0.0,0.0,0.0,0.0,0.0,0.0,0.0,0.0,0.0,0.0,0.0,0.0,0.0,0.0,0.0,0.0,0.0,0.0,0.0,0.0,0.0,0.0,0.0,0.0,0.0,0.0,0.0,0.0,0.9226,0.9033,0.9074,0.9469,1.0362,1.1171,1.1887,1.3081,1.4227,1.5198,1.6055,0.0,0.0,0.0,0.0,0.0,0.0,0.0,0.0,0.0,0.0,0.0,0.0,0.0,0.0,0.0,0.0,0.0,0.0,0.0,0.0,0.0,0.0,0.0,0.0,0.0,0.0,0.0,0.0,0.0,0.0,0.0,0.0,0.0,0.0,0.0,0.0,0.0,0.0,0.0,0.0,0.0,0.0,0.0,0.0,0.0,0.0,0.0,0.0,0.0,0.0,0.0,0.0,0.0,0.0,0.0,0.0,0.0,0.0,0.0,0.6785,0.7131,0.0,0.0,0.0,0.0,0.0,0.0,0.0,0.0,0.0,0.0,0.0,0.0,0.0,0.0,0.0,0.0,0.0,0.0,0.0,0.0,0.0,0.0,0.0,0.0,0.0,0.0,0.0,0.0,0.0,0.0,0.0,0.0,0.0,0.0,0.0,0.0,0.0,0.0,0.0,0.0,0.9536,0.9166,0.9096,0.9572,1.0436,1.1367,1.2251,1.327,1.4207,1.5074,1.5881,0.0,0.0,0.0,0.0,0.0,0.0,0.0,0.0,0.0,0.0,0.0,0.0,0.0,0.0,0.0,0.0,0.0,0.0,0.0,0.0,0.0,0.0,0.0,0.0,0.0,0.0,0.0,0.0,0.0,0.0,0.0,0.0,0.0,0.0,0.0,0.0,0.0,0.0,0.0,0.0,0.0,0.0,0.0,0.0,0.0,0.0,0.0,0.0,0.0,0.0,0.0,0.0,0.0,0.5868,0.6007,0.6161,0.6161,0.6161,0.6201,0.6716,0.6884,0.6856,0.6934,0.0,0.0,0.0,0.0,0.0,0.0,0.0,0.0,0.0,0.0,0.0,0.0,0.0,0.0,0.0,0.0,0.0,0.0,0.0,0.0,0.0,0.0,1.0648,1.0285,1.0921,1.1621,1.1631,0.0,0.0,0.0,0.0,0.0,0.0,0.0,0.0,0.0,0.0,0.0,0.9791,0.9291,0.9067,0.9491,1.0527,1.1559,1.2479,1.3291,1.4006,1.4592,1.5244,1.5795,0.0,0.0,0.0,0.0,0.0,0.0,0.0,0.0,0.0,0.0,0.0,0.0,0.0,0.0,0.0,0.0,0.0,0.0,0.0,0.0,0.0,0.0,0.0,0.0,0.0,0.0,0.0,0.0,0.0,0.0,0.0,0.0,0.1552,0.215,0.0,0.0,0.0,0.0,0.0,0.0,0.0,0.0,0.0,0.0,0.0,0.0,0.0,0.536,0.5758,0.5895,0.61,0.631,0.6814,0.7081,0.7108,0.7108,0.7108,0.7095,0.6563,0.0,0.6572,0.7203,0.0,0.0,0.0,0.0,0.0,0.0,0.0,0.0,0.0,0.0,0.0,0.0,0.0,0.0,0.0,0.0,0.0,0.0,0.0,0.0,0.0,0.0,0.9159,0.9611,1.0068,1.0421,1.0494,1.1301,1.1972,1.1918,1.1877,1.1728,0.0,0.0,0.0,0.0,0.0,0.0,0.9398,0.9393,0.9459,0.9669,1.0735,1.1589,1.1975,1.2901,1.3609,1.3927,1.4308,1.5164,1.6613,1.6213,0.0,0.0,0.0,0.0,0.0,0.0,0.0,0.0,0.0,0.0,0.0,0.0,0.0,0.0,0.0,0.0,0.0,0.0,0.0,0.0,0.0,0.0,0.0,0.0,0.0,0.0,0.0,0.0,0.0,0.1442,0.189,0.2595,0.2262,0.2234,0.0,0.0,0.0,0.0,0.0,0.0,0.0,0.0,0.0,0.5349,0.5903,0.6294,0.6441,0.6583,0.6704,0.6871,0.7148,0.7214,0.7214,0.7214,0.7224,0.7112,0.6989,0.6811,0.6606,0.6459,0.6358,0.6267,0.0,0.0,0.0,0.0,0.7329,0.7555,0.8215,0.8603,0.8841,0.9137,0.0,0.0,0.0,0.0,0.0,0.0,0.0,0.8732,0.8904,0.8818,0.883,0.9287,0.9626,0.9986,1.0334,1.0939,1.1401,1.1519,1.1578,1.1418,1.0863,1.1065,0.0,0.0,0.0,1.0435,1.0321,1.0316,1.0293,1.0391,1.1065,1.1596,1.1881,1.2516,1.3094,1.3547,1.3855,1.4634,1.601,1.5882,1.6241,0.0,0.0,0.0,0.0,0.0,0.0,0.0,0.0,0.0,0.0,0.0,0.0,0.0,0.0,0.0,0.0,0.0,0.0,0.0,0.0,0.0,0.0,0.0,0.0,0.0,0.0,0.0,0.0,0.1731,0.2155,0.2765,0.2798,0.2954,0.0,0.0,0.0,0.0,0.0,0.0,0.5272,0.546,0.5665,0.5816,0.6332,0.6581,0.6697,0.6923,0.7068,0.7202,0.7202,0.7202,0.7202,0.7279,0.7254,0.7155,0.7444,0.7324,0.6765,0.6274,0.5905,0.5793,0.5953,0.5984,0.6048,0.688,0.7258,0.7464,0.8103,0.833,0.8399,0.8928,0.8925,0.8816,0.9042,0.0,0.0,0.0,0.0,0.8889,0.8948,0.8985,0.9109,0.9358,0.9695,1.0077,1.0526,1.0886,1.1175,1.1276,1.1326,1.1167,1.071,1.1015,0.0,1.0537,1.0793,1.1019,1.096,1.0867,1.0869,1.0903,1.1248,1.1596,1.1778,1.2352,1.2854,1.3152,1.3766,1.451,1.5372,1.5768,1.6205,1.6697,0.0,0.0,0.0,0.0,0.0,0.0,0.0,0.0,0.0,0.0,0.0,0.0,0.0,0.0,0.0,0.0,0.0,0.0,0.0,0.0,0.0,0.0,0.0,0.0,0.0,0.0,0.0,0.0,0.0,0.2422,0.2968,0.0,0.0,0.0,0.0,0.5881,0.6091,0.6388,0.678,0.5532,0.5,0.5431,0.5401,0.5606,0.5976,0.6644,0.7065,0.7327,0.7327,0.7327,0.7327,0.7573,0.7562,0.7406,0.7632,0.759,0.7155,0.7198,0.6779,0.6178,0.655,0.6555,0.6442,0.7106,0.7413,0.7483,0.8187,0.8422,0.8528,0.9325,0.9392,0.9055,0.8425,0.8362,0.0,0.0,0.924,0.9493,0.9546,0.9797,1.0031,1.0046,1.0496,1.0929,1.0875,1.1361,1.1728,1.1368,1.1326,1.1267,1.1276,0.0,1.1156,1.0757,1.0833,1.0827,1.0578,1.0642,1.0758,1.0873,1.1255,1.1519,1.1514,1.2573,1.3076,1.2585,1.4033,1.4993,1.512,1.5565,1.6084,1.671,1.5988,0.0,0.0,0.0,0.0,0.0,0.0,0.0,0.0,0.0,0.0,0.0,0.0,0.0,0.0,0.0,0.0,0.0,0.0,0.0,0.0,0.0,0.0,0.0,0.0,0.0,0.0,0.0,0.0,0.304,0.2912,0.0,0.4512,0.472,0.5258,0.6145,0.6187,0.6271,0.6288,0.5518,0.5135,0.5421,0.5201,0.5712,0.6883,0.6103,0.6541,0.8115,0.7149,0.7182,0.7942,0.7858,0.7848,0.776,0.7923,0.7849,0.7707,0.7626,0.7183,0.6556,0.6759,0.6921,0.7157,0.7397,0.7752,0.8111,0.8259,0.8265,0.8287,0.858,0.8724,0.8795,0.8429,0.8533,0.8798,0.8956,0.9288,0.9556,0.9591,0.9702,0.979,0.979,1.0385,1.0906,1.0669,1.1247,1.1722,1.1369,1.1326,1.1326,1.1326,1.1326,1.1225,1.1096,1.1178,1.1274,1.1173,1.1357,1.1402,1.1195,1.1583,1.1761,1.1543,1.2118,1.2689,1.3006,1.3587,1.4289,1.5206,1.5377,1.564,1.5964,1.5712,1.522,0.0,0.0,0.0,0.0,0.0,0.0,0.0,0.0,0.0,0.0,0.0,0.0,0.0,0.0,0.0,0.0,0.0,0.0,0.0,0.0,0.0,0.0,0.0,0.0,0.0,0.0,0.202,0.2933,0.284,0.3055,0.4155,0.48,0.5404,0.5898,0.6388,0.6394,0.5829,0.5185,0.4754,0.4559,0.441,0.4784,0.595,0.5463,0.6068,0.776,0.7048,0.726,0.8123,0.8033,0.8025,0.7947,0.8174,0.813,0.8008,0.7959,0.759,0.7101,0.7129,0.7328,0.7511,0.7567,0.7842,0.8204,0.8159,0.8206,0.8267,0.8156,0.8305,0.8489,0.8287,0.838,0.8648,0.8982,0.9187,0.9315,0.9698,0.9676,0.9652,0.986,1.0501,1.1016,1.0987,1.1515,1.1918,1.1541,1.1362,1.1326,1.1326,1.1326,1.1326,1.1326,1.1377,1.1427,1.1469,1.1678,1.1679,1.1517,1.1822,1.1953,1.174,1.207,1.2538,1.3097,1.3571,1.424,1.5132,1.5314,1.5452,1.5579,1.5501,1.4915,1.3858,0.0,0.0,0.0,0.0,0.0,0.0,0.0,0.0,0.0,0.0,0.0,0.0,0.0,0.0,0.0,0.0,0.0,0.0,0.0,0.0,0.0,0.0,0.0,0.2329,0.2107,0.1905,0.2034,0.2796,0.3189,0.2786,0.4879,0.5886,0.5203,0.6573,0.6816,0.544,0.451,0.3708,0.2954,0.2897,0.2868,0.2959,0.4707,0.5727,0.6169,0.6976,0.7598,0.7948,0.8116,0.8111,0.7971,0.8404,0.8361,0.8044,0.8219,0.8085,0.7819,0.7748,0.7629,0.7509,0.7656,0.7714,0.7744,0.7946,0.8203,0.842,0.8237,0.8156,0.8108,0.7871,0.7801,0.8032,0.8903,0.8903,0.8841,0.9805,0.9797,0.966,1.04,1.0799,1.1177,1.1794,1.22,1.2295,1.1873,1.155,1.1285,1.1326,1.1326,1.1326,1.1326,1.1326,0.0,1.1477,1.1528,1.1628,1.1877,1.1877,1.1977,1.2076,1.254,1.278,1.2812,1.4124,1.4867,1.4886,1.5362,1.5591,1.5591,1.5244,1.4834,1.4373,0.0,0.0,0.0,0.0,0.0,0.0,0.0,0.0,0.0,0.0,0.0,0.0,0.0,0.0,0.0,0.0,0.0,0.0,0.0,0.0,0.0,0.0,0.2246,0.257,0.2318,0.223,0.258,0.2287,0.2411,0.3316,0.388,0.4352,0.4811,0.4955,0.4706,0.3959,0.3132,0.2668,0.2384,0.2087,0.2456,0.3676,0.3003,0.4018,0.6799,0.57,0.6388,0.8563,0.817,0.8093,0.8408,0.8544,0.8511,0.8406,0.8325,0.8231,0.8109,0.7907,0.7719,0.7702,0.7584,0.7628,0.7719,0.7946,0.7947,0.7855,0.7712,0.7663,0.7737,0.7506,0.779,0.8269,0.8557,0.8792,0.9014,0.9285,0.9272,0.9234,0.9485,1.0175,1.0901,1.1007,1.1815,1.2404,1.2257,1.1944,1.1593,1.1319,1.1326,1.1326,1.1326,1.1326,1.1318,1.1368,1.1427,1.1578,1.1728,1.1828,1.1977,1.2076,1.2215,1.2599,1.333,1.3726,1.4297,1.5035,1.5163,1.5244,1.5244,1.4834,1.4512,0.0,0.0,0.0,0.0,0.0,0.0,0.0,0.0,0.0,0.0,0.0,0.0,0.0,0.0,0.0,0.0,0.0,0.0,0.0,0.0,0.0,0.0,0.3199,0.3014,0.2939,0.239,0.2133,0.2581,0.1954,0.1873,0.2735,0.3216,0.3494,0.3657,0.3973,0.3784,0.2891,0.2528,0.215,0.1955,0.1648,0.2026,0.2986,0.2391,0.3234,0.5497,0.4782,0.5776,0.8088,0.7724,0.8016,0.8674,0.8674,0.8633,0.856,0.845,0.8361,0.8256,0.0,0.0,0.0,0.0,0.7451,0.7646,0.776,0.7789,0.7812,0.7695,0.765,0.7668,0.7822,0.8059,0.8441,0.8931,0.9074,0.9092,0.9346,0.926,0.9138,0.9382,1.0137,1.0788,1.0852,1.1753,1.2486,1.2266,1.229,0.0,1.1601,1.1379,1.1326,1.1326,1.1326,1.1326,1.1326,1.1377,1.1477,1.1628,1.1728,1.1877,1.1977,1.2076,0.0,0.0,0.0,1.4035,1.5062,1.5108,0.0,0.0,0.0,1.4697,1.4697,1.3637,0.0,0.0,1.2403,1.2076,0.0,0.0,0.0,0.0,0.0,0.0,0.0,0.0,0.0,0.0,0.0,0.0,0.0,0.0,0.0,0.0,0.4064,0.4048,0.3407,0.2338,0.1803,0.223,0.1955,0.1652,0.1624,0.2724,0.3099,0.2266,0.34,0.3509,0.2265,0.0,0.0,0.0,0.0,0.1577,0.1577,0.242,0.3067,0.3445,0.4195,0.5514,0.7218,0.7201,0.777,0.8824,0.884,0.8743,0.8568,0.85,0.8388,0.8167,0.7898,0.7748,0.7691,0.737,0.7358,0.749,0.7512,0.0,0.0,0.79,0.7836,0.7775,0.8379,0.8438,0.8523,0.9638,0.9405,0.9047,0.9645,0.945,0.9192,0.9701,1.0269,1.0718,1.1015,1.1782,1.2355,1.213,1.2555,1.27,1.2035,1.1619,1.1319,1.1326,1.1326,1.1326,1.1326,1.1326,1.1368,1.1477,1.1628,0.0,1.1877,1.2026,1.251,1.3467,1.3662,1.4183,1.5062,1.5165,1.5165,1.5108,1.5165,1.512,1.5017,1.4136,1.3645,1.3539,1.2578,1.2094,0.0,0.0,0.0,0.0,0.0,0.0,0.0,0.0,0.0,0.0,0.0,0.0,0.0,0.0,0.0,0.4386,0.3882,0.3456,0.3447,0.2505,0.1735,0.1797,0.1776,0.166,0.1654,0.1834,0.1915,0.1708,0.2044,0.2049,0.1709,0.1841,0.1745,0.1618,0.1611,0.1608,0.1608,0.1802,0.2694,0.4182,0.4022,0.0,0.7948,0.7634,0.7962,0.8828,0.8978,0.8861,0.8576,0.8177,0.7786,0.7403,0.7736,0.7667,0.7529,0.746,0.7397,0.7265,0.7409,0.7439,0.7392,0.7392,0.7407,0.7615,0.807,0.8338,0.0,0.9195,0.9243,0.9157,0.912,0.8992,0.8997,0.9059,0.9487,1.0038,1.074,1.1142,1.1653,1.2561,1.2469,1.2331,1.2726,1.2184,1.1627,1.1319,1.1326,1.1326,1.1326,1.1326,1.1368,1.1477,1.1528,1.1628,1.1877,1.1927,1.2206,1.2919,1.4125,1.4898,1.5074,1.5521,1.5556,1.5119,1.5533,1.5357,1.4512,1.4323,1.396,1.34,1.2523,1.225,0.0,0.0,0.0,0.0,0.0,0.0,0.0,0.0,0.0,0.0,0.0,0.3263,0.0,0.0,0.4465,0.4932,0.4377,0.3857,0.362,0.2818,0.2112,0.1841,0.1715,0.17,0.1684,0.1656,0.1645,0.1659,0.1662,0.1662,0.166,0.1675,0.167,0.1641,0.1639,0.1639,0.1639,0.1624,0.2131,0.3067,0.311,0.4464,0.6923,0.6955,0.7719,0.9088,0.9096,0.857,0.7785,0.7062,0.6621,0.6483,0.6946,0.7115,0.7152,0.724,0.7114,0.6939,0.7183,0.7321,0.7492,0.7492,0.7522,0.7586,0.7955,0.8253,0.8625,0.9098,0.9416,0.9513,0.9281,0.9308,0.9362,0.9249,0.9515,0.9876,1.0237,1.0648,1.1142,1.205,1.2251,1.2397,1.2889,1.25,1.1987,1.1619,1.1396,1.1326,1.1326,1.1326,1.1326,1.1368,1.1477,1.1657,1.2064,1.2604,1.3221,1.3862,1.462,1.5215,1.5475,1.551,1.551,1.551,1.5774,1.5525,1.477,1.4514,1.4233,1.3882,1.2859,1.2641,0.0,0.0,0.0,0.0,0.0,0.0,0.0,0.0,0.3359,0.3666,0.3787,0.3974,0.4679,0.4859,0.4938,0.5244,0.4743,0.4225,0.3636,0.2986,0.2356,0.1881,0.1757,0.174,0.1715,0.1687,0.168,0.1703,0.1689,0.1686,0.1703,0.171,0.17,0.1671,0.1665,0.1665,0.167,0.1635,0.1734,0.1869,0.2241,0.3423,0.5425,0.5824,0.6935,0.8611,0.8547,0.7745,0.6518,0.6054,0.5819,0.5711,0.616,0.6468,0.6485,0.6771,0.6647,0.653,0.6692,0.7189,0.7648,0.7648,0.7628,0.7659,0.8013,0.8273,0.8548,0.9135,0.9544,0.9718,0.9642,0.975,0.9863,0.9631,0.9755,0.9868,0.99,1.023,1.0742,1.145,1.1939,1.2466,1.2872,1.2694,1.2355,1.1856,1.1516,1.1326,1.1326,1.1326,1.1302,1.1379,1.148,1.1799,1.2352,1.3236,1.4102,1.4736,1.5004,1.5373,1.5856,1.5681,1.5659,1.59,1.6095,1.5781,1.4915,1.4861,1.4704,1.444,1.3488,1.3215,0.3278,0.3231,0.293,0.2665,0.2851,0.3291,0.0,0.0,0.42,0.448,0.4749,0.4871,0.493,0.5149,0.5137,0.4679,0.4176,0.3635,0.3058,0.2319,0.1834,0.1831,0.1782,0.1748,0.1745,0.1717,0.1701,0.1704,0.1726,0.1729,0.1705,0.173,0.1731,0.17,0.1675,0.1674,0.1699,0.1644,0.1835,0.2385,0.2443,0.3124,0.4529,0.4628,0.5027,0.579,0.6051,0.5812,0.5163,0.6159,0.6091,0.5458,0.6166,0.5982,0.5419,0.6025,0.6195,0.5988,0.6019,0.6516,0.708,0.708,0.748,0.8004,0.8242,0.8413,0.8521,0.9138,0.9322,0.9422,0.9569,0.975,0.9863,0.9631,0.9755,0.9911,1.011,0.9985,1.0234,1.1185,1.1566,1.1948,1.2758,1.2893,1.2672,1.1899,1.1516,1.1326,1.1326,1.1326,1.1404,1.1686,1.1781,1.2033,1.2678,1.2968,1.3422,1.4058,1.5073,1.5627,1.5749,1.6655,1.6738,1.5923,1.6773,1.6243,1.4273,1.5665,1.5796,1.4755,1.4272,1.4268,0.2172,0.2077,0.1833,0.0,0.1861,0.2131,0.2443,0.2464,0.2496,0.2745,0.3435,0.3931,0.3723,0.4407,0.4754,0.0,0.3684,0.3223,0.2865,0.2202,0.1808,0.179,0.175,0.1737,0.1773,0.1748,0.1738,0.1755,0.1752,0.1752,0.1757,0.1769,0.1762,0.1731,0.1702,0.1692,0.1704,0.1646,0.1734,0.2076,0.2241,0.2923,0.3924,0.4227,0.4757,0.5295,0.5009,0.4657,0.442,0.4738,0.4692,0.4391,0.4921,0.4984,0.477,0.5473,0.5612,0.5382,0.5526,0.604,0.6564,0.6564,0.6989,0.7468,0.7055,0.7655,0.8537,0.8688,0.9056,0.9596,1.0025,1.0169,1.0148,1.0186,1.0266,1.0336,1.0415,1.0302,1.0391,1.1108,1.1414,1.1703,1.231,1.2602,1.2572,1.2262,1.2058,1.1927,1.1927,1.1927,1.1987,1.2141,1.2419,1.2785,1.3093,1.3504,1.4041,1.476,1.4952,1.5382,1.6125,1.6299,1.6519,1.6761,1.7163,1.6789,1.5592,1.5935,1.5802,1.53,1.478,1.4929,0.1073,0.0,0.0,0.0867,0.1023,0.1284,0.1188,0.12,0.133,0.1497,0.2274,0.2744,0.2494,0.3132,0.3535,0.2966,0.2514,0.2045,0.1917,0.139,0.1121,0.1425,0.1394,0.1495,0.1754,0.1753,0.1759,0.178,0.177,0.1772,0.1794,0.1795,0.1781,0.175,0.172,0.1704,0.1704,0.1646,0.1633,0.1662,0.2038,0.2521,0.302,0.3406,0.3866,0.4294,0.3832,0.3571,0.3502,0.3456,0.3515,0.3678,0.3969,0.4246,0.4426,0.4966,0.5029,0.4806,0.5049,0.5489,0.6022,0.6022,0.6458,0.6867,0.621,0.6916,0.7907,0.7938,0.8559,0.9373,1.0014,1.0316,1.0509,1.0611,1.0686,1.0713,1.0649,1.0578,1.0712,1.1282,1.1601,1.1956,1.2407,1.2656,1.2797,1.2759,1.2747,1.2626,1.2432,1.2483,1.2552,1.2552,1.3009,1.3351,1.3566,1.3969,1.4497,1.5128,1.4936,1.5259,1.6166,1.5999,1.619,1.6886,1.702,1.6741,1.6052,1.5928,1.577,1.5603,1.5315,1.57,0.0395,0.0,0.0879,0.0561,0.0881,0.1328,0.1505,0.1631,0.175,0.1782,0.1697,0.1594,0.1573,0.1495,0.1051,0.0461,0.0236,-0.0,-0.059,-0.0812,-0.0454,0.0329,0.0424,0.0727,0.0,0.1717,0.175,0.1751,0.1778,0.1794,0.1795,0.1795,0.1781,0.175,0.172,0.1704,0.1704,0.1646,0.1633,0.1662,0.1631,0.1617,0.1615,0.1685,0.167,0.1765,0.221,0.2355,0.2314,0.2773,0.3287,0.3593,0.3668,0.3972,0.443,0.443,0.4371,0.4291,0.4297,0.4832,0.5455,0.5455,0.5897,0.6398,0.626,0.6218,0.6361,0.6812,0.7593,0.8492,0.9073,1.013,1.0907,1.0686,1.081,1.0912,1.0686,1.0632,1.0858,1.1798,1.2272,1.2743,1.3266,1.3393,1.3441,1.3484,1.3545,1.3264,1.2479,1.2723,1.2963,1.2963,1.328,1.3614,1.3923,1.4001,1.4139,1.4506,1.5059,1.5391,1.5449,1.5995,1.6073,1.567,1.613,1.5782,1.4681,1.5725,1.5948,1.5449,1.6005,1.6574,-0.1031,-0.1001,-0.0861,-0.1013,-0.0852,-0.0777,-0.0799,-0.0911,-0.0903,-0.0898,-0.0331,-0.0108,-0.0427,0.0107,0.0435,-0.0222,-0.0457,-0.0583,-0.0812,-0.0922,-0.0788,-0.0531,-0.0,0.0,0.0,0.0,0.0,0.1747,0.1759,0.1774,0.1794,0.1795,0.1791,0.178,0.1731,0.1704,0.1704,0.1646,0.1622,0.1632,0.1622,0.1617,0.1616,0.1607,0.1601,0.1598,0.2031,0.2201,0.2302,0.304,0.3458,0.3665,0.4057,0.4217,0.4353,0.4414,0.4377,0.43,0.43,0.4478,0.4656,0.4656,0.5191,0.5628,0.5144,0.592,0.7048,0.708,0.8021,0.9312,0.995,1.0526,1.1004,1.109,1.1171,1.1209,1.1043,1.0982,1.0898,1.1064,1.1247,1.1521,1.2164,1.2614,1.3127,1.3729,1.3863,1.3924,1.393,1.3802,1.3725,1.3725,1.3214,1.3046,1.3613,1.3464,1.3553,1.4056,1.4514,1.4961,1.5352,1.5575,1.5793,1.6038,1.6239,1.6115,1.5735,1.5726,1.5584,1.541,1.5633,1.5806,-0.1841,-0.1849,-0.1833,-0.1741,-0.1813,-0.1862,-0.1999,-0.2201,-0.2266,-0.2325,-0.182,-0.1554,-0.182,-0.13,-0.1006,-0.1452,-0.1621,-0.1668,-0.179,-0.1921,-0.1785,-0.1476,-0.0624,-0.0,0.0,0.0,0.0,0.173,0.1753,0.1774,0.1794,0.1795,0.1785,0.1763,0.1725,0.1694,0.1673,0.1636,0.1617,0.1617,0.1617,0.1617,0.1617,0.1617,0.1611,0.1598,0.1852,0.2022,0.2012,0.258,0.3002,0.3386,0.3779,0.4032,0.4355,0.4414,0.4398,0.4342,0.431,0.43,0.43,0.43,0.4656,0.4924,0.4478,0.5453,0.6694,0.6599,0.7933,0.9434,0.999,1.062,1.1155,1.123,1.1262,1.1262,1.1262,1.116,1.1023,1.1117,1.1078,1.1248,1.1853,1.2506,1.3142,1.3784,1.4123,1.4227,1.408,1.3738,1.3484,1.3307,1.272,1.2476,1.302,1.3012,1.3179,1.359,1.4046,1.4457,1.4851,1.5027,1.5245,1.5633,1.5633,1.5633,1.5633,1.5245,1.5069,1.5069,1.5303,1.541,-0.1945,-0.1828,-0.1919,-0.1851,-0.1888,-0.2005,-0.224,-0.2296,-0.2328,-0.2463,-0.2679,-0.2773,0.0,0.0,-0.2967,-0.3133,-0.3202,-0.3345,-0.3412,-0.3522,-0.333,0.0,0.0,0.0,0.0,0.0,0.0,0.1705,0.0,0.1795,0.1795,0.1796,0.177,0.1711,0.1706,0.1677,0.1622,0.1618,0.1617,0.1617,0.1617,0.1617,0.1617,0.1617,0.1601,0.1574,0.1572,0.154,0.1487,0.1483,0.2104,0.2882,0.3032,0.3608,0.4436,0.444,0.4438,0.4422,0.433,0.43,0.43,0.43,0.43,0.43,0.43,0.4835,0.546,0.5633,0.7217,0.889,0.9148,1.0202,1.1262,1.1262,1.1262,1.1262,1.1262,1.116,1.1144,1.1798,1.1828,1.1884,1.2368,1.2939,1.3414,1.3594,1.4151,1.419,1.3097,1.2743,1.2453,1.1971,1.192,1.1978,1.2173,1.2594,1.2908,1.3035,1.3575,1.3887,1.387,1.4292,1.4474,1.4515,1.4515,1.4515,1.4515,1.4515,1.4515,1.4506,1.5079,1.5352,-0.1988,-0.2095,-0.2189,-0.1904,-0.2278,-0.2629,-0.2364,-0.2481,-0.2674,-0.2681,-0.269,-0.2784,0.0,0.0,0.0,-0.3112,-0.3202,0.0,-0.3522,-0.3647,0.0,-0.3334,0.0,-0.1663,-0.0649,0.0218,0.0,0.0,0.1774,0.1795,0.1795,0.1817,0.1811,0.1773,0.1728,0.1697,0.1682,0.1639,0.1617,0.1617,0.1617,0.1617,0.1617,0.1617,0.1613,0.1604,0.1581,0.1576,0.1577,0.1886,0.2419,0.3003,0.3488,0.3932,0.4442,0.4512,0.4493,0.4422,0.433,0.43,0.43,0.43,0.43,0.43,0.43,0.4835,0.5371,0.546,0.6514,0.7742,0.8711,0.9501,1.0289,1.1089,1.1262,1.1262,1.1262,1.116,1.1017,1.092,1.1164,1.1516,1.1866,1.2339,1.2823,1.3367,1.3585,1.3755,1.412,1.4164,1.3794,1.2777,1.2451,1.2265,1.2089,1.1977,1.2197,1.2702,1.3073,1.3494,1.3878,1.3973,1.418,1.4515,1.4515,1.4515,1.4515,1.4515,1.4515,1.4515,1.4684,1.4734,-0.4001,-0.3819,-0.3459,-0.3271,-0.3011,-0.2842,-0.2644,-0.2708,-0.273,-0.275,-0.2642,0.0,-0.2552,0.0,0.0,0.0,0.0,0.0,-0.3446,-0.362,-0.3704,0.0,-0.2989,0.0,-0.1585,-0.0797,-0.0114,0.0,0.135,0.1795,0.1795,0.1811,0.1806,0.1776,0.1729,0.1692,0.1666,0.1647,0.163,0.1617,0.1617,0.1617,0.1617,0.1617,0.1609,0.1596,0.1593,0.1585,0.1574,0.1824,0.2188,0.267,0.3238,0.3782,0.4217,0.4458,0.4514,0.4428,0.4377,0.4332,0.43,0.43,0.43,0.43,0.43,0.4835,0.5371,0.5371,0.629,0.7403,0.8205,0.8738,0.9181,0.9986,1.045,1.0651,1.0651,1.0815,1.0912,1.0681,1.0839,1.1027,1.1163,1.1811,1.2331,1.2746,1.3029,1.3257,1.3527,1.3677,1.324,1.2036,1.1774,1.16,1.1482,1.1469,1.1657,1.2037,1.2401,1.2803,1.3306,1.3244,1.3422,1.3821,1.3978,1.407,1.407,1.4387,1.4515,1.4515,1.4689,1.468,-0.6534,-0.6074,-0.5207,-0.5134,-0.4188,-0.3345,-0.3177,-0.2958,-0.281,-0.2714,0.0,-0.2422,-0.2328,-0.2358,-0.2463,-0.267,0.0,-0.3101,-0.3315,-0.3523,-0.3662,-0.3687,-0.3041,-0.2597,-0.2479,-0.177,-0.1178,-0.1055,0.0573,0.1579,0.1576,0.1688,0.1785,0.175,0.1724,0.1682,0.1624,0.1653,0.1651,0.1617,0.1625,0.1624,0.1617,0.1621,0.1607,0.1579,0.1605,0.1587,0.154,0.166,0.1945,0.2394,0.2966,0.344,0.4012,0.4397,0.4532,0.4453,0.4438,0.4375,0.43,0.43,0.43,0.43,0.43,0.4746,0.5285,0.53,0.6076,0.6963,0.7434,0.7786,0.8133,0.8583,0.9181,0.9767,0.9859,1.0469,1.0923,1.0719,1.0654,1.0638,1.0638,1.1291,1.184,1.1958,1.2447,1.2676,1.2215,1.2386,1.2061,1.0887,1.0846,1.0846,1.0773,1.1132,1.1335,1.1409,1.1675,1.2047,1.2558,1.2385,1.2476,1.2971,1.3273,1.3458,1.3458,1.4143,1.4514,1.4478,1.493,1.4992,-0.6798,-0.695,-0.6938,-0.642,-0.6288,-0.587,-0.4566,-0.404,0.0,0.0,-0.2293,-0.215,-0.218,-0.2234,-0.2383,-0.2714,0.0,0.0,0.0,0.0,-0.3583,0.0,0.0,0.0,0.0,0.0,0.0,0.0,-0.0,0.0697,0.0687,0.1374,0.1807,0.1751,0.1744,0.1714,0.1655,0.1682,0.167,0.1618,0.1666,0.1664,0.1618,0.1643,0.1638,0.1609,0.1614,0.1611,0.1599,0.2071,0.2546,0.3027,0.361,0.4096,0.4586,0.4683,0.4626,0.4538,0.4461,0.4375,0.43,0.43,0.43,0.43,0.43,0.4389,0.4493,0.4572,0.4729,0.5143,0.6409,0.6805,0.7071,0.8232,0.8652,0.8982,0.9772,1.0469,1.0972,1.0934,1.0767,1.0638,1.0638,1.0751,1.0933,1.13,1.1866,1.2051,1.1608,1.2312,1.2388,1.1163,1.1636,1.1784,1.1119,1.1087,1.1186,1.1409,1.1464,1.1768,1.236,1.2223,1.2417,1.3053,1.3116,1.3076,1.3076,1.4089,1.4464,1.416,1.5133,1.5551,-0.9197,-0.907,-0.8631,-0.8199,-0.7425,-0.6404,-0.4971,0.0,0.0,0.0,-0.2117,-0.2088,-0.2119,0.0,0.0,0.0,0.0,0.0,0.0,0.0,0.0,0.0,0.0,0.0,0.0,0.0,-0.3031,-0.2507,-0.1669,-0.0705,0.0341,0.1249,0.1796,0.1751,0.1765,0.1737,0.1663,0.169,0.1675,0.1618,0.1661,0.1667,0.1641,0.1671,0.1886,0.2078,0.2057,0.2265,0.259,0.272,0.3003,0.3328,0.3794,0.4178,0.4379,0.4676,0.4689,0.4567,0.4522,0.4416,0.43,0.43,0.43,0.43,0.43,0.43,0.4308,0.4353,0.4367,0.4561,0.5608,0.5761,0.5986,0.6889,0.746,0.8193,0.9598,1.0211,1.057,1.1091,1.0982,1.0816,1.0816,1.0816,1.0854,1.1059,1.1462,1.1607,1.1526,1.196,1.196,1.1204,1.1484,1.1484,1.1111,1.1111,1.1111,1.126,1.1132,1.1272,1.1794,1.1587,1.1765,1.2324,1.2557,1.2856,1.3322,1.4212,1.4724,1.4951,1.5687,1.59,-1.1435,-1.1031,-1.0169,-0.9951,-0.853,-0.6921,-0.5448,-0.452,0.0,0.0,-0.1985,-0.1939,-0.1951,0.0,0.0,0.0,0.0,0.0,0.0,0.0,0.0,0.0,0.0,0.0,0.0,0.0,0.0,-0.3931,-0.3015,-0.176,-0.0,0.1011,0.1449,0.154,0.1665,0.1639,0.1463,0.1593,0.1579,0.1321,0.1566,0.1684,0.1672,0.1701,0.2032,0.2555,0.252,0.2944,0.3505,0.341,0.3501,0.3641,0.4085,0.4259,0.4257,0.4642,0.4724,0.4573,0.4573,0.4453,0.43,0.43,0.43,0.43,0.43,0.43,0.4304,0.4322,0.4367,0.4595,0.5071,0.5153,0.5319,0.5775,0.6511,0.7489,0.8982,0.9419,0.9859,1.0824,1.0846,1.0789,1.0993,1.0982,1.0966,1.0918,1.1117,1.1294,1.141,1.1525,1.15,1.1258,1.1157,1.1202,1.1202,1.1148,1.1111,1.1111,1.0918,1.0967,1.1329,1.1093,1.1173,1.1592,1.2012,1.2538,1.3149,1.4154,1.4821,1.5352,1.6105,1.6266,-1.152,-1.1639,-1.1634,-1.1137,-1.0353,-0.8977,-0.6797,0.0,0.0,-0.2395,-0.1891,-0.1828,-0.188,-0.1948,0.0,0.0,0.0,0.0,0.0,0.0,0.0,0.0,0.0,0.0,0.0,0.0,0.0,-0.3868,-0.2937,-0.1842,-0.0916,-0.0,0.056,0.0559,0.1325,0.1411,0.0638,0.1406,0.1393,0.0517,0.1415,0.1754,0.1701,0.1732,0.2055,0.2558,0.2553,0.2977,0.3511,0.4032,0.4244,0.4242,0.4685,0.4959,0.4949,0.4865,0.4724,0.4573,0.4573,0.4453,0.43,0.43,0.43,0.43,0.43,0.43,0.4316,0.44,0.4552,0.4784,0.5052,0.528,0.5387,0.566,0.6447,0.7139,0.7316,0.8017,0.8894,0.9859,1.0019,1.0201,1.0852,1.0982,1.0912,1.0697,1.0848,1.099,1.0935,1.1325,1.1588,1.1558,1.148,1.1492,1.1492,1.1262,1.1111,1.1111,1.1087,1.1087,1.1111,1.1052,1.1244,1.1662,1.1683,1.1682,1.1824,1.3648,1.4409,1.4106,1.5956,1.6835,-1.1187,-1.1516,-1.1606,-1.1175,-1.0396,-0.9202,-0.7354,0.0,0.0,-0.2873,-0.2172,-0.1826,-0.1918,-0.1956,-0.204,0.0,0.0,0.0,0.0,0.0,0.0,0.0,0.0,0.0,0.0,0.0,-0.3876,-0.3912,-0.3475,-0.3063,-0.2682,-0.1251,-0.0112,0.0336,0.0223,0.0329,0.0532,0.0325,-0.0,-0.0415,-0.0,0.011,0.0216,0.1101,0.1436,0.1317,0.2932,0.3587,0.3615,0.4402,0.482,0.4853,0.4926,0.4971,0.4961,0.4869,0.4328,0.371,0.371,0.3151,0.2685,0.3224,0.3044,0.2773,0.3939,0.43,0.4306,0.4342,0.451,0.4757,0.4973,0.5315,0.5644,0.5644,0.5997,0.6438,0.6966,0.7404,0.7929,0.8894,0.9506,1.0005,1.0267,1.0771,1.1171,1.1079,1.1144,1.1256,1.1332,1.1657,1.1928,1.2069,1.1855,1.1703,1.1546,1.1425,1.1292,1.1123,1.1111,1.1111,1.1111,1.1156,1.1298,1.1552,1.1598,1.1899,1.2401,1.3742,1.4601,1.4895,1.6253,1.6908,-1.068,-1.1122,-1.1269,-1.0964,-1.0213,-0.9036,0.0,0.0,0.0,-0.2989,-0.2229,-0.1823,-0.1905,-0.195,-0.2014,0.0,0.0,-0.2223,0.0,0.0,0.0,0.0,0.0,0.0,0.0,-0.3845,-0.3905,-0.3947,-0.3877,-0.3815,-0.3771,-0.2511,-0.1342,-0.0445,-0.0668,-0.0659,-0.0319,-0.065,-0.108,-0.1264,-0.0869,-0.0551,-0.022,0.0557,0.1008,0.1118,0.2653,0.3432,0.3685,0.4365,0.4884,0.512,0.4755,0.4786,0.4957,0.4133,0.3521,0.304,0.2739,0.2119,0.1522,0.2238,0.2149,0.2058,0.3132,0.3671,0.3851,0.3851,0.43,0.4837,0.5102,0.5463,0.5733,0.5733,0.5733,0.5911,0.6526,0.67,0.6966,0.7929,0.8807,0.9593,0.9859,1.0646,1.1262,1.1262,1.1262,1.1348,1.1527,1.1785,1.2037,1.2283,1.2129,1.1966,1.1787,1.1618,1.1449,1.1244,1.1154,1.1111,1.1111,1.126,1.1335,1.1409,1.1558,1.1922,1.2579,1.3827,1.4752,1.5336,1.6501,1.7018,-0.9977,-1.0566,-1.0928,-1.0741,-1.0022,-0.8883,0.0,0.0,0.0,-0.2368,-0.1879,-0.1798,-0.1798,-0.1894,-0.1973,-0.1976,0.0,0.0,0.0,0.0,0.0,0.0,0.0,0.0,-0.3567,-0.3808,-0.395,-0.3951,-0.3838,0.0,-0.377,-0.3654,-0.3116,-0.2189,-0.1312,-0.1301,-0.2024,-0.13,-0.1312,-0.2187,-0.1001,0.0224,0.1231,0.0448,0.1009,0.2576,0.1457,0.1904,0.358,0.3579,0.421,0.5126,0.3964,0.4105,0.4743,0.2583,0.2322,0.2939,0.1953,0.1549,0.1431,0.1431,0.2059,0.2688,0.17,0.2149,0.2956,0.2956,0.3939,0.5099,0.5552,0.5733,0.5733,0.5733,0.5733,0.5733,0.5733,0.5733,0.5997,0.6966,0.7841,0.8807,0.9767,1.0646,1.1262,1.1262,1.1262,1.1262,1.1262,1.1527,1.1785,1.1957,1.2283,1.2336,1.233,1.183,1.1534,1.1528,1.1268,1.1111,1.1111,1.1111,1.1186,1.1409,1.1409,1.1484,1.1706,1.3851,1.4911,1.4977,1.6674,1.7284,-0.869,-0.91,-0.925,-0.8942,-0.8201,-0.7231,-0.6211,0.0,0.0,-0.2837,-0.2195,-0.1809,-0.1847,-0.1884,-0.1965,-0.2131,-0.2138,0.0,0.0,0.0,0.0,0.0,0.0,0.0,0.0,0.0,-0.3871,-0.383,-0.379,-0.3733,-0.365,-0.3608,-0.313,-0.2224,-0.2557,-0.2537,-0.217,-0.2316,-0.2543,-0.2846,-0.2226,-0.1795,-0.1457,-0.0672,-0.0448,-0.056,0.0896,0.1344,0.1231,0.199,0.2523,0.2829,0.2429,0.2496,0.2679,0.1987,0.1451,0.1043,0.0651,0.0091,-0.0269,0.0984,0.0716,0.0269,0.188,0.3135,0.3941,0.4206,0.4652,0.5116,0.5647,0.585,0.585,0.585,0.585,0.5828,0.5749,0.5733,0.5822,0.6086,0.6877,0.7841,0.8807,0.9685,1.0559,1.1176,1.1262,1.1262,1.1262,1.1527,1.1785,1.1957,1.2203,1.2348,1.2337,1.2161,1.1914,1.1552,1.1449,1.1401,1.1401,1.1401,1.1486,1.1739,1.1745,1.1823,1.2142,1.3452,1.4805,1.6263,1.74,1.7706,0.0,-0.8073,-0.8207,-0.7726,-0.7085,0.0,0.0,0.0,0.0,0.0,-0.218,-0.1815,-0.1871,-0.1882,-0.1946,-0.2144,-0.2195,0.0,0.0,0.0,0.0,0.0,0.0,0.0,0.0,-0.3798,-0.382,-0.3805,-0.3718,-0.3653,-0.3623,-0.3578,-0.3219,-0.2554,-0.311,-0.3095,-0.2516,-0.278,-0.2901,-0.2984,-0.268,-0.2244,-0.1793,-0.1233,-0.1121,-0.1346,-0.0111,0.0222,0.0,0.0871,0.14,0.1708,0.167,0.1744,0.1617,0.1274,0.067,-0.0,-0.0368,-0.0907,-0.1166,0.0358,0.0358,0.0179,0.2776,0.3673,0.3941,0.4743,0.501,0.5114,0.5639,0.5839,0.585,0.5893,0.5871,0.5831,0.5803,0.5763,0.5733,0.5733,0.6438,0.7316,0.7841,0.9069,1.012,1.0646,1.1089,1.1262,1.1262,1.144,1.1613,1.1871,1.2118,1.2304,1.2308,1.229,1.2174,1.1848,1.1733,1.1679,1.1679,1.1679,1.1757,1.192,1.192,1.2086,1.2412,1.3922,1.5467,1.703,1.7961,1.8128,0.0,0.0,0.0,0.0,0.0,0.0,0.0,0.0,0.0,0.0,0.0,0.0,0.0,-0.1884,-0.1925,-0.206,-0.22,0.0,0.0,0.0,0.0,0.0,0.0,0.0,-0.3594,-0.3696,-0.3785,-0.3837,-0.3631,-0.355,-0.3659,-0.3557,-0.3391,-0.3069,-0.3066,-0.3064,-0.3064,-0.2782,-0.2693,-0.2693,-0.2356,-0.1569,-0.0672,-0.1457,-0.1233,-0.0224,-0.1321,-0.1202,-0.0109,-0.0107,0.0631,0.1552,0.1445,0.1515,0.1466,0.0383,-0.0,-0.0092,-0.0994,-0.1256,-0.1166,-0.0179,0.0806,0.1969,0.403,0.3764,0.3224,0.4563,0.501,0.5102,0.5563,0.5746,0.5771,0.5877,0.5822,0.5771,0.5871,0.5809,0.5733,0.5733,0.6438,0.7054,0.7051,0.8544,0.9685,0.9767,1.0559,1.1089,1.1176,1.1176,1.1348,1.1699,1.1871,1.2123,1.2363,1.2398,1.233,1.2312,1.2083,1.195,1.195,1.195,1.1956,1.198,1.198,1.2221,1.2788,1.5113,1.6697,1.7492,1.8279,1.854,-0.5667,0.0,-0.5384,-0.5146,-0.4347,0.0,0.0,0.0,0.0,0.0,0.0,0.0,0.0,0.0,0.0,-0.2229,0.0,-0.242,0.0,0.0,0.0,0.0,-0.3565,-0.3657,-0.3657,-0.3683,-0.3685,-0.3654,-0.3598,-0.3557,-0.354,-0.3512,-0.3408,-0.3119,-0.2863,-0.2735,-0.2735,-0.2448,-0.2356,-0.2356,-0.202,-0.1795,-0.1458,-0.1683,-0.1671,-0.143,-0.1643,-0.1628,-0.1284,-0.1263,-0.0625,0.031,-0.0502,-0.0296,0.0293,-0.0755,-0.1115,-0.1015,-0.0542,-0.0359,-0.0179,0.0806,0.2237,0.358,0.3578,0.3223,0.3224,0.4563,0.501,0.5119,0.5481,0.5775,0.5871,0.5896,0.5882,0.5847,0.5784,0.5752,0.5733,0.5733,0.5911,0.626,0.6966,0.7492,0.8017,0.8719,0.8982,0.9419,1.012,1.0207,1.0646,1.1613,1.1871,1.2123,1.2363,1.2565,1.253,1.2324,1.2252,1.2222,1.2222,1.2222,1.2318,1.2518,1.2692,1.3272,1.4248,1.571,1.6895,1.7869,1.8611,1.8806,-0.5297,-0.4967,-0.4561,-0.4262,-0.351,-0.2698,0.0,0.0,0.0,0.0,0.0,0.0,0.0,0.0,0.0,0.0,-0.2361,0.0,0.0,0.0,0.0,0.0,-0.3579,-0.3647,0.0,-0.3653,-0.3634,-0.363,-0.3527,-0.3367,-0.3279,-0.3231,-0.3001,-0.2704,-0.2487,-0.2396,-0.2435,-0.2122,-0.202,-0.202,-0.1907,-0.1788,-0.1774,-0.1774,-0.1758,-0.1728,-0.1715,-0.1701,-0.1682,-0.1654,-0.1025,-0.0,-0.01,-0.0098,-0.0,-0.0,-0.0371,-0.0728,-0.018,0.0628,0.1433,0.188,0.3133,0.4208,0.3939,0.3851,0.3941,0.4743,0.501,0.5114,0.5448,0.5554,0.5745,0.589,0.5769,0.5729,0.5812,0.5771,0.5733,0.5733,0.5733,0.5838,0.6424,0.6879,0.7351,0.7959,0.8422,0.9054,1.0051,1.0056,1.0436,1.1598,1.1766,1.1952,1.2203,1.2454,1.2559,1.2499,1.2493,1.2493,1.2493,1.2493,1.256,1.2699,1.2966,1.3555,1.4545,1.5779,1.6935,1.7844,1.8745,1.9034,-0.5306,-0.4987,-0.447,-0.3925,-0.328,-0.2661,0.0,0.0,0.0,0.0,0.0,0.0,0.0,0.0,0.0,0.0,0.0,0.0,0.0,0.0,0.0,0.0,-0.355,0.0,-0.3646,-0.3613,-0.3609,-0.3661,-0.3467,-0.3287,-0.306,-0.297,-0.2708,-0.2083,-0.2219,-0.2161,-0.2115,-0.1897,-0.1785,-0.1781,-0.1786,-0.1772,-0.1743,-0.1743,-0.1726,-0.1697,-0.1673,-0.1555,-0.1446,-0.1423,-0.0605,0.0504,0.1102,0.098,0.0475,0.1134,0.0739,-0.0179,-0.009,0.1254,0.2867,0.2867,0.3492,0.4389,0.4659,0.4661,0.4659,0.4921,0.501,0.5099,0.5371,0.5371,0.5484,0.5761,0.5621,0.5486,0.5764,0.5801,0.5733,0.5733,0.5733,0.5765,0.586,0.6524,0.7122,0.7246,0.7937,0.8885,1.0102,1.0131,1.0372,1.1609,1.1701,1.1824,1.1963,1.2289,1.2448,1.2705,1.2705,1.2723,1.2765,1.2771,1.2771,1.2771,1.2942,1.36,1.4559,1.5779,1.6854,1.7861,1.8745,1.9152,-0.5604,-0.5441,-0.4791,-0.3869,-0.323,-0.2704,0.0,0.0,0.0,0.0,0.0,0.0,0.0,0.0,0.0,0.0,0.0,0.0,0.0,0.0,-0.3402,-0.3486,0.0,-0.3571,-0.3529,-0.3563,-0.3591,-0.3601,-0.3519,-0.3371,-0.3063,-0.3006,-0.2759,-0.2228,-0.2234,-0.2029,-0.1826,-0.1744,-0.1744,-0.1718,-0.1744,-0.174,-0.1711,-0.1711,-0.1695,-0.1669,-0.1664,-0.1132,-0.0304,-0.0202,0.0907,0.251,0.0972,0.0765,0.1327,0.055,-0.0361,-0.1076,-0.0269,0.1254,0.2867,0.2867,0.3492,0.4389,0.4659,0.4569,0.4389,0.4659,0.5015,0.5371,0.5371,0.5371,0.5466,0.5665,0.5565,0.5466,0.5665,0.5746,0.5733,0.5733,0.5733,0.5738,0.5757,0.5927,0.609,0.611,0.6389,0.7208,0.9076,0.9237,0.9898,1.1541,1.1844,1.2003,1.1974,1.2289,1.2448,1.2705,1.2705,1.2813,1.3049,1.3061,1.3061,1.3061,1.3061,1.3879,1.5538,1.5854,1.6927,1.8531,1.8692,1.8772,-0.4512,-0.4772,-0.4594,-0.3477,-0.3195,-0.3022,0.0,0.0,0.0,0.0,0.0,0.0,0.0,0.0,0.0,0.0,0.0,0.0,-0.3293,-0.3345,-0.3397,0.0,0.0,-0.3541,-0.3545,-0.3541,-0.3538,-0.3538,-0.3345,-0.3082,-0.2765,-0.2615,-0.2279,-0.1864,-0.1864,-0.1761,-0.1657,-0.1687,-0.1703,-0.1704,-0.1718,-0.171,-0.1682,-0.1682,-0.1353,-0.0818,-0.0818,-0.0203,0.0907,0.0798,0.1687,0.3066,0.2019,0.1701,0.1493,0.0363,-0.0269,-0.0448,0.1075,0.1792,0.2149,0.2688,0.3226,0.3583,0.3673,0.376,0.3758,0.3848,0.4474,0.5191,0.5015,0.5193,0.546,0.5552,0.5463,0.5463,0.5644,0.5733,0.5733,0.5733,0.5733,0.5773,0.5901,0.5966,0.6045,0.6173,0.6238,0.6757,0.8301,0.8894,0.9614,1.0903,1.15,1.1872,1.198,1.2118,1.2369,1.2705,1.2705,1.2831,1.3109,1.3127,1.3188,1.3332,1.3194,1.4002,1.572,1.5786,1.6764,1.8523,1.862,1.8612,-0.3637,-0.4237,-0.4552,-0.3554,0.0,0.0,0.0,0.0,0.0,0.0,0.0,0.0,0.0,0.0,0.0,0.0,0.0,-0.3224,-0.3345,-0.3362,-0.3395,-0.3486,-0.3496,-0.351,-0.3432,-0.3407,-0.3383,-0.326,-0.2957,-0.2697,-0.2385,-0.2143,-0.1921,-0.1617,-0.1617,-0.1617,-0.1617,-0.164,-0.1662,-0.1684,-0.1691,-0.168,-0.1652,-0.1652,-0.1023,-0.0,-0.0,0.0605,0.1611,0.1777,0.235,0.3125,0.305,0.2426,0.1373,0.018,-0.018,0.0181,0.1444,0.1534,0.1173,0.1985,0.2339,0.2508,0.2508,0.2864,0.3041,0.2861,0.3666,0.4563,0.4478,0.4656,0.4921,0.528,0.5102,0.5102,0.5552,0.5644,0.5733,0.5733,0.5754,0.5831,0.601,0.6067,0.6157,0.6366,0.6396,0.6802,0.7819,0.8796,0.9615,1.0473,1.1329,1.1925,1.2071,1.2158,1.2289,1.2705,1.2765,1.2928,1.3206,1.3272,1.3399,1.3604,1.3411,1.4115,1.5784,1.5856,1.6814,1.8412,1.8751,1.8804,-0.3838,-0.4511,-0.4948,-0.4887,0.0,0.0,0.0,0.0,0.0,0.0,0.0,0.0,0.0,0.0,0.0,0.0,0.0,-0.3349,-0.3467,0.0,-0.3486,-0.3496,-0.3496,-0.3368,-0.3107,-0.3145,-0.3043,-0.2672,-0.2622,-0.2385,-0.2177,-0.204,-0.1921,-0.1617,-0.1617,-0.1617,-0.1617,-0.1619,-0.1621,-0.1624,-0.1652,-0.165,-0.162,-0.162,-0.1011,-0.0,-0.0,0.0605,0.1711,0.2567,0.3034,0.3121,0.3008,0.2377,0.1166,-0.0628,-0.0726,-0.0092,-0.0923,-0.0646,0.0092,0.0185,0.0819,0.1522,0.1522,0.2149,0.2686,0.179,0.2415,0.3398,0.3578,0.3489,0.3666,0.4741,0.4383,0.4026,0.5191,0.5552,0.5733,0.5733,0.5817,0.5896,0.5912,0.601,0.613,0.6263,0.6282,0.6706,0.7809,0.8901,0.9909,1.0677,1.1701,1.2363,1.2337,1.251,1.2619,1.2705,1.2952,1.3212,1.3477,1.3719,1.3857,1.3876,1.3857,1.4501,1.5784,1.6401,1.7329,1.8637,1.9158,1.934,-0.2598,-0.3164,-0.3686,-0.3747,0.0,0.0,0.0,0.0,0.0,0.0,0.0,0.0,0.0,0.0,0.0,0.0,-0.3298,-0.3394,-0.3437,-0.3474,-0.3484,-0.3448,-0.3335,-0.3113,-0.2987,-0.2866,-0.2639,-0.2517,-0.2372,-0.2143,-0.2041,-0.1826,-0.1718,-0.1617,-0.1617,-0.1617,-0.1617,-0.1617,-0.1617,-0.1617,-0.1628,-0.1628,-0.1617,-0.1617,-0.1009,-0.0,-0.0,0.0594,0.168,0.201,0.255,0.3015,0.229,0.1713,0.1164,-0.0717,-0.1172,-0.0817,-0.0635,-0.0732,-0.0831,-0.0182,0.0273,0.0547,0.054,0.0806,0.0986,0.0627,0.0896,0.1343,0.2057,0.2862,0.3578,0.4026,0.4474,0.4921,0.5463,0.5697,0.5817,0.5746,0.5825,0.5926,0.6005,0.5991,0.6062,0.6333,0.6314,0.6505,0.6915,0.8517,0.9441,0.8879,1.0377,1.1584,1.2082,1.2493,1.2626,1.2546,1.2883,1.3242,1.3507,1.3767,1.3984,1.4147,1.3984,1.4355,1.5211,1.5828,1.6675,1.7836,1.8566,1.9015,-0.1797,-0.2432,-0.3113,0.0,0.0,0.0,0.0,0.0,0.0,0.0,0.0,0.0,0.0,0.0,0.0,0.0,-0.3316,-0.3391,-0.341,-0.3429,-0.3427,-0.3388,-0.3172,-0.2952,-0.2831,-0.2499,-0.238,-0.2264,-0.2035,-0.1921,-0.1921,-0.1718,-0.1617,-0.1617,-0.1617,-0.1617,-0.1617,-0.1617,-0.1612,-0.1603,-0.1603,-0.1603,-0.1603,-0.1603,-0.0997,-0.0,-0.0,0.0488,0.1259,0.1498,0.1932,0.2375,0.1351,0.0989,0.0723,-0.0809,-0.1447,-0.1371,-0.0726,-0.0914,-0.1385,-0.0728,-0.0453,-0.0452,-0.0446,-0.0266,-0.0089,-0.0355,-0.0268,0.009,0.0448,0.1522,0.2505,0.2862,0.3578,0.4393,0.4966,0.5484,0.5802,0.5852,0.5939,0.6045,0.613,0.6075,0.6113,0.6393,0.6342,0.6309,0.6423,0.8021,0.8871,0.8373,0.9832,1.1159,1.1743,1.2227,1.2598,1.2504,1.2921,1.3201,1.3387,1.3725,1.399,1.4171,1.4081,1.4359,1.4896,1.5493,1.644,1.7572,1.8366,1.8997,-0.1797,-0.2687,0.0,0.0,0.0,0.0,0.0,0.0,0.0,0.0,0.0,0.0,0.0,0.0,0.0,-0.321,-0.3282,-0.3342,-0.3402,-0.336,-0.3322,-0.332,-0.3009,-0.278,-0.2426,-0.2256,-0.1956,-0.1619,-0.1617,-0.1617,-0.1617,-0.1617,-0.1617,-0.1617,-0.1617,-0.1617,-0.1616,-0.1616,-0.1601,-0.1571,-0.157,-0.157,-0.1571,-0.1571,-0.0971,0.0095,-0.0,-0.0,0.019,0.121,0.1551,0.1253,0.0358,-0.0,-0.0092,-0.1084,-0.1473,-0.1521,-0.1491,-0.148,-0.148,-0.148,-0.1439,-0.1391,-0.139,-0.0782,-0.0174,-0.1129,-0.0706,-0.0269,-0.1166,-0.0718,0.0179,0.1164,0.1611,0.216,0.3492,0.471,0.567,0.6064,0.6184,0.6268,0.6268,0.6268,0.6306,0.642,0.6342,0.6309,0.642,0.7329,0.8418,0.9509,1.0509,1.1153,1.1248,1.1962,1.2503,1.2674,1.3003,1.3123,1.3133,1.3628,1.3912,1.3906,1.4165,1.4634,1.5193,1.5558,1.6665,1.8198,1.8629,1.9355,-0.1797,0.0,0.0,0.0,0.0,0.0,0.0,0.0,0.0,0.0,0.0,0.0,0.0,0.0,0.0,-0.3161,-0.3253,-0.3313,-0.3288,-0.3307,-0.3305,-0.3263,-0.285,-0.2537,-0.2423,-0.2029,-0.1727,-0.1618,-0.1617,-0.1617,-0.1617,-0.1617,-0.1617,-0.1617,-0.1617,-0.1607,-0.1585,-0.1585,-0.157,-0.1539,-0.1518,-0.153,-0.157,-0.1549,-0.1353,-0.1069,-0.1046,-0.1032,-0.0931,0.0091,0.0451,0.0358,0.009,-0.0,-0.0089,-0.1073,-0.1433,-0.1432,-0.1444,-0.1463,-0.1474,-0.1431,-0.1419,-0.1414,-0.1373,-0.1106,-0.1023,-0.1298,-0.1222,-0.1056,-0.134,-0.1269,-0.073,0.0449,0.1253,0.225,0.3672,0.4384,0.5002,0.5889,0.6184,0.6268,0.6268,0.6198,0.6208,0.6407,0.6342,0.6603,0.7409,0.7129,0.7528,0.941,0.9853,1.0347,1.0877,1.1831,1.2412,1.2509,1.2569,1.2738,1.3121,1.3803,1.4093,1.3912,1.4165,1.426,1.4272,1.4993,1.5998,1.7281,1.8022,1.9027,-0.224,0.0,0.0,0.0,0.0,0.0,0.0,0.0,0.0,0.0,0.0,0.0,0.0,-0.3155,0.0,-0.3172,-0.3237,-0.3273,-0.3236,-0.3262,-0.3271,-0.3234,-0.2725,-0.2422,-0.2422,-0.1919,-0.1617,-0.1617,-0.1617,-0.1617,-0.1617,-0.1605,-0.1598,-0.1598,-0.1587,-0.1572,-0.1553,-0.1553,-0.1538,-0.1508,-0.1489,-0.15,-0.1535,-0.1516,-0.1511,-0.1515,-0.1478,-0.1463,-0.1369,-0.0811,-0.0535,-0.0532,-0.0536,-0.0531,-0.061,-0.1157,-0.1424,-0.1409,-0.1415,-0.1429,-0.1437,-0.1388,-0.1378,-0.1376,-0.1341,-0.1339,-0.1267,-0.1369,-0.139,-0.1412,-0.143,-0.1449,-0.1275,-0.0539,0.0363,0.1473,0.307,0.3791,0.4526,0.5922,0.6249,0.6282,0.6328,0.6238,0.6206,0.6347,0.6312,0.6586,0.7245,0.6804,0.6933,0.8219,0.9114,0.9759,1.0325,1.1568,1.2348,1.2473,1.2497,1.2704,1.3121,1.358,1.3803,1.3755,1.4008,1.4117,1.4063,1.4615,1.5351,1.6458,1.7011,1.8133,0.0,0.0,0.0,0.0,0.0,0.0,0.0,0.0,0.0,0.0,0.0,0.0,0.0,-0.3185,-0.3166,-0.3221,-0.323,-0.323,-0.323,-0.323,-0.323,-0.323,-0.2725,-0.242,-0.2415,-0.1913,-0.1613,-0.1613,-0.161,-0.161,-0.1613,-0.1584,-0.1567,-0.1567,-0.154,-0.1525,-0.1522,-0.1522,-0.1506,-0.1476,-0.1476,-0.1476,-0.1476,-0.1476,-0.1461,-0.1436,-0.1436,-0.1436,-0.1436,-0.1436,-0.1418,-0.1397,-0.1425,-0.1416,-0.1394,-0.1424,-0.1431,-0.1424,-0.1399,-0.1388,-0.1382,-0.1353,-0.1325,-0.1302,-0.1299,-0.132,-0.126,-0.1263,-0.1388,-0.1431,-0.1435,-0.1438,-0.1439,-0.1436,-0.0831,0.0285,0.1995,0.3078,0.4304,0.6082,0.6331,0.6301,0.6401,0.6344,0.6279,0.6271,0.6268,0.6265,0.6252,0.6361,0.6429,0.6407,0.8305,0.96,0.9583,1.1169,1.2226,1.2683,1.2734,1.2806,1.3133,1.3194,1.3332,1.355,1.3809,1.4057,1.4298,1.4298,1.486,1.5798,1.5798,1.6922,0.0,0.0,0.0,0.0,0.0,0.0,0.0,0.0,0.0,0.0,0.0,0.0,-0.3229,-0.3219,-0.3215,-0.3229,-0.323,-0.323,-0.323,-0.323,-0.323,-0.323,-0.2725,-0.2407,-0.2371,-0.1876,-0.1581,-0.1581,-0.1559,-0.1556,-0.158,-0.1552,-0.1536,-0.1536,-0.153,-0.1515,-0.1491,-0.1491,-0.1475,-0.1445,-0.1445,-0.1445,-0.1445,-0.1445,-0.1442,-0.1436,-0.1436,-0.1436,-0.1436,-0.1436,-0.1431,-0.1426,-0.1433,-0.1416,-0.1394,-0.1424,-0.1406,-0.1369,-0.1384,-0.1376,-0.1352,-0.1322,-0.1308,-0.1298,-0.1274,-0.1288,-0.1317,-0.1341,-0.1373,-0.1406,-0.1429,-0.1453,-0.1465,-0.1441,-0.1264,-0.0642,0.104,0.2072,0.3382,0.5761,0.6321,0.6276,0.6301,0.6358,0.6372,0.6282,0.6268,0.6233,0.6138,0.6306,0.6366,0.6181,0.8275,0.9547,0.9405,1.1081,1.2226,1.2683,1.2414,1.2441,1.3033,1.3719,1.3972,1.3827,1.4081,1.4244,1.4298,1.4298,1.486,1.5798,1.5798,1.6922,0.0,0.0,0.0,0.0,0.0,0.0,0.0,0.0,0.0,0.0,0.0,0.0,-0.323,-0.323,-0.3221,-0.3192,-0.3187,-0.3177,-0.3147,-0.3144,-0.3144,-0.3144,-0.275,-0.2446,-0.2325,-0.1937,-0.1647,-0.155,-0.1535,-0.1533,-0.1549,-0.1521,-0.1504,-0.1504,-0.149,-0.1475,-0.1459,-0.1459,-0.1451,-0.1436,-0.1436,-0.1436,-0.1436,-0.1436,-0.1436,-0.1436,-0.1436,-0.1436,-0.1436,-0.1436,-0.1427,-0.1415,-0.1429,-0.1408,-0.1375,-0.1419,-0.1398,-0.1352,-0.138,-0.1362,-0.1324,-0.1308,-0.1293,-0.1278,-0.1262,-0.1288,-0.1328,-0.126,-0.1379,-0.1412,-0.1413,-0.1436,-0.1455,-0.1439,-0.1457,-0.0927,0.0749,0.1499,0.2629,0.5514,0.61,0.6214,0.617,0.623,0.6268,0.6268,0.6219,0.6179,0.6173,0.6282,0.6331,0.626,0.8224,0.9571,0.9474,1.1208,1.2412,1.269,1.2626,1.2811,1.3308,1.3914,1.4171,1.3912,1.4039,1.4171,1.4298,1.4298,1.486,1.5798,1.5798,1.6922,0.0,0.0,0.0,0.0,0.0,0.0,0.0,0.0,0.0,0.0,0.0,-0.3228,-0.3116,-0.3115,-0.3198,-0.3149,-0.3131,-0.3106,-0.3056,-0.3144,-0.3144,-0.3144,-0.2762,-0.2475,-0.2278,-0.1994,-0.1708,-0.1519,-0.1513,-0.1513,-0.1518,-0.1489,-0.1473,-0.1473,-0.1448,-0.1436,-0.1436,-0.1436,-0.1436,-0.1436,-0.1436,-0.1436,-0.1436,-0.1436,-0.1436,-0.1436,-0.1436,-0.1436,-0.1436,-0.1436,-0.1421,-0.14,-0.1425,-0.1406,-0.1283,-0.1417,-0.1401,-0.1358,-0.1382,-0.1355,-0.1309,-0.1304,-0.1289,-0.1272,-0.1266,-0.1307,-0.1355,-0.1355,-0.1394,-0.1429,-0.1404,-0.1416,-0.1436,-0.1436,-0.1474,-0.1034,0.0371,0.0933,0.1977,0.49,0.58,0.6081,0.6124,0.613,0.6151,0.6252,0.6184,0.6146,0.6227,0.6274,0.6415,0.6566,0.8386,0.9694,0.9857,1.1365,1.2509,1.2797,1.2929,1.3199,1.3426,1.3921,1.4052,1.3884,1.3978,1.4081,1.4298,1.4298,1.4765,1.5514,1.5704,1.6828,0.0,0.0,0.0,0.0,0.0,0.0,0.0,0.0,0.0,0.0,-0.2948,-0.3114,-0.2864,-0.2955,-0.315,-0.314,-0.3095,-0.3059,-0.3146,-0.3144,-0.3144,-0.3144,-0.267,-0.2274,-0.2236,-0.1859,-0.158,-0.1487,-0.1462,-0.1459,-0.1485,-0.1458,-0.1441,-0.1441,-0.1438,-0.1436,-0.1436,-0.1436,-0.1436,-0.1436,-0.1436,-0.1436,-0.1436,-0.1436,-0.1436,-0.1436,-0.1436,-0.1436,-0.1436,-0.1436,-0.1433,-0.1429,-0.1433,-0.143,-0.1425,-0.1432,-0.1414,-0.1385,-0.1388,-0.1369,-0.1337,-0.1311,-0.1318,-0.1331,-0.1305,-0.1337,-0.1384,-0.1384,-0.1409,-0.1434,-0.143,-0.1432,-0.1436,-0.1436,-0.1442,-0.1362,-0.1199,-0.0,0.1444,0.298,0.482,0.6132,0.6352,0.6309,0.6249,0.6265,0.6255,0.6211,0.6121,0.6287,0.6634,0.7482,0.8747,0.9934,1.0738,1.1762,1.2509,1.2797,1.2581,1.2738,1.3134,1.3461,1.3673,1.3878,1.4154,1.4262,1.4298,1.4298,1.4388,1.4484,1.5419,1.6452,0.0,0.0,0.0,0.0,0.0,0.0,0.0,0.0,0.0,0.0,-0.2601,-0.2793,-0.2797,-0.2798,-0.2884,-0.3044,-0.3015,-0.2986,-0.2955,-0.2951,-0.2951,-0.2951,-0.2675,-0.239,-0.2186,-0.1911,-0.1637,-0.1455,-0.1443,-0.1441,-0.1455,-0.1442,-0.1436,-0.1436,-0.1436,-0.1427,-0.141,-0.141,-0.1402,-0.1386,-0.1386,-0.1386,-0.1386,-0.1386,-0.1404,-0.1436,-0.1436,-0.1436,-0.1436,-0.1436,-0.1436,-0.1436,-0.1436,-0.1436,-0.1436,-0.1436,-0.1416,-0.1393,-0.141,-0.1386,-0.1264,-0.1351,-0.135,-0.1261,-0.1332,-0.1357,-0.139,-0.139,-0.1412,-0.1431,-0.1414,-0.1423,-0.1431,-0.1414,-0.1423,-0.1439,-0.1453,-0.0,0.1886,0.4184,0.541,0.614,0.6314,0.6301,0.629,0.6352,0.6309,0.6271,0.6282,0.6317,0.6522,0.6964,0.8536,0.9772,1.0179,1.1727,1.2704,1.2805,1.2791,1.2869,1.307,1.3463,1.3808,1.3931,1.4208,1.4298,1.4298,1.4298,1.486,1.5981,1.6452,1.7483,0.0,0.0,0.0,0.0,0.0,0.0,0.0,0.0,0.0,0.0,-0.2265,-0.2453,-0.2488,-0.2527,-0.2635,-0.2873,-0.2855,-0.2922,-0.288,-0.2887,-0.289,-0.2876,-0.2617,-0.2347,-0.2244,-0.1885,-0.1615,-0.1436,-0.1428,-0.1427,-0.1435,-0.1421,-0.1416,-0.1423,-0.1416,-0.1402,-0.138,-0.138,-0.1369,-0.1263,-0.1263,-0.1263,-0.1263,-0.1263,-0.1376,-0.1424,-0.1424,-0.1428,-0.1436,-0.1436,-0.1436,-0.1436,-0.1436,-0.1436,-0.1436,-0.1436,-0.1421,-0.1405,-0.1427,-0.1407,-0.1372,-0.1386,-0.1381,-0.1283,-0.1361,-0.1379,-0.1401,-0.1401,-0.1418,-0.143,-0.1408,-0.1418,-0.1429,-0.1407,-0.1418,-0.1438,-0.1445,0.0722,0.3275,0.5609,0.6172,0.617,0.629,0.6312,0.6339,0.6423,0.6366,0.6342,0.6426,0.6363,0.6538,0.712,0.8616,0.9805,1.0395,1.1873,1.2764,1.2764,1.2953,1.305,1.305,1.3443,1.3738,1.3738,1.3919,1.4202,1.4298,1.458,1.5419,1.6922,1.7475,1.8511,0.0,0.0,0.0,0.0,0.0,0.0,0.0,0.0,0.0,0.0,-0.1993,-0.1945,-0.1777,-0.2048,-0.2318,-0.2593,-0.255,-0.2607,-0.2875,-0.292,-0.2933,-0.288,-0.2468,-0.2202,-0.2158,-0.1705,-0.1436,-0.1436,-0.1408,-0.1405,-0.1433,-0.1382,-0.1365,-0.1391,-0.1367,-0.1267,-0.1266,-0.1266,-0.1265,-0.1263,-0.1263,-0.1263,-0.1263,-0.1263,-0.1364,-0.1393,-0.1393,-0.1409,-0.1436,-0.1436,-0.1436,-0.1436,-0.1436,-0.1436,-0.1436,-0.1436,-0.1434,-0.1433,-0.1435,-0.1433,-0.1426,-0.1399,-0.1408,-0.1425,-0.1397,-0.1409,-0.1433,-0.1433,-0.1434,-0.1435,-0.1433,-0.1434,-0.1435,-0.1433,-0.1434,-0.1443,-0.138,0.2398,0.5991,0.633,0.6365,0.6295,0.6407,0.6429,0.6429,0.6434,0.6431,0.6429,0.6434,0.6431,0.7223,0.9209,0.9509,1.0395,1.2462,1.2759,1.2764,1.2764,1.2764,1.2861,1.2861,1.3055,1.3147,1.3147,1.3443,1.3823,1.4298,1.5235,1.5798,1.5886,1.7855,1.8788,0.0,0.0,0.0,0.0,0.0,0.0,0.0,0.0,0.0,-0.1986,-0.2295,-0.2361,-0.1732,-0.175,-0.2003,-0.2441,-0.2424,-0.2498,-0.2758,-0.2775,-0.2779,-0.276,-0.2342,-0.2084,-0.2068,-0.1637,-0.1293,-0.1293,-0.1369,-0.1368,-0.1379,-0.1274,-0.1352,-0.1363,-0.1353,-0.1339,-0.1319,-0.1299,-0.129,-0.129,-0.129,-0.129,-0.129,-0.129,-0.1306,-0.1334,-0.1334,-0.1372,-0.1436,-0.1436,-0.1436,-0.1436,-0.1436,-0.1436,-0.1436,-0.1436,-0.1436,-0.1436,-0.1436,-0.1436,-0.1433,-0.1423,-0.1427,-0.1433,-0.1423,-0.1427,-0.1436,-0.1436,-0.1436,-0.1436,-0.1436,-0.1436,-0.1436,-0.1436,-0.1436,-0.1082,-0.0092,0.2051,0.4254,0.5854,0.6182,0.6192,0.6329,0.6239,0.6239,0.6337,0.6437,0.6437,0.6437,0.6437,0.6734,0.7428,0.8814,0.9903,1.069,1.197,1.2764,1.2764,1.2764,1.2764,1.2764,1.2958,1.3147,1.3147,1.3346,1.3636,1.4022,1.4394,1.533,1.6828,1.7483,1.8511,0.0,0.0,0.0,0.0,0.0,0.0,0.0,0.0,0.0,-0.2235,-0.2701,-0.2873,-0.1624,-0.1932,-0.2263,-0.2155,-0.2163,-0.2335,-0.2606,-0.2692,-0.2692,-0.2692,-0.2286,-0.2034,-0.2019,-0.1599,-0.1263,-0.1263,-0.1339,-0.1337,-0.1263,-0.1328,-0.1318,-0.1318,-0.1318,-0.1308,-0.1288,-0.1267,-0.1335,-0.1335,-0.1335,-0.1335,-0.1335,-0.1247,-0.1258,-0.1288,-0.1298,-0.1347,-0.142,-0.142,-0.1426,-0.1436,-0.1436,-0.1436,-0.1436,-0.1436,-0.1436,-0.1436,-0.1436,-0.1436,-0.1436,-0.1436,-0.1436,-0.1436,-0.1436,-0.1436,-0.1436,-0.1436,-0.1436,-0.1436,-0.1436,-0.1436,-0.1436,-0.1436,-0.1443,-0.1001,0.0644,0.2438,0.4193,0.5661,0.6012,0.6139,0.6239,0.6239,0.6239,0.6337,0.6437,0.6437,0.6437,0.6437,0.6634,0.7428,0.8715,0.9903,1.0592,1.197,1.2764,1.2764,1.2764,1.2764,1.2764,1.2958,1.2953,1.2953,1.3152,1.3346,1.3642,1.4304,1.5534,1.7124,1.7591,1.8611,0.0,0.0,0.0,0.0,0.0,0.0,0.0,0.0,-0.4206,-0.2931,-0.3349,-0.3407,-0.1674,-0.2561,-0.3187,-0.192,-0.1862,-0.2041,-0.2338,-0.2598,-0.2765,-0.2765,-0.2391,-0.2144,-0.2014,-0.1593,-0.1343,-0.126,-0.1316,-0.1312,-0.126,-0.1288,-0.1334,-0.1334,-0.1334,-0.1335,-0.1335,-0.1335,-0.1335,-0.1335,-0.1335,-0.1335,-0.1335,-0.1226,-0.1229,-0.1338,-0.1288,-0.1333,-0.1387,-0.1391,-0.1408,-0.1433,-0.1435,-0.1436,-0.1436,-0.1436,-0.1436,-0.1436,-0.1436,-0.1436,-0.1436,-0.1436,-0.1436,-0.1436,-0.1436,-0.1436,-0.1436,-0.1436,-0.1436,-0.1436,-0.1436,-0.1436,-0.1436,-0.1436,-0.1368,-0.0925,0.0646,0.3663,0.5958,0.5766,0.6062,0.6334,0.6039,0.6239,0.6437,0.6437,0.6437,0.6437,0.6437,0.6434,0.7229,0.9312,0.9608,1.0493,1.2565,1.2759,1.2764,1.2764,1.2764,1.2764,1.2764,1.2764,1.2764,1.2764,1.2764,1.2861,1.3147,1.5146,1.6292,1.6581,1.8079,1.9104,-0.2124,0.0,0.0,0.0,0.0,0.0,0.0,0.0,0.0,-0.3485,-0.391,-0.4077,-0.2933,-0.3392,-0.3618,-0.2681,-0.2825,-0.3011,-0.2806,-0.3264,-0.3567,-0.3567,-0.3358,-0.2981,-0.2506,-0.2126,-0.176,-0.1248,-0.1221,-0.1227,-0.1279,-0.1245,-0.1224,-0.1224,-0.1224,-0.1235,-0.1335,-0.1335,-0.1335,-0.1335,-0.1335,-0.1335,-0.1335,-0.1249,-0.1249,-0.1335,-0.1243,-0.1271,-0.1331,-0.1396,-0.1414,-0.1405,-0.1427,-0.1436,-0.1436,-0.1436,-0.1436,-0.1436,-0.1436,-0.1436,-0.1436,-0.1436,-0.1436,-0.1436,-0.1436,-0.1436,-0.1436,-0.1436,-0.1436,-0.1436,-0.1436,-0.1436,-0.1436,-0.1436,-0.1368,-0.0832,0.1106,0.2843,0.4382,0.5781,0.6002,0.6139,0.6224,0.6239,0.6139,0.6337,0.6437,0.6437,0.6437,0.703,0.7822,0.8418,0.9797,1.0979,1.157,1.236,1.2764,1.2764,1.2764,1.2764,1.2764,1.2764,1.2764,1.2764,1.2764,1.2861,1.3147,1.4292,1.5337,1.6386,1.7978,1.9104,0.0,0.0,0.0,0.0,0.0,0.0,-0.4249,-0.43,-0.4134,0.0,-0.4296,-0.4693,-0.355,-0.4072,-0.4301,-0.3143,-0.365,-0.3925,-0.3207,-0.3507,-0.388,-0.3923,-0.3708,-0.3419,-0.3056,-0.2764,-0.2488,-0.2082,-0.1762,-0.1483,-0.1236,-0.1209,-0.1198,-0.1211,-0.12,-0.1201,-0.1296,-0.1296,-0.1226,-0.1239,-0.1239,-0.1245,-0.1335,-0.1244,-0.1239,-0.1238,-0.1233,-0.1243,-0.1271,-0.1348,-0.1369,-0.1356,-0.1387,-0.1399,-0.1401,-0.1426,-0.1436,-0.1436,-0.1436,-0.1436,-0.1436,-0.1436,-0.1436,-0.1436,-0.1436,-0.1436,-0.1436,-0.1436,-0.1436,-0.1436,-0.1436,-0.1436,-0.1436,-0.1436,-0.1376,-0.0749,0.1495,0.3355,0.4806,0.5881,0.6012,0.5963,0.6226,0.6139,0.6042,0.6337,0.6337,0.6337,0.6736,0.7332,0.8124,0.8909,1.0288,1.137,1.1863,1.2462,1.2764,1.2764,1.2764,1.2764,1.2764,1.2764,1.2764,1.2764,1.2764,1.305,1.3431,1.3908,1.486,1.6285,1.7792,1.8635,0.0,0.0,0.0,0.0,0.0,0.0,-0.3949,-0.4536,-0.4702,-0.368,-0.4615,-0.5117,-0.3842,-0.4591,-0.4904,-0.3588,-0.4282,-0.4603,-0.3628,-0.373,-0.3968,-0.3994,-0.3868,-0.3728,-0.3646,-0.3509,-0.3371,-0.323,-0.2671,-0.2047,-0.1419,-0.132,-0.132,-0.1276,-0.1249,-0.1163,-0.1166,-0.1166,-0.1182,-0.1212,-0.1212,-0.1228,-0.1335,-0.1229,-0.1217,-0.1218,-0.1242,-0.1239,-0.1221,-0.1268,-0.1292,-0.1301,-0.1331,-0.1259,-0.1265,-0.1405,-0.1425,-0.1426,-0.1429,-0.143,-0.1431,-0.1434,-0.1436,-0.1436,-0.1436,-0.1436,-0.1436,-0.1436,-0.1436,-0.1436,-0.1436,-0.1436,-0.1346,-0.1345,-0.1296,-0.0572,0.1999,0.456,0.6312,0.5994,0.5963,0.6027,0.6039,0.6042,0.6039,0.6337,0.6139,0.6239,0.7039,0.7431,0.8418,1.0194,1.0979,1.1668,1.2662,1.2764,1.2764,1.2764,1.2764,1.2764,1.2764,1.2764,1.2764,1.2764,1.2764,1.3141,1.3811,1.3902,1.4663,1.619,1.7326,1.7986,0.0,0.0,0.0,0.0,-0.351,0.0,-0.3912,-0.4174,-0.4371,-0.4705,-0.4982,-0.5119,-0.4838,-0.4979,-0.5009,-0.4639,-0.484,-0.478,-0.4073,-0.4353,-0.4681,-0.4709,-0.4739,-0.4502,-0.3827,-0.3895,-0.3621,-0.2967,-0.2886,-0.2867,-0.2819,-0.2305,-0.1978,-0.1989,-0.1415,-0.1142,-0.1166,-0.1166,-0.1182,-0.1212,-0.1212,-0.1228,-0.1335,-0.1251,-0.1249,-0.1247,-0.1228,-0.1231,-0.1245,-0.1209,-0.1222,-0.1269,-0.1299,-0.1311,-0.1316,-0.1352,-0.128,-0.1368,-0.1391,-0.1399,-0.1403,-0.1427,-0.1436,-0.1436,-0.1436,-0.1436,-0.1436,-0.1436,-0.1436,-0.1436,-0.1436,-0.1436,-0.1345,-0.0897,-0.0556,0.0191,0.2094,0.451,0.6339,0.6326,0.6059,0.6031,0.6321,0.5937,0.5739,0.6039,0.5839,0.5937,0.6742,0.763,0.881,1.0293,1.1282,1.2073,1.2764,1.2764,1.2764,1.2764,1.2764,1.2764,1.2764,1.2764,1.2764,1.2764,1.2764,1.2856,1.305,1.3619,1.4663,1.619,1.6473,1.7138,0.0,0.0,0.0,-0.3515,-0.3292,0.0,0.0,-0.3597,-0.4098,-0.4029,-0.4572,-0.5117,-0.5085,-0.5069,-0.4982,-0.5012,-0.5024,-0.488,-0.4451,-0.4725,-0.4975,-0.4918,-0.4982,-0.481,-0.4372,-0.442,-0.4145,-0.3333,-0.3468,-0.3482,-0.3149,-0.2852,-0.255,-0.2237,-0.1795,-0.145,-0.1121,-0.1121,-0.1136,-0.1167,-0.1182,-0.1205,-0.1235,-0.125,-0.1335,-0.1335,-0.1241,-0.1243,-0.1332,-0.1208,-0.1207,-0.1238,-0.1268,-0.128,-0.1286,-0.1331,-0.1348,-0.1352,-0.138,-0.1391,-0.1397,-0.1426,-0.1436,-0.1436,-0.1436,-0.1436,-0.1436,-0.1436,-0.1436,-0.1436,-0.1436,-0.1436,-0.1345,-0.1076,-0.0556,0.0191,0.1047,0.314,0.5148,0.616,0.6004,0.5874,0.6129,0.5837,0.5636,0.5739,0.5539,0.5837,0.7036,0.8024,0.9106,1.0301,1.158,1.237,1.237,1.2667,1.2764,1.2764,1.2764,1.2764,1.2764,1.2764,1.2764,1.2764,1.2764,1.2764,1.2764,1.3147,1.3908,1.5051,1.5432,1.619,0.0,0.0,0.0,0.0,0.0,-0.2706,0.0,0.0,0.0,-0.3193,0.0,0.0,0.0,0.0,0.0,-0.508,0.0,0.0,0.0,-0.4924,0.0,-0.483,-0.4857,-0.4863,-0.4836,-0.483,-0.46,-0.4019,-0.4109,-0.3961,-0.342,-0.3379,-0.3157,-0.2612,-0.2234,-0.1812,-0.1276,-0.1143,-0.1091,-0.1121,-0.1146,-0.1176,-0.1213,-0.1237,-0.1327,-0.1249,-0.1333,-0.1332,-0.1247,-0.1228,-0.1221,-0.1222,-0.1241,-0.1249,-0.1255,-0.131,-0.1331,-0.1335,-0.1284,-0.1297,-0.1391,-0.1424,-0.1436,-0.1436,-0.1436,-0.1436,-0.1436,-0.1436,-0.1436,-0.1436,-0.1436,-0.1345,-0.1256,-0.1346,-0.0648,0.019,0.0947,0.225,0.3825,0.5827,0.6032,0.5837,0.5942,0.5739,0.5436,0.5536,0.5338,0.5739,0.7332,0.812,0.9011,1.0408,1.1683,1.237,1.2175,1.2565,1.2764,1.2764,1.2764,1.2764,1.2764,1.2764,1.2764,1.2764,1.2764,1.2764,1.2764,1.2764,1.3141,1.3902,1.4573,1.5242,0.0,0.0,0.0,0.0,-0.2664,-0.232,-0.2772,0.0,-0.3212,-0.3623,0.0,0.0,0.0,0.0,0.0,0.0,0.0,0.0,-0.4868,-0.4782,-0.4685,-0.457,-0.4751,-0.4782,-0.4584,-0.457,-0.4568,-0.4588,-0.4611,-0.4627,-0.4713,-0.4261,-0.3937,-0.3885,-0.2716,-0.2079,-0.2013,-0.1411,-0.1091,-0.1121,-0.1125,-0.1156,-0.1212,-0.1291,-0.1293,-0.1218,-0.1245,-0.1242,-0.1219,-0.1242,-0.1252,-0.125,-0.1226,-0.1217,-0.1221,-0.1255,-0.1268,-0.1275,-0.1,-0.1099,-0.1362,-0.1417,-0.1436,-0.1436,-0.1436,-0.1436,-0.1436,-0.1436,-0.1436,-0.1436,-0.1436,-0.1076,-0.0897,-0.1345,-0.0648,0.0948,0.4293,0.4076,0.3709,0.5426,0.6075,0.6237,0.6042,0.5338,0.4935,0.524,0.5037,0.5434,0.7036,0.7335,0.8326,1.0801,1.1292,1.178,1.2662,1.2764,1.2764,1.2764,1.2764,1.2764,1.2764,1.2764,1.2764,1.2764,1.2764,1.2764,1.2764,1.2764,1.3141,1.3902,1.3998,1.4478,0.0,0.0,0.0,0.0,-0.3754,-0.3476,-0.3304,-0.3558,-0.3776,-0.3931,0.0,0.0,0.0,0.0,0.0,0.0,-0.4959,-0.4901,0.0,0.0,-0.4632,-0.4519,0.0,-0.4647,-0.4525,-0.4574,-0.4601,-0.4611,-0.4758,-0.4779,-0.4782,-0.462,-0.4415,-0.4102,-0.312,-0.2443,-0.208,-0.1411,-0.1082,-0.1095,-0.1112,-0.1134,-0.1159,-0.1178,-0.127,-0.1288,-0.1226,-0.1234,-0.1239,-0.1252,-0.1335,-0.1334,-0.1243,-0.1238,-0.124,-0.1253,-0.1335,-0.1264,-0.1143,-0.1239,-0.1328,-0.1371,-0.1396,-0.1409,-0.1409,-0.1421,-0.1436,-0.1436,-0.1436,-0.1436,-0.1436,-0.1256,-0.099,-0.0637,-0.028,0.1145,0.5184,0.5429,0.5135,0.5993,0.6011,0.5937,0.5739,0.5536,0.5236,0.5037,0.4834,0.5336,0.7039,0.7431,0.8421,1.0507,1.1292,1.1883,1.2273,1.2662,1.2764,1.2764,1.2764,1.2764,1.2764,1.2764,1.2764,1.2764,1.2764,1.2764,1.2764,1.2764,1.2953,1.3238,1.3238,1.3715,-0.5538,-0.5578,-0.5554,-0.4879,-0.4718,-0.4489,-0.3956,-0.4087,-0.432,-0.4129,-0.4617,0.0,0.0,0.0,0.0,0.0,0.0,-0.4791,0.0,-0.4632,0.0,0.0,-0.4519,-0.4519,-0.4574,-0.4632,-0.4632,-0.4519,-0.4738,-0.4805,-0.4626,-0.4772,-0.4674,-0.4307,-0.3646,-0.2998,-0.2414,-0.1745,-0.1277,-0.1077,-0.1099,-0.1044,-0.0911,-0.1072,-0.1243,-0.1275,-0.1209,-0.1224,-0.1245,-0.1254,-0.1335,-0.1335,-0.1335,-0.1257,-0.11,-0.1257,-0.1257,-0.1182,-0.1292,-0.1308,-0.132,-0.135,-0.1373,-0.1391,-0.1399,-0.1418,-0.1436,-0.1436,-0.1436,-0.1345,-0.1256,-0.1345,-0.117,-0.0183,0.0839,0.2278,0.4921,0.5821,0.6119,0.6111,0.5924,0.5636,0.5434,0.5336,0.5233,0.4834,0.4834,0.5336,0.6739,0.7531,0.852,0.9912,1.1194,1.198,1.198,1.2467,1.2764,1.2764,1.2764,1.2764,1.2764,1.2764,1.2764,1.2764,1.2764,1.2764,1.2764,1.2764,1.2764,1.2764,1.2764,1.305,-0.5418,-0.5252,-0.5086,-0.5086,-0.4916,-0.4749,-0.4625,-0.4558,-0.4521,-0.4193,-0.4617,-0.504,-0.4745,-0.481,0.0,0.0,0.0,0.0,0.0,0.0,0.0,-0.4519,-0.4519,-0.4574,-0.4688,-0.4688,-0.4632,-0.4519,-0.4636,-0.4639,-0.4525,-0.4616,-0.4769,-0.486,-0.4361,-0.3774,-0.3149,-0.2414,-0.1747,-0.1079,-0.108,-0.089,-0.056,-0.0912,-0.1139,-0.117,-0.1199,-0.1213,-0.1215,-0.1245,-0.1335,-0.1335,-0.1335,-0.1021,-0.0707,-0.11,-0.11,-0.0867,-0.1211,-0.1322,-0.1351,-0.138,-0.1389,-0.1395,-0.1425,-0.1435,-0.1436,-0.1436,-0.1436,-0.1256,-0.0807,-0.1076,-0.1166,-0.018,0.2833,0.5104,0.3608,0.4869,0.6089,0.5594,0.5773,0.5739,0.4935,0.4834,0.4834,0.4834,0.4834,0.5135,0.5942,0.7232,0.8322,0.9118,1.0895,1.198,1.198,1.2467,1.2764,1.2764,1.2764,1.2764,1.2764,1.2764,1.2764,1.2764,1.2764,1.2764,1.2764,1.2764,1.2764,1.2764,1.2764,1.2764,-0.6233,-0.6335,-0.6268,-0.5887,-0.5751,-0.5616,-0.5309,-0.5286,-0.5206,-0.5029,-0.5212,-0.5345,-0.502,0.0,0.0,0.0,0.0,0.0,0.0,-0.4519,-0.4519,-0.4519,-0.4519,0.0,-0.4574,-0.4632,-0.4632,-0.4519,-0.4632,-0.4632,-0.4519,-0.4146,-0.4045,-0.4174,-0.3166,-0.2673,-0.275,-0.1883,-0.1347,-0.1079,-0.1079,-0.1016,-0.0888,-0.1025,-0.1109,-0.1209,-0.1168,-0.1194,-0.1214,-0.0933,-0.1021,-0.1335,-0.1335,-0.0864,-0.0236,-0.0707,-0.0786,-0.0708,-0.119,-0.1279,-0.1293,-0.1322,-0.1346,-0.1367,-0.1397,-0.1419,-0.1436,-0.1436,-0.1436,-0.1256,-0.0807,-0.0628,0.0362,0.3441,0.307,0.2524,0.4859,0.5591,0.5814,0.5877,0.5617,0.534,0.514,0.4937,0.4834,0.4834,0.4834,0.5138,0.5942,0.6836,0.7928,0.9114,1.06,1.159,1.198,1.2467,1.2764,1.2764,1.2764,1.2764,1.2764,1.2764,1.2764,1.2764,1.2764,1.2764,1.2764,1.2764,1.2764,1.2764,1.2764,1.2764,-0.7,-0.7025,-0.7025,-0.6627,-0.6553,-0.6391,-0.6007,-0.584,-0.5758,-0.5502,-0.5488,-0.5439,-0.5159,-0.5057,0.0,0.0,0.0,0.0,0.0,-0.4519,-0.4519,-0.4519,-0.4519,0.0,-0.4519,-0.4632,-0.4632,-0.4519,-0.4408,-0.4298,-0.4184,-0.3629,-0.3332,-0.3501,-0.2724,-0.2284,-0.2348,-0.1883,-0.1347,-0.0877,-0.0944,-0.1012,-0.1079,-0.1079,-0.1095,-0.1123,-0.0937,-0.0888,-0.0835,-0.0855,-0.1021,-0.1257,-0.0943,-0.0471,-0.0079,-0.0471,-0.0711,-0.0875,-0.1194,-0.1281,-0.1294,-0.1324,-0.1347,-0.1368,-0.1397,-0.142,-0.1438,-0.1358,-0.1444,-0.1348,-0.0995,-0.0451,0.0724,0.3438,0.3161,0.2808,0.4797,0.5515,0.5721,0.5819,0.5539,0.514,0.5037,0.4937,0.4834,0.4834,0.4834,0.5035,0.5539,0.6437,0.7332,0.8028,0.941,1.0694,1.1482,1.197,1.2365,1.2759,1.2764,1.2764,1.2764,1.2764,1.2802,1.2883,1.2807,1.2802,1.2883,1.2802,1.2764,1.2764,1.2764,1.2764]},{"header":{"parameterUnit":"m.s-1","parameterCategory":1,"la1":30.6,"la2":29.2853,"lo1":-89.7004,"lo2":-87.6739,"dy":0.0162,"dx":0.0183,"nx":112,"ny":82,"refTime":"2023-06-27T12:00:00:Z","depth":0,"parameterNumber":3,"parameterNumberName":"V-component_of_WINDS"},"data":[0.0,0.0,0.0,0.0,0.0,0.0,0.0,0.0,0.0,0.0,0.0,0.0,0.0,0.0,0.0,0.0,0.0,0.0,0.0,0.0,0.0,0.0,0.0,0.0,0.0,0.0,0.0,0.0,0.0,0.0,0.0,0.0,0.0,0.0,0.0,0.0,0.0,0.0,0.0,0.0,0.0,0.0,0.0,0.0,0.0,0.0,0.0,0.0,0.0,0.0,0.0,0.0,0.0,0.0,0.0,0.0,0.0,0.0,0.0,0.0,0.0,0.0,0.0,0.0,0.0,0.0,0.0,0.0,0.0,0.0,0.0,0.0,0.0,0.0,0.0,0.0,0.0,0.0,0.0,0.0,0.0,0.0,0.0,0.0,0.0,0.0,0.0,0.0,0.0,0.0,-1.0401,-1.008,-1.0275,-1.0128,-0.9426,-0.9171,-0.8989,-0.8805,0.0,0.0,0.0,0.0,0.0,0.0,0.0,0.0,0.0,0.0,0.0,0.0,0.0,0.0,0.0,0.0,0.0,0.0,0.0,0.0,0.0,0.0,0.0,0.0,0.0,0.0,0.0,0.0,0.0,0.0,0.0,0.0,0.0,0.0,0.0,0.0,0.0,0.0,0.0,0.0,0.0,0.0,0.0,0.0,0.0,0.0,0.0,0.0,0.0,0.0,0.0,0.0,0.0,0.0,0.0,0.0,0.0,0.0,0.0,0.0,0.0,0.0,0.0,0.0,0.0,0.0,0.0,0.0,0.0,0.0,0.0,0.0,0.0,0.0,0.0,0.0,0.0,0.0,0.0,0.0,0.0,0.0,0.0,0.0,0.0,0.0,0.0,0.0,0.0,0.0,0.0,0.0,0.0,0.0,0.0,0.0,0.0,0.0,0.0,0.0,0.0,0.0,0.0,0.0,-0.9924,-0.9022,-0.9856,-1.0024,-0.8917,-0.8274,-0.8442,-0.9632,0.0,0.0,0.0,0.0,0.0,0.0,0.0,0.0,0.0,0.0,0.0,0.0,0.0,0.0,0.0,0.0,0.0,0.0,0.0,0.0,0.0,0.0,0.0,0.0,0.0,0.0,0.0,0.0,0.0,0.0,0.0,0.0,0.0,0.0,0.0,0.0,0.0,0.0,0.0,0.0,0.0,0.0,0.0,0.0,0.0,0.0,0.0,0.0,0.0,0.0,0.0,0.0,0.0,0.0,0.0,0.0,0.0,0.0,0.0,0.0,0.0,0.0,0.0,0.0,0.0,0.0,0.0,0.0,0.0,0.0,0.0,0.0,0.0,0.0,0.0,0.0,0.0,0.0,0.0,0.0,0.0,0.0,0.0,0.0,0.0,0.0,0.0,0.0,0.0,0.0,0.0,0.0,0.0,0.0,0.0,0.0,0.0,0.0,0.0,0.0,0.0,0.0,0.0,-1.1455,-1.0716,-0.9778,-0.9805,-0.9556,-0.8712,-0.7898,-0.8068,-0.9588,-0.9465,0.0,0.0,0.0,0.0,0.0,0.0,0.0,0.0,0.0,0.0,0.0,0.0,0.0,0.0,0.0,0.0,0.0,0.0,0.0,0.0,0.0,0.0,0.0,0.0,0.0,0.0,0.0,0.0,0.0,0.0,0.0,0.0,0.0,0.0,0.0,0.0,0.0,0.0,0.0,0.0,0.0,0.0,0.0,0.0,0.0,0.0,0.0,0.0,0.0,0.0,0.0,0.0,0.0,0.0,0.0,0.0,0.0,0.0,0.0,0.0,0.0,0.0,0.0,0.0,0.0,0.0,0.0,0.0,0.0,0.0,0.0,0.0,0.0,0.0,0.0,0.0,0.0,0.0,0.0,0.0,0.0,0.0,0.0,0.0,0.0,0.0,0.0,0.0,0.0,0.0,0.0,0.0,0.0,0.0,0.0,0.0,0.0,0.0,0.0,0.0,0.0,0.0,-1.1722,-1.0762,-1.004,-0.9487,-0.9001,-0.8594,-0.7808,-0.8031,-0.9698,-0.9534,0.0,0.0,0.0,0.0,0.0,0.0,0.0,0.0,0.0,0.0,0.0,0.0,0.0,0.0,0.0,0.0,0.0,0.0,0.0,0.0,0.0,0.0,0.0,0.0,0.0,0.0,0.0,0.0,0.0,0.0,0.0,0.0,0.0,0.0,0.0,0.0,0.0,0.0,0.0,0.0,0.0,0.0,0.0,0.0,0.0,0.0,0.0,0.0,0.0,0.0,0.0,0.0,0.0,0.0,0.0,0.0,0.0,0.0,0.0,0.0,0.0,0.0,0.0,0.0,0.0,0.0,0.0,0.0,0.0,0.0,0.0,0.0,0.0,0.0,0.0,0.0,0.0,0.0,0.0,0.0,0.0,0.0,0.0,0.0,0.0,0.0,0.0,0.0,0.0,0.0,0.0,0.0,0.0,0.0,0.0,0.0,0.0,0.0,0.0,0.0,0.0,0.0,-1.0066,-0.8703,-0.8396,-0.8425,-0.8473,-0.8497,-0.7993,-0.8539,-1.0588,-1.0333,0.0,0.0,0.0,0.0,0.0,0.0,0.0,0.0,0.0,0.0,0.0,0.0,0.0,0.0,0.0,0.0,0.0,0.0,0.0,0.0,0.0,0.0,0.0,0.0,0.0,0.0,0.0,0.0,0.0,0.0,0.0,0.0,0.0,0.0,0.0,0.0,0.0,0.0,0.0,0.0,0.0,0.0,0.0,0.0,0.0,0.0,0.0,0.0,0.0,0.0,0.0,0.0,0.0,0.0,0.0,0.0,0.0,0.0,0.0,0.0,0.0,0.0,0.0,0.0,0.0,0.0,0.0,0.0,0.0,0.0,0.0,0.0,0.0,0.0,0.0,0.0,0.0,0.0,0.0,0.0,0.0,0.0,0.0,0.0,0.0,0.0,0.0,0.0,0.0,0.0,0.0,0.0,0.0,0.0,0.0,0.0,0.0,0.0,0.0,0.0,0.0,0.0,-1.1278,-0.9769,0.0,-0.8743,-0.8582,-0.8292,-0.8251,-0.8872,-1.0323,0.0,0.0,0.0,0.0,0.0,0.0,0.0,0.0,0.0,0.0,0.0,0.0,0.0,0.0,0.0,0.0,0.0,0.0,0.0,0.0,0.0,0.0,0.0,0.0,0.0,0.0,0.0,0.0,0.0,0.0,0.0,0.0,0.0,0.0,0.0,0.0,0.0,0.0,0.0,0.0,0.0,0.0,0.0,0.0,0.0,0.0,0.0,0.0,0.0,0.0,0.0,0.0,0.0,0.0,0.0,0.0,0.0,0.0,0.0,0.0,0.0,0.0,0.0,0.0,0.0,0.0,0.0,0.0,0.0,0.0,0.0,0.0,0.0,0.0,0.0,0.0,0.0,0.0,0.0,0.0,0.0,0.0,0.0,0.0,0.0,0.0,0.0,0.0,0.0,0.0,0.0,0.0,0.0,0.0,0.0,0.0,0.0,0.0,0.0,0.0,0.0,0.0,-1.4009,-1.2025,-1.0372,0.0,-0.9113,-0.8838,-0.8549,-0.8624,-0.921,-1.0461,0.0,0.0,0.0,0.0,0.0,0.0,0.0,0.0,0.0,0.0,0.0,0.0,0.0,0.0,0.0,0.0,0.0,0.0,0.0,0.0,0.0,0.0,0.0,0.0,0.0,0.0,0.0,0.0,0.0,0.0,0.0,0.0,0.0,0.0,0.0,0.0,0.0,0.0,0.0,0.0,0.0,0.0,0.0,0.0,0.0,0.0,0.0,0.0,0.0,0.0,0.0,0.0,0.0,0.0,0.0,0.0,0.0,0.0,0.0,0.0,0.0,0.0,0.0,0.0,0.0,0.0,0.0,0.0,0.0,0.0,0.0,0.0,0.0,0.0,0.0,0.0,0.0,0.0,0.0,0.0,0.0,0.0,0.0,0.0,0.0,0.0,0.0,0.0,0.0,0.0,0.0,0.0,0.0,0.0,0.0,0.0,0.0,0.0,0.0,0.0,0.0,0.0,-1.434,-1.1847,-0.9992,-0.9739,-0.9294,-0.9145,-0.9461,-0.9089,-0.9546,0.0,0.0,0.0,0.0,0.0,0.0,0.0,0.0,0.0,0.0,0.0,0.0,0.0,0.0,0.0,0.0,0.0,0.0,0.0,0.0,0.0,0.0,0.0,0.0,0.0,0.0,0.0,0.0,0.0,0.0,0.0,0.0,0.0,0.0,0.0,0.0,0.0,0.0,0.0,0.0,0.0,0.0,0.0,0.0,0.0,0.0,0.0,0.0,0.0,0.0,0.0,0.0,0.0,0.0,0.0,0.0,0.0,0.0,0.0,0.0,0.0,0.0,0.0,0.0,0.0,0.0,0.0,0.0,0.0,0.0,0.0,0.0,0.0,0.0,0.0,0.0,0.0,0.0,0.0,0.0,0.0,0.0,0.0,0.0,0.0,0.0,0.0,0.0,0.0,0.0,0.0,0.0,0.0,0.0,0.0,0.0,0.0,0.0,0.0,0.0,0.0,0.0,0.0,-1.4462,-1.2073,-1.0316,-0.9952,-0.9928,-0.975,-0.9315,-0.9653,-1.0293,-1.137,0.0,0.0,0.0,0.0,0.0,0.0,0.0,0.0,0.0,0.0,0.0,0.0,0.0,0.0,0.0,0.0,0.0,0.0,0.0,0.0,0.0,0.0,0.0,0.0,0.0,0.0,0.0,0.0,0.0,0.0,0.0,0.0,0.0,0.0,0.0,0.0,0.0,0.0,0.0,0.0,0.0,0.0,0.0,0.0,0.0,0.0,0.0,0.0,0.0,0.0,0.0,0.0,0.0,0.0,0.0,0.0,0.0,0.0,0.0,0.0,0.0,0.0,0.0,0.0,0.0,0.0,0.0,0.0,0.0,0.0,0.0,0.0,0.0,0.0,0.0,0.0,0.0,0.0,0.0,0.0,0.0,0.0,0.0,0.0,0.0,0.0,0.0,0.0,0.0,0.0,0.0,0.0,0.0,0.0,0.0,0.0,0.0,0.0,0.0,0.0,0.0,0.0,-1.5473,-1.3104,-1.1345,-1.1023,-1.11,-1.0923,-1.0294,-1.0685,-1.1221,-1.1829,0.0,0.0,0.0,0.0,0.0,0.0,0.0,0.0,0.0,0.0,0.0,0.0,0.0,0.0,0.0,0.0,0.0,0.0,0.0,0.0,0.0,0.0,0.0,0.0,0.0,0.0,0.0,0.0,0.0,0.0,0.0,0.0,0.0,0.0,0.0,0.0,0.0,0.0,0.0,0.0,0.0,0.0,0.0,0.0,0.0,0.0,0.0,0.0,0.0,0.0,0.0,0.0,0.0,0.0,0.0,0.0,0.0,0.0,0.0,0.0,0.0,0.0,0.0,0.0,0.0,0.0,0.0,0.0,0.0,0.0,0.0,0.0,0.0,0.0,0.0,0.0,0.0,0.0,0.0,0.0,0.0,0.0,0.0,0.0,0.0,0.0,0.0,0.0,0.0,0.0,0.0,0.0,0.0,0.0,0.0,0.0,0.0,0.0,0.0,0.0,0.0,0.0,-1.6924,-1.4579,-1.2824,-1.2613,-1.2627,-1.2459,-1.199,-1.2031,-1.2213,-1.2486,0.0,0.0,0.0,0.0,0.0,0.0,0.0,0.0,0.0,0.0,0.0,0.0,0.0,0.0,0.0,0.0,0.0,0.0,0.0,0.0,0.0,0.0,0.0,0.0,0.0,0.0,0.0,0.0,0.0,0.0,0.0,0.0,0.0,0.0,0.0,0.0,0.0,0.0,0.0,0.0,0.0,0.0,0.0,0.0,0.0,0.0,0.0,0.0,0.0,0.0,0.0,0.0,0.0,0.0,0.0,0.0,0.0,0.0,0.0,0.0,-2.1977,-2.3542,0.0,0.0,0.0,0.0,0.0,0.0,0.0,0.0,0.0,0.0,0.0,0.0,0.0,0.0,0.0,0.0,0.0,0.0,0.0,0.0,0.0,0.0,0.0,0.0,0.0,0.0,0.0,0.0,0.0,0.0,0.0,0.0,0.0,0.0,0.0,0.0,0.0,0.0,0.0,0.0,-1.6993,-1.5034,-1.3645,-1.3398,-1.3688,-1.3673,-1.3029,-1.291,-1.2979,-1.3329,-1.3652,0.0,0.0,0.0,0.0,0.0,0.0,0.0,0.0,0.0,0.0,0.0,0.0,0.0,0.0,0.0,0.0,0.0,0.0,0.0,0.0,0.0,0.0,0.0,0.0,0.0,0.0,0.0,0.0,0.0,0.0,0.0,0.0,0.0,0.0,0.0,0.0,0.0,0.0,0.0,0.0,0.0,0.0,0.0,0.0,0.0,0.0,0.0,0.0,0.0,0.0,0.0,0.0,0.0,0.0,0.0,0.0,0.0,0.0,0.0,-2.3859,-2.4267,0.0,0.0,0.0,0.0,0.0,0.0,0.0,0.0,0.0,0.0,0.0,0.0,0.0,0.0,0.0,0.0,0.0,0.0,0.0,0.0,0.0,0.0,0.0,0.0,0.0,0.0,0.0,0.0,0.0,0.0,0.0,0.0,0.0,0.0,0.0,0.0,0.0,0.0,0.0,0.0,-1.8222,-1.62,-1.4698,-1.4393,-1.4699,-1.4615,-1.3909,-1.3983,-1.4022,-1.3934,-1.4237,0.0,0.0,0.0,0.0,0.0,0.0,0.0,0.0,0.0,0.0,0.0,0.0,0.0,0.0,0.0,0.0,0.0,0.0,0.0,0.0,0.0,0.0,0.0,0.0,0.0,0.0,0.0,0.0,0.0,0.0,0.0,0.0,0.0,0.0,0.0,0.0,0.0,0.0,0.0,0.0,0.0,0.0,0.0,0.0,0.0,0.0,0.0,0.0,0.0,0.0,0.0,0.0,0.0,-2.7026,-2.7376,-2.8082,-2.8082,-2.8082,-2.7973,-2.6204,-2.525,-2.4934,-2.4588,0.0,0.0,0.0,0.0,0.0,0.0,0.0,0.0,0.0,0.0,0.0,0.0,0.0,0.0,0.0,0.0,0.0,0.0,0.0,0.0,0.0,0.0,-1.9309,-2.0406,-2.098,-2.1293,-2.1421,0.0,0.0,0.0,0.0,0.0,0.0,0.0,0.0,0.0,0.0,0.0,-1.9321,-1.7291,-1.5784,-1.5487,-1.5681,-1.555,-1.4872,-1.5023,-1.4954,-1.4465,-1.4721,-1.5387,0.0,0.0,0.0,0.0,0.0,0.0,0.0,0.0,0.0,0.0,0.0,0.0,0.0,0.0,0.0,0.0,0.0,0.0,0.0,0.0,0.0,0.0,0.0,0.0,0.0,0.0,0.0,0.0,0.0,0.0,0.0,0.0,-2.5382,-2.4574,0.0,0.0,0.0,0.0,0.0,0.0,0.0,0.0,0.0,0.0,0.0,0.0,0.0,-2.8921,-2.9621,-2.9634,-2.9652,-2.9688,-2.9516,-2.9494,-2.9608,-2.9608,-2.9608,-2.9551,-2.8713,0.0,-2.5878,-2.4123,0.0,0.0,0.0,0.0,0.0,0.0,0.0,0.0,0.0,0.0,0.0,0.0,0.0,0.0,0.0,0.0,0.0,0.0,0.0,0.0,0.0,0.0,-2.1064,-2.0969,-2.1467,-2.197,-2.2,-2.23,-2.2634,-2.2773,-2.2816,-2.2893,0.0,0.0,0.0,0.0,0.0,0.0,-1.8644,-1.7391,-1.655,-1.6496,-1.6689,-1.6706,-1.6407,-1.579,-1.5315,-1.5,-1.4882,-1.5164,-1.5973,-1.6789,0.0,0.0,0.0,0.0,0.0,0.0,0.0,0.0,0.0,0.0,0.0,0.0,0.0,0.0,0.0,0.0,0.0,0.0,0.0,0.0,0.0,0.0,0.0,0.0,0.0,0.0,0.0,0.0,0.0,-2.6406,-2.6201,-2.5768,-2.6525,-2.688,0.0,0.0,0.0,0.0,0.0,0.0,0.0,0.0,0.0,-2.9956,-3.0727,-3.1287,-3.1656,-3.1647,-3.1881,-3.2325,-3.2244,-3.221,-3.221,-3.221,-3.1927,-3.1432,-3.0579,-2.9798,-2.8903,-2.6148,-2.5267,-2.5612,0.0,0.0,0.0,0.0,-2.4942,-2.5302,-2.5096,-2.4986,-2.4965,-2.5274,0.0,0.0,0.0,0.0,0.0,0.0,0.0,-2.1476,-2.1363,-2.142,-2.1584,-2.188,-2.2138,-2.2428,-2.2807,-2.2935,-2.2993,-2.2977,-2.297,-2.3028,-2.3295,-2.3199,0.0,0.0,0.0,-2.0702,-2.0366,-1.9401,-1.8569,-1.7997,-1.8416,-1.8202,-1.6811,-1.6761,-1.6388,-1.5448,-1.512,-1.5489,-1.6578,-1.6809,-1.7569,0.0,0.0,0.0,0.0,0.0,0.0,0.0,0.0,0.0,0.0,0.0,0.0,0.0,0.0,0.0,0.0,0.0,0.0,0.0,0.0,0.0,0.0,0.0,0.0,0.0,0.0,0.0,0.0,-2.7328,-2.7376,-2.687,-2.7789,-2.8107,0.0,0.0,0.0,0.0,0.0,0.0,-3.0287,-3.0968,-3.1725,-3.2571,-3.335,-3.3858,-3.4055,-3.4029,-3.4359,-3.5009,-3.5009,-3.5009,-3.5009,-3.4993,-3.4499,-3.3662,-3.2899,-3.2365,-3.1828,-2.8597,-2.7198,-2.6963,-2.6308,-2.592,-2.5684,-2.5454,-2.5734,-2.6244,-2.6095,-2.6023,-2.6042,-2.6114,-2.5557,-2.4725,-2.4185,0.0,0.0,0.0,0.0,-2.2423,-2.2147,-2.2238,-2.2546,-2.3161,-2.298,-2.2901,-2.3642,-2.3478,-2.3168,-2.3119,-2.3095,-2.3151,-2.3365,-2.3223,0.0,-2.3122,-2.2377,-2.1742,-2.1509,-2.0876,-2.0123,-1.9369,-1.9779,-1.9395,-1.7711,-1.7888,-1.7531,-1.6241,-1.5905,-1.6186,-1.7223,-1.7208,-1.7919,-1.9464,0.0,0.0,0.0,0.0,0.0,0.0,0.0,0.0,0.0,0.0,0.0,0.0,0.0,0.0,0.0,0.0,0.0,0.0,0.0,0.0,0.0,0.0,0.0,0.0,0.0,0.0,0.0,0.0,0.0,-2.7001,-2.8243,0.0,0.0,0.0,0.0,-3.1348,-3.2083,-3.2861,-3.37,-3.3966,-3.4483,-3.5288,-3.6141,-3.696,-3.7733,-3.768,-3.7663,-3.7693,-3.7693,-3.7693,-3.7693,-3.7644,-3.7168,-3.6403,-3.6296,-3.5327,-3.3662,-3.0871,-2.9364,-2.8758,-2.8655,-2.8113,-2.7357,-2.7233,-2.7191,-2.7213,-2.6989,-2.6916,-2.7047,-2.767,-2.7276,-2.6297,-2.482,-2.4284,0.0,0.0,-2.4549,-2.4892,-2.3928,-2.4248,-2.4827,-2.4864,-2.3996,-2.3436,-2.4427,-2.3686,-2.2893,-2.3052,-2.3095,-2.3102,-2.3119,0.0,-2.2874,-2.2177,-2.1966,-2.1598,-2.0761,-2.0553,-2.0448,-2.0343,-2.0201,-2.0052,-1.9942,-1.9269,-1.8502,-1.7725,-1.7563,-1.7477,-1.7471,-1.8144,-1.8832,-1.9479,-2.01,0.0,0.0,0.0,0.0,0.0,0.0,0.0,0.0,0.0,0.0,0.0,0.0,0.0,0.0,0.0,0.0,0.0,0.0,0.0,0.0,0.0,0.0,0.0,0.0,0.0,0.0,0.0,0.0,-3.0866,-3.2467,0.0,-3.2106,-3.255,-3.3199,-3.398,-3.3794,-3.4255,-3.5661,-3.6381,-3.7127,-3.7974,-3.8853,-3.9393,-3.9542,-3.965,-3.962,-3.9447,-3.9535,-3.9231,-3.8605,-3.8623,-3.8146,-3.7307,-3.7273,-3.6929,-3.626,-3.4759,-3.2737,-3.0515,-2.987,-2.9391,-2.8973,-2.8348,-2.8435,-2.8761,-2.8108,-2.7903,-2.7754,-2.6805,-2.6265,-2.5725,-2.4654,-2.4266,-2.4171,-2.4113,-2.4196,-2.426,-2.3889,-2.4013,-2.423,-2.423,-2.4172,-2.407,-2.3963,-2.3848,-2.364,-2.3182,-2.3095,-2.3095,-2.3095,-2.3095,-2.3014,-2.2751,-2.2667,-2.2489,-2.2167,-2.2052,-2.1787,-2.1278,-2.1558,-2.1327,-2.0196,-2.0267,-1.9822,-1.8575,-1.8446,-1.8455,-1.8447,-1.8736,-1.9228,-2.007,-2.0292,-2.0663,0.0,0.0,0.0,0.0,0.0,0.0,0.0,0.0,0.0,0.0,0.0,0.0,0.0,0.0,0.0,0.0,0.0,0.0,0.0,0.0,0.0,0.0,0.0,0.0,0.0,0.0,-3.3024,-3.4387,-3.608,-3.6768,-3.5775,-3.5852,-3.6161,-3.6717,-3.6694,-3.7209,-3.8428,-3.9387,-4.0169,-4.0801,-4.1092,-4.1188,-4.1036,-4.0808,-4.0604,-4.0394,-4.0485,-4.015,-3.9485,-3.9484,-3.9007,-3.8206,-3.8457,-3.8247,-3.7674,-3.7445,-3.5706,-3.3054,-3.1828,-3.1121,-3.0696,-2.9796,-2.9786,-3.0093,-2.9173,-2.8856,-2.8595,-2.71,-2.6543,-2.6321,-2.5504,-2.5227,-2.5115,-2.5018,-2.4902,-2.475,-2.4309,-2.4254,-2.4348,-2.4559,-2.459,-2.4599,-2.4676,-2.4693,-2.4436,-2.3664,-2.3295,-2.3095,-2.3095,-2.3095,-2.3095,-2.3095,-2.307,-2.3045,-2.3003,-2.2919,-2.2677,-2.2123,-2.247,-2.2246,-2.1071,-2.1334,-2.0971,-1.9601,-1.9562,-1.9421,-1.9109,-1.9339,-1.9777,-2.0395,-2.0478,-2.0909,-2.1648,0.0,0.0,0.0,0.0,0.0,0.0,0.0,0.0,0.0,0.0,0.0,0.0,0.0,0.0,0.0,0.0,0.0,0.0,0.0,0.0,0.0,0.0,0.0,-3.2299,-3.4447,-3.6356,-3.7249,-3.8766,-3.9422,-3.863,-3.9032,-3.9387,-3.9522,-4.0921,-4.1851,-4.2032,-4.2908,-4.3475,-4.3611,-4.2773,-4.2344,-4.2318,-4.1315,-4.0752,-4.0668,-4.0596,-4.0504,-4.0417,-4.0344,-3.9867,-3.9178,-3.9966,-3.9336,-3.7846,-3.8667,-3.8037,-3.6396,-3.4592,-3.3377,-3.2523,-3.1585,-3.1229,-3.1061,-3.0182,-2.983,-2.9607,-2.8725,-2.8444,-2.8275,-2.7448,-2.7204,-2.7117,-2.6802,-2.6802,-2.6617,-2.5379,-2.5193,-2.5497,-2.6068,-2.544,-2.5105,-2.6647,-2.6162,-2.5208,-2.4479,-2.3681,-2.3137,-2.3095,-2.3095,-2.3095,-2.3095,-2.3095,0.0,-2.302,-2.2995,-2.2944,-2.2816,-2.2816,-2.2764,-2.2712,-2.2392,-2.1804,-2.0805,-2.0841,-2.0462,-1.94,-2.002,-2.041,-2.041,-2.0695,-2.099,-2.1309,0.0,0.0,0.0,0.0,0.0,0.0,0.0,0.0,0.0,0.0,0.0,0.0,0.0,0.0,0.0,0.0,0.0,0.0,0.0,0.0,0.0,0.0,-3.6728,-3.6746,-3.7898,-3.9273,-4.0719,-4.1891,-4.2451,-4.2135,-4.2224,-4.2296,-4.2227,-4.2662,-4.2966,-4.308,-4.3422,-4.3629,-4.3665,-4.3446,-4.3251,-4.3105,-4.2942,-4.2702,-4.2328,-4.1879,-4.1503,-4.117,-4.0612,-4.0229,-3.9985,-4.0196,-4.0043,-3.9546,-3.9164,-3.8725,-3.8151,-3.6417,-3.4819,-3.3361,-3.2526,-3.1773,-3.1248,-3.1574,-3.1292,-3.065,-2.982,-2.9106,-2.8378,-2.753,-2.7167,-2.7045,-2.6935,-2.6859,-2.6745,-2.6403,-2.6366,-2.6442,-2.6602,-2.668,-2.6645,-2.6411,-2.6381,-2.6153,-2.527,-2.4489,-2.3769,-2.3207,-2.3095,-2.3095,-2.3095,-2.3095,-2.3077,-2.3052,-2.3045,-2.297,-2.2893,-2.2842,-2.2764,-2.2712,-2.2615,-2.2269,-2.1541,-2.1546,-2.1195,-2.0412,-2.0585,-2.0695,-2.0695,-2.099,-2.1214,0.0,0.0,0.0,0.0,0.0,0.0,0.0,0.0,0.0,0.0,0.0,0.0,0.0,0.0,0.0,0.0,0.0,0.0,0.0,0.0,0.0,0.0,-3.85,-4.0552,-4.2026,-4.2081,-4.2466,-4.3772,-4.4762,-4.5156,-4.4721,-4.4591,-4.4394,-4.4008,-4.4295,-4.437,-4.4104,-4.4518,-4.4753,-4.4781,-4.4422,-4.4192,-4.4079,-4.3802,-4.3513,-4.3206,-4.28,-4.2441,-4.2101,-4.1673,-4.124,-4.0807,-4.0807,-4.0616,-4.0272,-3.9756,-3.9336,-3.8839,0.0,0.0,0.0,0.0,-3.2597,-3.1849,-3.2324,-3.2136,-3.1627,-3.1153,-3.04,-2.9649,-2.9448,-2.9059,-2.8727,-2.8987,-2.8779,-2.8404,-2.7931,-2.7877,-2.7917,-2.7837,-2.8235,-2.8474,-2.7906,-2.7857,-2.7557,-2.6304,-2.5623,0.0,-2.3786,-2.333,-2.3095,-2.3095,-2.3095,-2.3095,-2.3095,-2.307,-2.302,-2.2944,-2.2893,-2.2816,-2.2764,-2.2712,0.0,0.0,0.0,-2.1509,-2.0827,-2.0794,0.0,0.0,0.0,-2.1087,-2.1087,-2.1718,0.0,0.0,-2.249,-2.2712,0.0,0.0,0.0,0.0,0.0,0.0,0.0,0.0,0.0,0.0,0.0,0.0,0.0,0.0,0.0,0.0,-4.2207,-4.4053,-4.724,-4.6562,-4.5902,-4.6431,-4.7147,-4.7295,-4.6515,-4.6189,-4.5754,-4.5119,-4.5753,-4.5862,-4.5099,0.0,0.0,0.0,0.0,-4.5148,-4.5148,-4.4328,-4.3858,-4.3771,-4.3568,-4.3342,-4.3131,-4.3034,-4.2439,-4.1514,-4.159,-4.1132,-4.031,-4.0424,-3.9889,-3.8838,-3.7158,-3.6451,-3.6184,-3.4674,-3.3538,-3.2768,-3.2863,0.0,0.0,-3.2591,-3.2024,-3.1476,-3.2108,-3.1769,-3.1261,-3.1773,-3.1497,-3.0788,-2.9683,-2.952,-2.9602,-2.9418,-2.9824,-3.0268,-3.0265,-2.9911,-2.9107,-2.7567,-2.6924,-2.6184,-2.4813,-2.3821,-2.3207,-2.3095,-2.3095,-2.3095,-2.3095,-2.3095,-2.3052,-2.302,-2.2944,0.0,-2.2816,-2.2738,-2.2453,-2.1869,-2.1864,-2.153,-2.0827,-2.0873,-2.0873,-2.0794,-2.0873,-2.0906,-2.086,-2.156,-2.1943,-2.1986,-2.246,-2.2746,0.0,0.0,0.0,0.0,0.0,0.0,0.0,0.0,0.0,0.0,0.0,0.0,0.0,0.0,0.0,-4.2626,-4.5518,-4.7922,-4.9294,-4.9878,-4.9696,-4.8443,-4.7877,-4.753,-4.7354,-4.6683,-4.6171,-4.6042,-4.6811,-4.6928,-4.6062,-4.6858,-4.7018,-4.6319,-4.6144,-4.6046,-4.6046,-4.5863,-4.5682,-4.5511,-4.4839,0.0,-4.3955,-4.3297,-4.2443,-4.1533,-4.224,-4.1686,-4.0348,-4.1109,-4.0528,-3.8991,-3.7192,-3.6069,-3.542,-3.5095,-3.4429,-3.3818,-3.4486,-3.426,-3.3691,-3.3691,-3.3067,-3.2338,-3.2368,-3.224,0.0,-3.2067,-3.1972,-3.1672,-3.0787,-3.0601,-3.0619,-3.0581,-3.0553,-3.0665,-3.1191,-3.0613,-2.9773,-2.9062,-2.7843,-2.6748,-2.6237,-2.498,-2.3839,-2.3207,-2.3095,-2.3095,-2.3095,-2.3095,-2.3052,-2.302,-2.2995,-2.2944,-2.2816,-2.279,-2.2598,-2.2153,-2.2172,-2.1778,-2.0843,-2.1363,-2.141,-2.081,-2.1379,-2.1529,-2.1214,-2.2161,-2.2781,-2.3093,-2.2826,-2.3039,0.0,0.0,0.0,0.0,0.0,0.0,0.0,0.0,0.0,0.0,0.0,-3.7299,0.0,0.0,-4.4346,-4.6929,-4.8808,-5.0419,-5.1768,-5.1622,-5.0913,-4.9614,-4.9111,-4.8681,-4.8232,-4.7432,-4.712,-4.751,-4.7588,-4.7588,-4.7549,-4.7959,-4.7822,-4.6983,-4.6944,-4.6944,-4.6944,-4.6515,-4.6475,-4.6794,-4.591,-4.5327,-4.4978,-4.4538,-4.3778,-4.2756,-4.2794,-4.2125,-4.1006,-4.1097,-4.0656,-3.9807,-3.8896,-3.7475,-3.5956,-3.6396,-3.5764,-3.4883,-3.6109,-3.5982,-3.5248,-3.5248,-3.4642,-3.3868,-3.3783,-3.341,-3.3053,-3.3372,-3.3385,-3.3175,-3.2367,-3.2461,-3.2649,-3.2255,-3.2381,-3.2558,-3.2467,-3.1594,-3.0613,-2.9826,-2.8515,-2.7361,-2.6722,-2.563,-2.4576,-2.3821,-2.3365,-2.3095,-2.3095,-2.3095,-2.3095,-2.3052,-2.302,-2.3127,-2.3423,-2.3581,-2.3488,-2.307,-2.262,-2.2035,-2.1397,-2.1347,-2.1347,-2.1347,-2.1711,-2.1866,-2.1795,-2.2456,-2.2889,-2.3103,-2.3198,-2.365,0.0,0.0,0.0,0.0,0.0,0.0,0.0,0.0,-3.5702,-3.8968,-3.933,-4.0352,-4.452,-4.623,-4.7989,-5.0961,-5.1618,-5.2232,-5.3685,-5.2591,-5.1391,-5.0688,-5.0321,-4.9813,-4.9111,-4.831,-4.8096,-4.8759,-4.8369,-4.8291,-4.8779,-4.8954,-4.8681,-4.7861,-4.7686,-4.7686,-4.7822,-4.6807,-4.6726,-4.7561,-4.6645,-4.6064,-4.5832,-4.5783,-4.5055,-4.379,-4.2967,-4.2305,-4.174,-4.1119,-4.0759,-4.0636,-4.061,-3.9177,-3.7252,-3.7916,-3.7224,-3.6113,-3.7473,-3.7421,-3.6771,-3.6771,-3.6277,-3.5651,-3.5413,-3.4792,-3.4282,-3.4696,-3.4708,-3.4457,-3.3625,-3.4001,-3.4395,-3.3588,-3.402,-3.4414,-3.3693,-3.2695,-3.1644,-3.0625,-2.9365,-2.8165,-2.7293,-2.6317,-2.5331,-2.4444,-2.3611,-2.3095,-2.3095,-2.3095,-2.3172,-2.333,-2.328,-2.3536,-2.4242,-2.4505,-2.4425,-2.4047,-2.3326,-2.2684,-2.2229,-2.1682,-2.1553,-2.1884,-2.2153,-2.233,-2.2427,-2.2883,-2.3192,-2.3335,-2.3718,-2.4339,-3.4042,-3.3556,-3.3485,-3.484,-3.4315,-3.4982,0.0,0.0,-4.082,-4.354,-4.5181,-4.6346,-4.6909,-4.8988,-5.1011,-5.2173,-5.3058,-5.3666,-5.3858,-5.3113,-5.2526,-5.2429,-5.1043,-5.0067,-4.9969,-4.9169,-4.8701,-4.8798,-4.9423,-4.952,-4.8837,-4.954,-4.956,-4.8681,-4.7978,-4.7939,-4.8662,-4.7081,-4.6702,-4.7499,-4.6616,-4.6125,-4.5988,-4.5959,-4.4993,-4.3247,-4.2383,-4.2022,-4.2047,-4.1834,-4.137,-4.0769,-4.0648,-4.0024,-3.9178,-3.9148,-3.8568,-3.781,-3.8003,-3.7921,-3.774,-3.774,-3.7603,-3.7255,-3.6423,-3.6083,-3.5837,-3.5019,-3.4788,-3.4559,-3.3646,-3.4001,-3.4395,-3.3588,-3.402,-3.4564,-3.4405,-3.3708,-3.2959,-3.2484,-3.0936,-2.9572,-2.9168,-2.7649,-2.5981,-2.4532,-2.3611,-2.3095,-2.3095,-2.3095,-2.3383,-2.4093,-2.4155,-2.4401,-2.5018,-2.5045,-2.4849,-2.4472,-2.4597,-2.4295,-2.3349,-2.3458,-2.3038,-2.1916,-2.3085,-2.3414,-2.2841,-2.378,-2.4558,-2.5174,-2.4596,-2.4712,-3.683,-3.6582,-3.6497,0.0,-3.8744,-4.0667,-4.3017,-4.3387,-4.3953,-4.654,-4.763,-4.8591,-5.0096,-5.1668,-5.301,0.0,-5.4387,-5.4651,-5.4671,-5.3099,-5.1765,-5.1258,-5.0106,-4.9735,-5.077,-5.0067,-4.9774,-5.0262,-5.0184,-5.0165,-5.0301,-5.0653,-5.0457,-4.9579,-4.874,-4.8466,-4.8798,-4.7139,-4.6726,-4.7552,-4.6645,-4.6138,-4.6005,-4.5998,-4.5258,-4.392,-4.3128,-4.2519,-4.2053,-4.1586,-4.1179,-4.0917,-4.0818,-4.0593,-4.0305,-4.0215,-3.9308,-3.8295,-3.9321,-3.9245,-3.8705,-3.8705,-3.865,-3.8421,-3.7606,-3.7209,-3.6976,-3.654,-3.5987,-3.5503,-3.5547,-3.5465,-3.539,-3.5522,-3.5803,-3.6047,-3.6025,-3.5346,-3.4525,-3.3685,-3.201,-3.0487,-2.9719,-2.7976,-2.6506,-2.5853,-2.4998,-2.4453,-2.4453,-2.4453,-2.4576,-2.4892,-2.5322,-2.5642,-2.5836,-2.6219,-2.6268,-2.5825,-2.5511,-2.4979,-2.4132,-2.3826,-2.3483,-2.307,-2.3623,-2.3866,-2.3782,-2.4421,-2.4924,-2.5213,-2.5092,-2.5344,-3.7836,0.0,0.0,-3.9756,-4.2624,-4.5275,-4.5355,-4.5844,-4.6895,-4.9,-4.9596,-5.0257,-5.1932,-5.3111,-5.3927,-5.4333,-5.4845,-5.5118,-5.4888,-5.3068,-5.1355,-5.0234,-4.9121,-4.8942,-5.0223,-5.0204,-5.036,-5.0984,-5.0672,-5.0731,-5.1375,-5.1394,-5.1004,-5.0126,-4.9247,-4.8798,-4.8798,-4.7139,-4.6749,-4.7588,-4.6674,-4.6181,-4.6073,-4.5831,-4.5324,-4.4598,-4.3797,-4.2977,-4.214,-4.1595,-4.1217,-4.1007,-4.1216,-4.1266,-4.1247,-4.1186,-4.0234,-3.914,-4.0389,-4.0331,-3.9702,-3.9702,-3.9653,-3.9446,-3.8664,-3.8247,-3.8014,-3.7749,-3.7072,-3.6572,-3.7049,-3.6885,-3.6648,-3.7005,-3.7268,-3.7361,-3.7136,-3.6587,-3.5876,-3.4983,-3.3456,-3.1978,-3.0903,-2.9106,-2.7759,-2.7518,-2.6876,-2.6176,-2.5489,-2.5595,-2.5735,-2.5735,-2.6381,-2.6778,-2.6626,-2.7122,-2.7264,-2.6875,-2.6265,-2.5648,-2.5133,-2.4519,-2.4229,-2.4227,-2.442,-2.4588,-2.4718,-2.5122,-2.536,-2.5463,-2.5614,-2.5747,-3.6189,0.0,-4.0283,-4.2887,-4.4855,-4.6797,-4.9254,-4.9836,-5.0106,-5.1023,-5.1847,-5.2163,-5.148,-5.2694,-5.3544,-5.2791,-5.4101,-5.4902,-5.4059,-5.3197,-5.2029,-5.0292,-4.8572,-4.7592,0.0,-4.9169,-5.0106,-5.0145,-5.0906,-5.1375,-5.1394,-5.1394,-5.1004,-5.0126,-4.9247,-4.8798,-4.8798,-4.7139,-4.6749,-4.7588,-4.671,-4.63,-4.6261,-4.5418,-4.5008,-4.4926,-4.4007,-4.3139,-4.2378,-4.2311,-4.1765,-4.1073,-4.193,-4.2216,-4.2151,-4.2151,-4.1587,-4.083,-4.0888,-4.0828,-4.075,-4.075,-4.0668,-4.0395,-3.9527,-3.9257,-3.9056,-3.8146,-3.774,-3.7528,-3.7432,-3.7807,-3.8037,-3.7268,-3.7699,-3.8056,-3.7268,-3.708,-3.6953,-3.6582,-3.5642,-3.4541,-3.3462,-3.1743,-3.019,-2.9249,-2.9048,-2.8123,-2.5727,-2.6086,-2.6578,-2.6578,-2.7227,-2.7607,-2.7474,-2.7478,-2.7452,-2.7282,-2.6891,-2.6657,-2.6624,-2.623,-2.5723,-2.5077,-2.5688,-2.588,-2.5556,-2.5914,-2.6282,-2.6624,-2.6247,-2.5892,-3.9361,-4.1687,-4.3839,-4.6434,-4.8801,-5.0892,-5.2338,-5.2218,-5.1711,-5.1437,-5.0624,-4.9726,-4.8924,-4.9238,-4.99,-5.08,-5.24,-5.3434,-5.3158,-5.2824,-5.1576,-4.8708,-4.7851,0.0,0.0,0.0,0.0,-5.0028,-5.0379,-5.0789,-5.1375,-5.1394,-5.1277,-5.0965,-4.956,-4.8798,-4.8798,-4.7139,-4.6456,-4.6729,-4.6436,-4.63,-4.628,-4.6007,-4.5851,-4.5773,-4.4309,-4.3831,-4.3924,-4.2156,-4.1614,-4.1891,-4.2129,-4.1878,-4.1412,-4.1995,-4.1646,-4.0907,-4.0907,-4.0888,-4.0868,-4.0868,-4.0804,-4.0687,-4.0436,-4.0211,-3.9969,-3.9646,-3.8988,-3.8419,-3.8823,-3.861,-3.8375,-3.8676,-3.8957,-3.9089,-3.8831,-3.83,-3.7694,-3.7055,-3.5671,-3.4432,-3.3879,-3.2648,-3.1304,-3.0125,-2.9395,-2.8868,-2.8561,-2.8298,-2.814,-2.814,-2.8017,-2.8138,-2.8541,-2.8071,-2.7941,-2.8347,-2.7587,-2.699,-2.6725,-2.6573,-2.6284,-2.5791,-2.5988,-2.6042,-2.5931,-2.6302,-2.659,-2.6691,-2.6539,-2.6436,-4.2167,-4.4571,-4.6663,-4.9852,-5.1921,-5.3307,-5.3869,-5.3079,-5.1904,-5.0708,-4.9048,-4.7455,-4.6312,-4.5841,-4.6102,-4.7536,-4.9505,-5.0949,-5.1258,-5.1781,-5.1102,-4.8298,-4.7691,-4.707,0.0,0.0,0.0,-4.954,-5.0204,-5.0809,-5.1375,-5.1394,-5.1102,-5.0496,-4.9384,-4.8505,-4.79,-4.6846,-4.63,-4.63,-4.63,-4.63,-4.63,-4.63,-4.6124,-4.5773,-4.4649,-4.4094,-4.388,-4.2187,-4.163,-4.1855,-4.2135,-4.1877,-4.1432,-4.1995,-4.184,-4.1315,-4.1005,-4.0907,-4.0907,-4.0907,-4.0868,-4.0837,-4.0888,-4.073,-4.0545,-4.0521,-3.9883,-3.9294,-3.97,-3.9293,-3.8901,-3.9489,-3.9602,-3.9602,-3.9602,-3.892,-3.8126,-3.7529,-3.6235,-3.5138,-3.4918,-3.3899,-3.2734,-3.1512,-3.0459,-2.9828,-2.9854,-2.913,-2.8753,-2.92,-2.8907,-2.8864,-2.9244,-2.9055,-2.9087,-2.9479,-2.8483,-2.7771,-2.7495,-2.711,-2.6808,-2.6539,-2.6539,-2.6539,-2.6539,-2.6808,-2.6908,-2.6908,-2.6775,-2.6691,-4.4547,-4.6526,-4.8849,-5.3014,-5.4068,-5.4045,-5.4016,-5.2587,-5.0767,-4.904,-4.717,-4.5345,0.0,0.0,-4.2435,-4.3442,-4.5787,-4.7832,-4.8787,-5.0365,-5.0809,0.0,0.0,0.0,0.0,0.0,0.0,-4.8818,0.0,-5.1394,-5.1394,-5.1433,-5.0692,-4.8993,-4.8857,-4.8037,-4.6436,-4.6339,-4.63,-4.63,-4.63,-4.63,-4.63,-4.63,-4.5851,-4.507,-4.5012,-4.4094,-4.2591,-4.2454,-4.19,-4.1208,-4.2039,-4.2307,-4.2209,-4.2248,-4.2228,-4.2073,-4.1199,-4.0907,-4.0907,-4.0907,-4.0907,-4.0907,-4.0907,-4.0848,-4.0788,-4.0725,-4.0415,-4.0101,-4.0022,-3.9807,-3.9602,-3.9602,-3.9602,-3.9602,-3.9602,-3.892,-3.8233,-3.7996,-3.7229,-3.6575,-3.6435,-3.555,-3.4495,-3.3436,-3.2353,-3.1138,-2.9765,-2.879,-2.864,-2.9816,-2.9878,-2.9834,-2.9755,-3.0405,-3.0782,-3.0707,-2.9615,-2.8951,-2.8916,-2.79,-2.7365,-2.7299,-2.7299,-2.7299,-2.7299,-2.7299,-2.7299,-2.7282,-2.6925,-2.6725,-4.7927,-5.0523,-5.2767,-5.4537,-5.4933,-5.4741,-5.4148,-5.1659,-4.897,-4.7209,-4.398,-4.1097,0.0,0.0,0.0,-4.315,-4.5787,0.0,-5.0365,-5.2158,0.0,-5.0867,0.0,-5.0813,-4.9566,-5.0038,0.0,0.0,-5.0789,-5.1394,-5.1394,-5.2019,-5.1863,-5.077,-4.9481,-4.8584,-4.8174,-4.6924,-4.63,-4.63,-4.63,-4.63,-4.63,-4.63,-4.6183,-4.5929,-4.5285,-4.5129,-4.5148,-4.3201,-4.2607,-4.2942,-4.3121,-4.2788,-4.2267,-4.2928,-4.2753,-4.2073,-4.1199,-4.0907,-4.0907,-4.0907,-4.0907,-4.0907,-4.0907,-4.0848,-4.08,-4.0788,-4.0554,-4.0298,-4.012,-3.996,-3.9785,-3.965,-3.9602,-3.9602,-3.9602,-3.892,-3.8107,-3.7464,-3.6515,-3.5975,-3.6519,-3.6877,-3.6463,-3.4597,-3.405,-3.3412,-3.2089,-3.0548,-3.0095,-3.1428,-3.1012,-3.0939,-3.1699,-3.1407,-3.1364,-3.1837,-3.0797,-2.9781,-2.8934,-2.8649,-2.8132,-2.7299,-2.7299,-2.7299,-2.7299,-2.7299,-2.7299,-2.7299,-2.7186,-2.7137,-5.0839,-5.2948,-5.4597,-5.547,-5.5152,-5.4222,-5.2648,-4.9594,-4.6287,-4.3409,-4.0304,0.0,-3.6493,0.0,0.0,0.0,0.0,0.0,-4.9274,-5.1768,-5.2976,0.0,-5.263,0.0,-5.187,-5.2201,-5.2285,0.0,-5.1545,-5.1394,-5.1394,-5.1863,-5.1726,-5.0867,-4.9501,-4.8447,-4.7705,-4.7159,-4.6671,-4.63,-4.63,-4.63,-4.63,-4.63,-4.6085,-4.5714,-4.5617,-4.5402,-4.507,-4.3986,-4.3578,-4.3649,-4.3571,-4.3233,-4.282,-4.3326,-4.2947,-4.2131,-4.1646,-4.1218,-4.0907,-4.0907,-4.0907,-4.0907,-4.0907,-4.0848,-4.08,-4.08,-4.0866,-4.0938,-4.0784,-4.0673,-4.0576,-4.0426,-4.0046,-3.975,-3.975,-3.8997,-3.8056,-3.7249,-3.6592,-3.6352,-3.6801,-3.7459,-3.7394,-3.5745,-3.508,-3.4535,-3.3905,-3.1835,-3.1002,-3.2407,-3.2129,-3.2089,-3.2649,-3.2612,-3.2691,-3.3073,-3.1683,-3.072,-3.042,-2.9229,-2.8458,-2.818,-2.7731,-2.7465,-2.7465,-2.7345,-2.7299,-2.7299,-2.7627,-2.7609,-5.3214,-5.4369,-5.5341,-5.5878,-5.4742,-5.2804,-5.0153,-4.6684,-4.2877,-3.8811,0.0,-3.4642,-3.3298,-3.3726,-3.5226,-3.8188,0.0,-4.4345,-4.7404,-5.0385,-5.2372,-5.2723,-5.3546,-5.4059,-5.4064,-5.4072,-5.3971,-5.374,-5.2497,-5.1695,-5.1577,-5.1574,-5.1121,-5.0126,-4.9364,-4.8174,-4.6495,-4.7334,-4.7276,-4.63,-4.6534,-4.6515,-4.63,-4.6417,-4.6007,-4.5207,-4.5968,-4.5441,-4.4094,-4.4735,-4.4547,-4.3841,-4.3786,-4.3712,-4.3664,-4.3666,-4.3122,-4.2364,-4.2228,-4.1626,-4.0907,-4.0907,-4.0907,-4.0907,-4.0907,-4.0858,-4.0831,-4.0947,-4.1274,-4.1609,-4.1627,-4.1502,-4.1356,-4.1265,-4.0576,-3.9916,-3.9914,-3.9071,-3.8094,-3.738,-3.7155,-3.7099,-3.7099,-3.7517,-3.7553,-3.653,-3.5643,-3.5064,-3.4979,-3.2693,-3.1626,-3.3017,-3.3133,-3.3133,-3.3157,-3.3759,-3.4124,-3.4099,-3.2518,-3.1798,-3.2293,-2.99,-2.8864,-2.9479,-2.8464,-2.79,-2.79,-2.7757,-2.7587,-2.7518,-2.8228,-2.8196,-5.4381,-5.5602,-5.6509,-5.5273,-5.3125,-5.0539,-4.7417,-4.2935,0.0,0.0,-3.2791,-3.0745,-3.1174,-3.1953,-3.4077,-3.8811,0.0,0.0,0.0,0.0,-5.1242,0.0,0.0,0.0,0.0,0.0,0.0,0.0,-5.3262,-5.3238,-5.2515,-5.2462,-5.1746,-5.0145,-4.995,-4.9072,-4.7393,-4.8174,-4.7822,-4.6319,-4.7705,-4.7647,-4.6319,-4.7042,-4.6905,-4.6085,-4.6222,-4.6124,-4.5792,-4.5167,-4.483,-4.4683,-4.462,-4.4578,-4.4569,-4.4559,-4.4015,-4.318,-4.2442,-4.1626,-4.0907,-4.0907,-4.0907,-4.0907,-4.0907,-4.0898,-4.1024,-4.1743,-4.1509,-4.1145,-4.1638,-4.1219,-4.062,-4.046,-4.0272,-4.01,-3.9935,-3.9071,-3.8263,-3.8131,-3.7549,-3.7099,-3.7099,-3.7188,-3.6911,-3.5839,-3.5985,-3.5758,-3.4444,-3.293,-3.2484,-3.3852,-3.3795,-3.3744,-3.3969,-3.4123,-3.4173,-3.4099,-3.3771,-3.3232,-3.2411,-3.1228,-3.0541,-3.0381,-2.9458,-2.9027,-2.9027,-2.9374,-2.9169,-2.8557,-2.907,-2.9248,-5.4958,-5.5692,-5.6078,-5.4859,-5.2012,-4.8643,-4.5393,0.0,0.0,0.0,-3.0278,-2.8948,-2.9377,0.0,0.0,0.0,0.0,0.0,0.0,0.0,0.0,0.0,0.0,0.0,0.0,0.0,-5.5523,-5.4689,-5.4623,-5.3862,-5.2128,-5.2016,-5.1433,-5.0145,-5.0535,-4.9755,-4.7627,-4.8408,-4.7959,-4.6319,-4.7569,-4.7744,-4.7002,-4.7842,-4.799,-4.7591,-4.7123,-4.7153,-4.7449,-4.6131,-4.582,-4.615,-4.5663,-4.5472,-4.5473,-4.5444,-4.4617,-4.3452,-4.3025,-4.2015,-4.0907,-4.0907,-4.0907,-4.0907,-4.0907,-4.0907,-4.0985,-4.1412,-4.1548,-4.1645,-4.1892,-4.1654,-4.1287,-4.1166,-4.0748,-4.0269,-3.9977,-3.9482,-3.9104,-3.9,-3.83,-3.7718,-3.7718,-3.7718,-3.7544,-3.7037,-3.72,-3.7094,-3.6279,-3.5232,-3.4489,-3.4228,-3.4074,-3.4074,-3.4197,-3.4197,-3.4197,-3.4148,-3.3759,-3.3445,-3.3305,-3.2052,-3.1466,-3.1692,-3.0695,-3.0104,-2.9922,-2.9964,-2.9694,-2.9186,-2.9816,-2.9903,-5.4976,-5.5456,-5.5542,-5.435,-5.0971,-4.7013,-4.3586,-3.819,0.0,0.0,-2.8388,-2.7725,-2.7901,0.0,0.0,0.0,0.0,0.0,0.0,0.0,0.0,0.0,0.0,0.0,0.0,0.0,0.0,-5.621,-5.523,-5.376,-5.1758,-5.1494,-5.1093,-5.0406,-5.0852,-5.0071,-4.7888,-4.8665,-4.8236,-4.6563,-4.7826,-4.8213,-4.7881,-4.8701,-4.8981,-4.8761,-4.8078,-4.8133,-4.8604,-4.7279,-4.7116,-4.7595,-4.6697,-4.6348,-4.6328,-4.6095,-4.4948,-4.351,-4.351,-4.2364,-4.0907,-4.0907,-4.0907,-4.0907,-4.0907,-4.0907,-4.0946,-4.1121,-4.1548,-4.1956,-4.2059,-4.197,-4.1811,-4.1751,-4.1109,-4.0406,-4.01,-4.0,-3.9914,-3.9703,-3.911,-3.8578,-3.8338,-3.83,-3.8244,-3.8075,-3.8139,-3.8128,-3.791,-3.7405,-3.6472,-3.4909,-3.4593,-3.4476,-3.4476,-3.4309,-3.4197,-3.4197,-3.3603,-3.3505,-3.4105,-3.268,-3.2219,-3.2963,-3.1916,-3.1229,-3.0977,-3.0703,-3.0387,-2.9968,-3.0612,-3.0593,-5.4199,-5.5352,-5.5932,-5.3541,-4.9774,-4.5649,-4.1735,0.0,0.0,-2.8826,-2.7043,-2.6147,-2.6887,-2.7862,0.0,0.0,0.0,0.0,0.0,0.0,0.0,0.0,0.0,0.0,0.0,0.0,0.0,-5.5314,-5.3787,-5.2741,-5.2492,-5.1797,-5.1364,-5.1286,-5.0588,-4.9726,-4.8707,-4.955,-4.9101,-4.7419,-4.9882,-5.0223,-4.872,-4.9599,-4.9547,-4.88,-4.8722,-4.8678,-4.8682,-4.8524,-4.8506,-4.8487,-4.7563,-4.7181,-4.7084,-4.6288,-4.4948,-4.351,-4.351,-4.2364,-4.0907,-4.0907,-4.0907,-4.0907,-4.0907,-4.0907,-4.1063,-4.1859,-4.1568,-4.1188,-4.1903,-4.1501,-4.0916,-4.0919,-4.0703,-4.0489,-4.0457,-4.0304,-4.012,-3.9914,-3.9813,-3.9444,-3.8479,-3.83,-3.8056,-3.7305,-3.7831,-3.8013,-3.7216,-3.7629,-3.7611,-3.6658,-3.5864,-3.5367,-3.5367,-3.4661,-3.4197,-3.4197,-3.4123,-3.4123,-3.4197,-3.3271,-3.3124,-3.3869,-3.2992,-3.2537,-3.2485,-3.2547,-3.2175,-3.1497,-3.1655,-3.1662,-5.2633,-5.418,-5.46,-5.2575,-4.8907,-4.4727,-4.0668,0.0,0.0,-2.8528,-2.6846,-2.6108,-2.7433,-2.7978,-2.9167,0.0,0.0,0.0,0.0,0.0,0.0,0.0,0.0,0.0,0.0,0.0,-5.5431,-5.5937,-5.4851,-5.3936,-5.3409,-5.2114,-5.1406,-5.1405,-5.1054,-5.0214,-4.8806,-4.9667,-4.9238,-4.7537,-4.9629,-5.0254,-4.9609,-5.0437,-5.0624,-5.0276,-4.9718,-4.9734,-5.0124,-4.908,-4.8943,-4.9273,-4.7872,-4.7298,-4.7201,-4.6327,-4.4948,-4.3494,-4.3494,-4.2403,-4.0967,-4.0967,-4.0961,-4.0941,-4.0904,-4.0907,-4.0966,-4.1315,-4.1179,-4.0955,-4.1244,-4.1064,-4.0803,-4.0803,-4.0733,-4.0646,-4.0539,-4.0441,-4.0321,-4.012,-3.9979,-3.9757,-3.9346,-3.9171,-3.8957,-3.8638,-3.8863,-3.8933,-3.8565,-3.8733,-3.8712,-3.8279,-3.7035,-3.6017,-3.5535,-3.5163,-3.4754,-3.4234,-3.4197,-3.4197,-3.4197,-3.3833,-3.3765,-3.403,-3.3684,-3.3372,-3.3168,-3.2973,-3.2602,-3.2125,-3.1899,-3.18,-5.0245,-5.2327,-5.3015,-5.1582,-4.8048,-4.3924,0.0,0.0,0.0,-2.8437,-2.6822,-2.6069,-2.7238,-2.7881,-2.8797,0.0,0.0,-3.1797,0.0,0.0,0.0,0.0,0.0,0.0,0.0,-5.4983,-5.584,-5.6444,-5.545,-5.4554,-5.3931,-5.2283,-5.1252,-5.1014,-5.1011,-5.0308,-4.8807,-4.9664,-4.948,-4.8284,-4.9777,-5.0466,-5.0468,-5.1052,-5.1318,-5.1257,-5.0614,-5.0665,-5.1098,-4.9887,-4.9584,-4.9757,-4.8282,-4.7533,-4.7162,-4.6084,-4.4744,-4.3468,-4.3234,-4.2193,-4.1007,-4.0994,-4.0998,-4.0983,-4.0935,-4.0929,-4.0932,-4.0932,-4.0907,-4.0867,-4.0815,-4.0808,-4.079,-4.079,-4.079,-4.0765,-4.0631,-4.0583,-4.0539,-4.0321,-4.0139,-3.9958,-3.9914,-3.9731,-3.9602,-3.9602,-3.9602,-3.9577,-3.9546,-3.9469,-3.9373,-3.9256,-3.8178,-3.7102,-3.6278,-3.5757,-3.5237,-3.4606,-3.4327,-3.4197,-3.4197,-3.4148,-3.4124,-3.4099,-3.4049,-3.3902,-3.3643,-3.3382,-3.3134,-3.2889,-3.2386,-3.2007,-4.694,-4.971,-5.141,-5.0531,-4.715,-4.3178,0.0,0.0,0.0,-2.8495,-2.6868,-2.5718,-2.5718,-2.7082,-2.8212,-2.8251,0.0,0.0,0.0,0.0,0.0,0.0,0.0,0.0,-5.1008,-5.4457,-5.6483,-5.6503,-5.4885,0.0,-5.3911,-5.2255,-5.094,-5.0147,-5.0119,-4.969,-4.8806,-4.9651,-5.01,-5.0089,-5.0967,-5.1347,-5.1294,-5.1365,-5.1357,-5.1302,-5.1366,-5.1312,-5.1203,-5.1183,-5.0665,-4.9815,-4.9,-4.8126,-4.7105,-4.5493,-4.4314,-4.3397,-4.2592,-4.1749,-4.0991,-4.0991,-4.1003,-4.1006,-4.1,-4.0998,-4.0987,-4.0987,-4.0904,-4.0796,-4.0796,-4.079,-4.079,-4.079,-4.079,-4.079,-4.079,-4.079,-4.0733,-4.0539,-4.0339,-4.0139,-3.9916,-3.9731,-3.9602,-3.9602,-3.9602,-3.9602,-3.9602,-3.9546,-3.9469,-3.9418,-3.9256,-3.883,-3.7949,-3.6408,-3.5497,-3.5479,-3.468,-3.4197,-3.4197,-3.4197,-3.4173,-3.4099,-3.4099,-3.4074,-3.3998,-3.4069,-3.4089,-3.4038,-3.3261,-3.2507,-4.0883,-4.2813,-4.352,-4.2068,-4.0307,-3.8089,-3.4782,0.0,0.0,-2.7569,-2.6413,-2.5874,-2.642,-2.6946,-2.8095,-3.0472,-3.1568,0.0,0.0,0.0,0.0,0.0,0.0,0.0,0.0,0.0,-5.5353,-5.4768,-5.4203,-5.3385,-5.2197,-5.1593,-5.1174,-5.0928,-5.0912,-5.0522,-4.9699,-5.0513,-5.0639,-5.0114,-5.0986,-5.1394,-5.1366,-5.1343,-5.1346,-5.1364,-5.134,-5.133,-5.1294,-5.0644,-5.023,-4.9822,-4.8376,-4.763,-4.717,-4.5503,-4.4332,-4.3444,-4.2651,-4.1797,-4.1054,-4.1004,-4.1029,-4.1054,-4.1012,-4.0974,-4.0924,-4.0878,-4.0829,-4.0931,-4.1492,-4.1622,-4.1622,-4.1622,-4.1622,-4.1467,-4.0906,-4.079,-4.0778,-4.072,-4.0554,-4.0339,-4.0139,-3.9956,-3.9754,-3.9626,-3.9602,-3.9602,-3.9602,-3.9546,-3.9469,-3.9418,-3.9301,-3.8867,-3.7968,-3.7429,-3.6668,-3.5553,-3.5237,-3.5089,-3.5089,-3.5089,-3.5349,-3.5862,-3.588,-3.5855,-3.5769,-3.5506,-3.5091,-3.4482,-3.3966,-3.33,0.0,-3.798,-3.861,-3.7553,-3.6447,0.0,0.0,0.0,0.0,0.0,-2.6238,-2.5952,-2.6751,-2.6907,-2.7823,-3.0667,-3.1388,0.0,0.0,0.0,0.0,0.0,0.0,0.0,0.0,-5.432,-5.4632,-5.4418,-5.3171,-5.2236,-5.1807,-5.1164,-5.0816,-5.0854,-5.0842,-5.0608,-5.0093,-5.092,-5.1089,-5.0596,-5.1141,-5.1396,-5.1355,-5.1352,-5.1355,-5.1389,-5.1015,-5.0878,0.0,-4.9914,-4.9336,-4.8915,-4.7822,-4.6999,-4.63,-4.4923,-4.3862,-4.3027,-4.2205,-4.1553,-4.1097,-4.1053,-4.1053,-4.1054,-4.098,-4.0949,-4.0924,-4.0839,-4.0807,-4.0912,-4.1434,-4.1545,-4.1622,-4.1932,-4.1777,-4.1487,-4.1293,-4.1003,-4.079,-4.079,-4.0646,-4.0457,-4.0339,-4.008,-3.9848,-3.9731,-3.965,-3.9602,-3.9602,-3.9571,-3.952,-3.9444,-3.9328,-3.9024,-3.8449,-3.8106,-3.7466,-3.6463,-3.611,-3.5943,-3.5943,-3.5943,-3.6185,-3.6686,-3.6686,-3.6652,-3.6564,-3.6267,-3.5785,-3.5111,-3.4688,-3.4093,0.0,0.0,0.0,0.0,0.0,0.0,0.0,0.0,0.0,0.0,0.0,0.0,0.0,-2.6946,-2.753,-2.9459,-3.0507,0.0,0.0,0.0,0.0,0.0,0.0,0.0,-5.1398,-5.2859,-5.4126,-5.4866,-5.1924,-5.0774,-5.2333,-5.0872,-5.0061,-5.018,-5.0121,-5.0102,-5.0102,-5.0959,-5.1394,-5.1394,-5.1391,-5.1363,-5.1304,-5.1366,-5.1372,-5.1269,-5.0451,-5.0064,-4.9941,-4.9062,-4.8199,-4.7396,-4.7283,-4.6264,-4.4781,-4.3865,-4.3047,-4.2285,-4.1394,-4.1094,-4.1097,-4.1093,-4.1047,-4.0988,-4.0915,-4.096,-4.0967,-4.084,-4.0807,-4.0815,-4.0873,-4.0887,-4.1061,-4.1816,-4.1429,-4.1061,-4.1777,-4.1332,-4.079,-4.079,-4.0646,-4.0523,-4.0504,-4.0196,-3.9956,-3.9916,-3.9754,-3.965,-3.9626,-3.9626,-3.9577,-3.9495,-3.9444,-3.9346,-3.921,-3.8441,-3.7949,-3.7894,-3.7188,-3.6779,-3.6779,-3.6779,-3.6798,-3.6872,-3.6872,-3.6793,-3.662,-3.6486,-3.6219,-3.5864,-3.5491,-3.4869,-2.695,0.0,-2.8699,-2.8107,-2.8242,0.0,0.0,0.0,0.0,0.0,0.0,0.0,0.0,0.0,0.0,-3.1875,0.0,-3.4603,0.0,0.0,0.0,0.0,-5.0989,-5.2294,-5.2294,-5.2664,-5.2703,-5.2255,-5.1456,-5.0872,-5.0618,-5.0229,-5.0314,-5.0998,-5.0426,-5.0101,-5.0101,-5.0957,-5.1391,-5.1391,-5.1406,-5.1394,-5.1385,-5.1398,-5.1047,-5.039,-5.0188,-4.9719,-4.9046,-4.8226,-4.7711,-4.7343,-4.6052,-4.5292,-4.4726,-4.3236,-4.2563,-4.2273,-4.1403,-4.1092,-4.1093,-4.1047,-4.0974,-4.0918,-4.0898,-4.0948,-4.0967,-4.084,-4.0807,-4.0951,-4.1633,-4.1751,-4.1777,-4.1951,-4.1854,-4.1603,-4.1158,-4.0926,-4.079,-4.079,-4.0765,-4.0673,-4.0539,-4.0425,-4.0304,-4.0158,-4.01,-4.0,-3.9848,-3.9826,-3.9731,-3.952,-3.9444,-3.9346,-3.921,-3.8961,-3.8562,-3.7931,-3.7708,-3.7615,-3.7615,-3.7615,-3.7912,-3.8525,-3.8489,-3.8272,-3.7857,-3.7464,-3.7074,-3.6636,-3.6331,-3.5745,-2.5191,-2.5855,-2.6545,-2.6535,-2.6664,-2.6798,0.0,0.0,0.0,0.0,0.0,0.0,0.0,0.0,0.0,0.0,-3.3765,0.0,0.0,0.0,0.0,0.0,-5.1183,-5.2158,0.0,-5.2236,-5.1963,-5.1904,-5.0443,-4.971,-5.0029,-4.9289,-4.9068,-4.9535,-4.9527,-4.9884,-5.0684,-5.1167,-5.1406,-5.1406,-5.139,-5.1199,-5.0809,-5.0809,-5.034,-4.9481,-4.9111,-4.8701,-4.8174,-4.7354,-4.6961,-4.6816,-4.5898,-4.5039,-4.4199,-4.3281,-4.2459,-4.1732,-4.1269,-4.1089,-4.1049,-4.1012,-4.0954,-4.0897,-4.0904,-4.0932,-4.0924,-4.0839,-4.0807,-4.0912,-4.1381,-4.1485,-4.1538,-4.1912,-4.1712,-4.1422,-4.1351,-4.1061,-4.079,-4.079,-4.079,-4.0894,-4.1142,-4.1108,-4.1165,-4.143,-4.1398,-4.1264,-4.1073,-4.071,-4.0352,-4.0115,-3.972,-3.9399,-3.9301,-3.9202,-3.8943,-3.8469,-3.8451,-3.8451,-3.8451,-3.8451,-3.8655,-3.9082,-3.9036,-3.8815,-3.8392,-3.7859,-3.7377,-3.6995,-3.6591,-3.6177,-2.5509,-2.6269,-2.7075,-2.7495,-2.7205,-2.7018,0.0,0.0,0.0,0.0,0.0,0.0,0.0,0.0,0.0,0.0,0.0,0.0,0.0,0.0,0.0,0.0,-5.0774,0.0,-5.2138,-5.1671,-5.1612,-5.2353,-4.9586,-4.8522,-5.0024,-4.8561,-4.7696,-4.7708,-4.8406,-4.9504,-5.0991,-5.1137,-5.1121,-5.1004,-5.1141,-5.075,-4.9911,-4.9911,-4.9423,-4.8584,-4.79,-4.7514,-4.7322,-4.658,-4.6246,-4.6169,-4.5905,-4.4892,-4.3572,-4.3305,-4.2318,-4.1093,-4.1094,-4.1055,-4.0994,-4.0994,-4.0945,-4.0898,-4.0888,-4.0907,-4.0888,-4.0818,-4.0807,-4.0796,-4.08,-4.08,-4.0963,-4.1654,-4.1299,-4.0982,-4.1673,-4.1274,-4.079,-4.079,-4.079,-4.1023,-4.1699,-4.1779,-4.1998,-4.273,-4.2825,-4.2718,-4.2487,-4.1797,-4.1215,-4.0823,-4.0146,-3.96,-3.9436,-3.9275,-3.9183,-3.9101,-3.9101,-3.9157,-3.9287,-3.9305,-3.9305,-3.9305,-3.9249,-3.8944,-3.8428,-3.7859,-3.7414,-3.7031,-3.6591,-3.6402,-2.6943,-2.7992,-2.8249,-2.6279,-2.6306,-2.6856,0.0,0.0,0.0,0.0,0.0,0.0,0.0,0.0,0.0,0.0,0.0,0.0,0.0,0.0,-4.8651,-4.9859,0.0,-5.1067,-5.0463,-5.095,-5.1359,-5.1495,-5.0326,-4.9769,-5.0082,-4.9146,-4.8593,-4.8601,-4.8738,-4.8923,-4.9204,-4.993,-4.993,-4.9208,-4.995,-4.9833,-4.8993,-4.8993,-4.8545,-4.7783,-4.7647,-4.7154,-4.6405,-4.6269,-4.6182,-4.5967,-4.454,-4.3841,-4.3437,-4.2008,-4.1326,-4.1099,-4.1093,-4.1055,-4.0994,-4.0994,-4.0945,-4.0898,-4.0888,-4.0898,-4.0898,-4.0888,-4.0846,-4.08,-4.08,-4.08,-4.0827,-4.0958,-4.0892,-4.0827,-4.0958,-4.0887,-4.079,-4.079,-4.079,-4.0829,-4.0965,-4.1513,-4.2002,-4.2137,-4.2748,-4.3073,-4.2698,-4.2544,-4.2034,-4.0923,-4.0633,-4.0199,-3.9474,-3.9275,-3.9183,-3.9101,-3.9101,-3.9435,-4.016,-4.0197,-4.0197,-4.0197,-4.0197,-3.9467,-3.798,-3.7807,-3.736,-3.6766,-3.6684,-3.6643,-2.6256,-2.7063,-2.745,-2.6413,-2.751,-2.8748,0.0,0.0,0.0,0.0,0.0,0.0,0.0,0.0,0.0,0.0,0.0,0.0,-4.7092,-4.7832,-4.8573,0.0,0.0,-5.0638,-5.0696,-5.0638,-5.0599,-5.0599,-4.9379,-4.8652,-4.8691,-4.7897,-4.7445,-4.7444,-4.7444,-4.7448,-4.7451,-4.831,-4.8779,-4.8798,-4.9208,-4.8954,-4.8154,-4.8154,-4.7676,-4.6848,-4.6848,-4.6601,-4.6163,-4.5696,-4.5457,-4.5267,-4.4036,-4.3287,-4.2747,-4.1541,-4.1093,-4.1091,-4.106,-4.1035,-4.0998,-4.1006,-4.0986,-4.0957,-4.0949,-4.0921,-4.0902,-4.0894,-4.0849,-4.0804,-4.0846,-4.0823,-4.0788,-4.0796,-4.0808,-4.0808,-4.0803,-4.079,-4.079,-4.079,-4.079,-4.1081,-4.199,-4.2454,-4.3015,-4.3924,-4.4388,-4.4549,-4.4248,-4.3714,-4.2921,-4.1784,-4.1117,-4.0401,-3.9492,-3.9328,-3.9229,-3.9101,-3.9101,-3.9491,-4.0346,-4.0401,-4.0587,-4.1033,-4.0606,-3.9817,-3.8665,-3.811,-3.7433,-3.6748,-3.6742,-3.6725,-2.5878,-2.6381,-2.6843,-2.6994,0.0,0.0,0.0,0.0,0.0,0.0,0.0,0.0,0.0,0.0,0.0,0.0,0.0,-4.6098,-4.7832,-4.8086,-4.8553,-4.9859,-4.9995,-5.019,-5.0665,-5.0295,-4.9944,-4.9737,-4.8347,-4.7501,-4.7499,-4.6748,-4.6308,-4.63,-4.63,-4.63,-4.63,-4.6963,-4.7608,-4.8213,-4.8427,-4.8096,-4.7295,-4.7295,-4.6883,-4.6191,-4.6191,-4.6207,-4.6124,-4.5238,-4.4841,-4.4695,-4.3624,-4.2724,-4.1931,-4.1328,-4.123,-4.1406,-4.1342,-4.1339,-4.1331,-4.1319,-4.1184,-4.0998,-4.0998,-4.0955,-4.0922,-4.0916,-4.0871,-4.084,-4.0888,-4.0868,-4.0818,-4.0792,-4.0815,-4.0815,-4.0796,-4.0803,-4.079,-4.079,-4.0945,-4.1487,-4.2763,-4.3169,-4.3808,-4.5297,-4.551,-4.551,-4.5505,-4.4729,-4.3821,-4.28,-4.1914,-4.0915,-3.9791,-3.9458,-3.9275,-3.9101,-3.9287,-3.9788,-4.0643,-4.0847,-4.1237,-4.1869,-4.1274,-4.0419,-3.9313,-3.8757,-3.7988,-3.7131,-3.7202,-3.7306,-2.731,-2.7701,-2.7706,-2.7717,0.0,0.0,0.0,0.0,0.0,0.0,0.0,0.0,0.0,0.0,0.0,0.0,0.0,-4.7891,-4.9586,0.0,-4.9859,-4.9995,-4.9995,-4.973,-4.9042,-4.9646,-4.9751,-4.895,-4.8034,-4.7499,-4.7489,-4.6733,-4.6308,-4.63,-4.63,-4.63,-4.63,-4.6358,-4.6417,-4.6495,-4.7295,-4.7237,-4.6397,-4.6397,-4.6317,-4.6191,-4.6191,-4.6207,-4.612,-4.5201,-4.48,-4.4637,-4.302,-4.1866,-4.1097,-4.1108,-4.1615,-4.2304,-4.2295,-4.23,-4.2304,-4.2304,-4.1711,-4.1007,-4.1007,-4.0998,-4.0986,-4.0996,-4.0944,-4.0894,-4.0898,-4.0906,-4.0871,-4.0819,-4.084,-4.0876,-4.0804,-4.0796,-4.079,-4.079,-4.139,-4.1951,-4.2067,-4.2763,-4.3614,-4.4562,-4.4697,-4.4873,-4.5447,-4.5266,-4.4696,-4.3634,-4.329,-4.2415,-4.067,-3.9676,-3.9129,-3.9101,-3.9863,-4.0661,-4.1479,-4.2222,-4.2649,-4.2705,-4.2649,-4.1525,-3.9313,-3.9842,-3.9383,-3.8,-3.8636,-3.9003,-2.6376,-2.7239,-2.8001,-2.7992,0.0,0.0,0.0,0.0,0.0,0.0,0.0,0.0,0.0,0.0,0.0,0.0,-4.717,-4.8534,-4.9157,-4.9683,-4.982,-4.9313,-4.9243,-4.914,-4.8834,-4.8607,-4.8346,-4.802,-4.7226,-4.6748,-4.6752,-4.6468,-4.6296,-4.63,-4.63,-4.63,-4.63,-4.63,-4.63,-4.63,-4.6632,-4.6612,-4.63,-4.63,-4.6258,-4.6172,-4.5625,-4.5387,-4.5281,-4.3841,-4.3245,-4.3117,-4.1949,-4.1293,-4.1019,-4.1087,-4.1311,-4.1593,-4.1597,-4.1947,-4.2316,-4.1777,-4.1718,-4.1774,-4.1227,-4.1066,-4.1062,-4.1069,-4.1045,-4.1013,-4.0964,-4.0935,-4.0898,-4.0876,-4.0849,-4.0818,-4.0808,-4.119,-4.139,-4.0887,-4.1448,-4.2164,-4.2725,-4.2628,-4.3131,-4.5065,-4.4929,-4.4863,-4.5592,-4.5399,-4.4897,-4.4135,-4.3225,-4.2128,-4.0787,-4.0234,-3.9742,-3.9193,-3.9946,-4.0754,-4.1571,-4.237,-4.3039,-4.354,-4.3039,-4.1989,-4.0416,-3.9926,-3.9283,-3.8468,-3.8491,-3.8772,-2.5699,-2.647,-2.7323,0.0,0.0,0.0,0.0,0.0,0.0,0.0,0.0,0.0,0.0,0.0,0.0,0.0,-4.7423,-4.8495,-4.8768,-4.904,-4.9001,-4.8456,-4.8392,-4.8269,-4.8002,-4.7688,-4.7382,-4.7133,-4.6616,-4.6308,-4.6308,-4.6296,-4.63,-4.63,-4.63,-4.63,-4.63,-4.63,-4.6163,-4.589,-4.589,-4.589,-4.589,-4.589,-4.5692,-4.5351,-4.5039,-4.4743,-4.4377,-4.2903,-4.2143,-4.1827,-4.1267,-4.1199,-4.1419,-4.1183,-4.1439,-4.1872,-4.1615,-4.1904,-4.2301,-4.1693,-4.154,-4.1462,-4.0876,-4.0683,-4.0683,-4.0682,-4.0897,-4.1094,-4.1033,-4.1007,-4.0959,-4.0935,-4.0898,-4.0937,-4.1186,-4.1652,-4.1944,-4.1641,-4.226,-4.3015,-4.3614,-4.3227,-4.3498,-4.549,-4.5123,-4.4891,-4.5703,-4.549,-4.5112,-4.4631,-4.3452,-4.2384,-4.1637,-4.0948,-4.0262,-3.9657,-4.0365,-4.0932,-4.12,-4.224,-4.3058,-4.3615,-4.3336,-4.2606,-4.1489,-4.0894,-4.0185,-3.9468,-3.9385,-3.9605,-2.5699,-2.5562,0.0,0.0,0.0,0.0,0.0,0.0,0.0,0.0,0.0,0.0,0.0,0.0,0.0,-4.5903,-4.6936,-4.7793,-4.8651,-4.8047,-4.7501,-4.7482,-4.7502,-4.7145,-4.6284,-4.6977,-4.7166,-4.6358,-4.63,-4.63,-4.63,-4.63,-4.63,-4.63,-4.63,-4.63,-4.628,-4.628,-4.5851,-4.4992,-4.4972,-4.4972,-4.4992,-4.4992,-4.4481,-4.3652,-4.4512,-4.4394,-4.3515,-4.2659,-4.1788,-4.1016,-4.1073,-4.1621,-4.2265,-4.1411,-4.2181,-4.3548,-4.2689,-4.2396,-4.2396,-4.2376,-4.1205,-3.9819,-3.98,-3.9797,-3.9785,-3.9808,-4.0423,-4.1093,-4.1097,-4.1107,-4.1093,-4.1019,-4.1003,-4.1213,-4.2023,-4.2159,-4.2356,-4.315,-4.4001,-4.4601,-4.4601,-4.4601,-4.4871,-4.5684,-4.5123,-4.4891,-4.5684,-4.5626,-4.5418,-4.5222,-4.4197,-4.3515,-4.3491,-4.1717,-4.0578,-4.0505,-4.1241,-4.1305,-4.042,-4.1943,-4.2816,-4.2797,-4.3596,-4.3421,-4.2316,-4.3036,-4.2578,-4.1114,-4.1841,-4.1984,-2.5699,0.0,0.0,0.0,0.0,0.0,0.0,0.0,0.0,0.0,0.0,0.0,0.0,0.0,0.0,-4.5202,-4.6527,-4.7384,-4.7014,-4.7287,-4.7267,-4.6663,-4.6593,-4.6474,-4.6226,-4.6479,-4.655,-4.6319,-4.63,-4.63,-4.63,-4.63,-4.63,-4.63,-4.63,-4.6007,-4.5382,-4.5382,-4.4953,-4.4075,-4.3469,-4.3801,-4.4972,-4.4367,-4.4276,-4.4538,-4.3562,-4.2995,-4.2685,-4.1816,-4.1306,-4.1073,-4.1094,-4.0879,-4.0605,-4.0962,-4.103,-4.101,-4.1361,-4.1888,-4.2201,-4.0971,-4.0639,-4.0483,-3.9312,-3.8969,-3.9069,-3.9647,-3.9981,-4.0338,-4.0935,-4.1543,-4.1849,-4.1169,-4.0996,-4.1208,-4.1968,-4.2607,-4.307,-4.3273,-4.4001,-4.4601,-4.4601,-4.4098,-4.4175,-4.5587,-4.5123,-4.4849,-4.5494,-4.5658,-4.5594,-4.5243,-4.4908,-4.4376,-4.3625,-4.2302,-4.1239,-4.0597,-4.0169,-4.0095,-4.0383,-4.2482,-4.3373,-4.2816,-4.3596,-4.3565,-4.2656,-4.2636,-4.2227,-4.1465,-4.1447,-4.1511,-2.5605,0.0,0.0,0.0,0.0,0.0,0.0,0.0,0.0,0.0,0.0,0.0,0.0,-4.5124,0.0,-4.5358,-4.6293,-4.68,-4.6274,-4.6644,-4.678,-4.6254,-4.6209,-4.6206,-4.6206,-4.6269,-4.63,-4.63,-4.63,-4.63,-4.63,-4.5968,-4.5773,-4.5773,-4.5441,-4.5012,-4.4484,-4.4484,-4.4055,-4.3177,-4.265,-4.2942,-4.3957,-4.3411,-4.3274,-4.3391,-4.2337,-4.1888,-4.1833,-4.132,-4.0895,-4.0621,-4.0953,-4.0563,-3.9917,-4.0784,-4.0776,-4.0346,-4.0522,-4.0932,-4.1147,-3.9761,-3.9449,-3.939,-3.8394,-3.8336,-3.871,-3.9195,-3.98,-4.0444,-4.0952,-4.1498,-4.1738,-4.1168,-4.1561,-4.2181,-4.2565,-4.333,-4.3986,-4.4234,-4.4465,-4.4697,-4.5026,-4.4388,-4.4156,-4.5162,-4.491,-4.4733,-4.5105,-4.5529,-4.5708,-4.5454,-4.5303,-4.4949,-4.4281,-4.28,-4.1686,-4.1118,-4.056,-4.0291,-4.0383,-4.1794,-4.2482,-4.2333,-4.3113,-4.3448,-4.328,-4.3056,-4.2757,-4.2323,-4.2103,-4.1952,0.0,0.0,0.0,0.0,0.0,0.0,0.0,0.0,0.0,0.0,0.0,0.0,0.0,-4.5553,-4.528,-4.6059,-4.6196,-4.6196,-4.6196,-4.6196,-4.6196,-4.6196,-4.6209,-4.6167,-4.6089,-4.6132,-4.6183,-4.6183,-4.6105,-4.6105,-4.6183,-4.5363,-4.4875,-4.4875,-4.4114,-4.3665,-4.3587,-4.3587,-4.3138,-4.2279,-4.2279,-4.2279,-4.2279,-4.2279,-4.1849,-4.1108,-4.1108,-4.1108,-4.1108,-4.1108,-4.062,-3.9995,-4.0795,-4.0561,-3.9917,-4.0776,-4.0991,-4.0776,-4.0054,-3.9741,-3.9566,-3.8746,-3.7946,-3.7282,-3.7204,-3.7789,-3.8495,-3.8573,-3.9741,-4.0991,-4.1088,-4.1166,-4.1205,-4.1127,-4.2316,-4.3476,-4.3509,-4.4014,-4.4696,-4.5434,-4.5045,-4.4833,-4.5548,-4.5142,-4.4678,-4.462,-4.4601,-4.4581,-4.4485,-4.5258,-4.5742,-4.5587,-4.5359,-4.5163,-4.5086,-4.3188,-4.1946,-4.181,-4.1651,-4.1241,-4.042,-4.0606,-4.1033,-4.1702,-4.25,-4.3262,-4.4005,-4.4005,-4.3777,-4.3406,-4.3406,-4.2959,0.0,0.0,0.0,0.0,0.0,0.0,0.0,0.0,0.0,0.0,0.0,0.0,-4.6176,-4.604,-4.5981,-4.6176,-4.6196,-4.6196,-4.6196,-4.6196,-4.6196,-4.6196,-4.6209,-4.5933,-4.525,-4.5234,-4.5285,-4.5285,-4.4641,-4.4563,-4.5246,-4.4445,-4.3977,-4.3977,-4.3801,-4.3372,-4.2689,-4.2689,-4.224,-4.1381,-4.1381,-4.1381,-4.1381,-4.1381,-4.1283,-4.1108,-4.1108,-4.1108,-4.1108,-4.1108,-4.0991,-4.0834,-4.103,-4.0561,-3.9917,-4.0776,-4.0268,-3.9195,-3.9644,-3.939,-3.8726,-3.7867,-3.7458,-3.7165,-3.6482,-3.6891,-3.7711,-3.8414,-3.9312,-4.0249,-4.0912,-4.1615,-4.1947,-4.1264,-4.1387,-4.2007,-4.3308,-4.3134,-4.2972,-4.3763,-4.4277,-4.4659,-4.4833,-4.5239,-4.5336,-4.4697,-4.4601,-4.4349,-4.3672,-4.4871,-4.5297,-4.3982,-4.465,-4.4914,-4.4246,-4.2848,-4.1946,-4.181,-4.0606,-4.0066,-4.0411,-4.2222,-4.3002,-4.2556,-4.3336,-4.3838,-4.4005,-4.4005,-4.3777,-4.3406,-4.3406,-4.2959,0.0,0.0,0.0,0.0,0.0,0.0,0.0,0.0,0.0,0.0,0.0,0.0,-4.6196,-4.6196,-4.6059,-4.565,-4.5572,-4.5436,-4.5007,-4.4968,-4.4968,-4.4968,-4.4955,-4.4796,-4.4373,-4.4372,-4.4383,-4.4387,-4.3957,-4.3899,-4.4348,-4.3548,-4.3079,-4.3079,-4.2669,-4.224,-4.1771,-4.1771,-4.1557,-4.1108,-4.1108,-4.1108,-4.1108,-4.1108,-4.1108,-4.1108,-4.1108,-4.1108,-4.1108,-4.1108,-4.0854,-4.0522,-4.0932,-4.0327,-3.937,-4.0639,-4.0034,-3.8726,-3.9527,-3.9,-3.7906,-3.7458,-3.7028,-3.6599,-3.615,-3.6891,-3.8024,-3.8475,-3.9488,-4.0424,-4.0464,-4.1127,-4.1654,-4.1205,-4.1732,-4.247,-4.2884,-4.2923,-4.2986,-4.3342,-4.3401,-4.3523,-4.3904,-4.433,-4.4601,-4.4601,-4.4253,-4.3962,-4.3924,-4.4697,-4.5045,-4.4543,-4.4917,-4.5029,-4.4571,-4.334,-4.2583,-4.2501,-4.1623,-4.126,-4.1574,-4.3144,-4.3615,-4.2816,-4.3206,-4.3615,-4.4005,-4.4005,-4.3777,-4.3406,-4.3406,-4.2959,0.0,0.0,0.0,0.0,0.0,0.0,0.0,0.0,0.0,0.0,0.0,-4.6157,-4.6008,-4.5988,-4.5728,-4.5027,-4.4773,-4.4423,-4.3702,-4.3598,-4.3598,-4.3598,-4.3604,-4.3582,-4.3475,-4.3489,-4.3482,-4.3489,-4.3333,-4.3313,-4.3469,-4.265,-4.2181,-4.2181,-4.1479,-4.1108,-4.1108,-4.1108,-4.1108,-4.1108,-4.1108,-4.1108,-4.1108,-4.1108,-4.1108,-4.1108,-4.1108,-4.1108,-4.1108,-4.1108,-4.0678,-4.0093,-4.0815,-4.0249,-3.9198,-4.0581,-4.0132,-3.8902,-3.9566,-3.8804,-3.7497,-3.734,-3.6911,-3.6423,-3.6267,-3.7438,-3.8804,-3.8804,-3.9917,-4.0932,-4.021,-4.0561,-4.1108,-4.1108,-4.2201,-4.3073,-4.2459,-4.2763,-4.3119,-4.3003,-4.2615,-4.2595,-4.3576,-4.3614,-4.3769,-4.4485,-4.4001,-4.373,-4.4311,-4.4639,-4.4935,-4.5288,-4.5245,-4.5123,-4.4927,-4.3945,-4.3267,-4.3203,-4.296,-4.2837,-4.2909,-4.349,-4.3571,-4.3051,-4.302,-4.3336,-4.4005,-4.4005,-4.3809,-4.3508,-4.344,-4.2996,0.0,0.0,0.0,0.0,0.0,0.0,0.0,0.0,0.0,0.0,-4.4982,-4.5969,-4.5202,-4.5079,-4.5046,-4.491,-4.4267,-4.3741,-4.3617,-4.3598,-4.3598,-4.3598,-4.3649,-4.3397,-4.2656,-4.2577,-4.2568,-4.2572,-4.1869,-4.1771,-4.2533,-4.1752,-4.1264,-4.1264,-4.1166,-4.1108,-4.1108,-4.1108,-4.1108,-4.1108,-4.1108,-4.1108,-4.1108,-4.1108,-4.1108,-4.1108,-4.1108,-4.1108,-4.1108,-4.1108,-4.103,-4.0932,-4.1049,-4.0952,-4.0795,-4.101,-4.0483,-3.9663,-3.9761,-3.9195,-3.8297,-3.7555,-3.7731,-3.8102,-3.736,-3.8297,-3.9644,-3.9644,-4.0346,-4.1069,-4.0952,-4.101,-4.1108,-4.1108,-4.1283,-4.1618,-4.2249,-4.1836,-4.1342,-4.1318,-4.2304,-4.3634,-4.52,-4.4891,-4.4465,-4.4581,-4.4504,-4.4194,-4.3556,-4.4736,-4.5061,-4.3541,-4.448,-4.481,-4.3881,-4.3516,-4.3267,-4.3203,-4.2473,-4.2324,-4.2959,-4.3021,-4.3364,-4.4016,-4.3887,-4.3893,-4.4005,-4.4005,-4.3955,-4.3923,-4.3542,-4.3141,0.0,0.0,0.0,0.0,0.0,0.0,0.0,0.0,0.0,0.0,-4.2518,-4.4091,-4.415,-4.4169,-4.4007,-4.3526,-4.3117,-4.2708,-4.226,-4.2202,-4.2202,-4.2202,-4.222,-4.2081,-4.172,-4.1675,-4.1667,-4.1674,-4.1322,-4.1264,-4.1654,-4.1303,-4.1108,-4.1108,-4.1108,-4.0873,-4.0385,-4.0366,-4.0151,-3.9702,-3.9702,-3.9702,-3.9702,-3.9702,-4.021,-4.1108,-4.1108,-4.1108,-4.1108,-4.1108,-4.1108,-4.1108,-4.1108,-4.1108,-4.1108,-4.1108,-4.0542,-3.9878,-4.0366,-3.9683,-3.8612,-3.8687,-3.8668,-3.8534,-3.8141,-3.8863,-3.98,-3.98,-4.0424,-4.0991,-4.0503,-4.0737,-4.0971,-4.0483,-4.0737,-4.1205,-4.1596,-4.1328,-4.1129,-4.1548,-4.2528,-4.3692,-4.4929,-4.4833,-4.4755,-4.52,-4.4891,-4.462,-4.4697,-4.4949,-4.4979,-4.4596,-4.4959,-4.5006,-4.4535,-4.4153,-4.3942,-4.3933,-4.3531,-4.3446,-4.3774,-4.3695,-4.3793,-4.4184,-4.4055,-4.4005,-4.4005,-4.4005,-4.3777,-4.3318,-4.3141,-4.2734,0.0,0.0,0.0,0.0,0.0,0.0,0.0,0.0,0.0,0.0,-3.9897,-4.1588,-4.2192,-4.2855,-4.3083,-4.2422,-4.2149,-4.1792,-4.1188,-4.1286,-4.1325,-4.113,-4.1304,-4.134,-4.1111,-4.1109,-4.1101,-4.1108,-4.0893,-4.0873,-4.1088,-4.0698,-4.0561,-4.0756,-4.0561,-4.0151,-3.9507,-3.9507,-3.9195,-3.8593,-3.8593,-3.8593,-3.8593,-3.8593,-3.939,-4.0776,-4.0776,-4.0893,-4.1108,-4.1108,-4.1108,-4.1108,-4.1108,-4.1108,-4.1108,-4.1108,-4.0698,-4.0229,-4.0873,-4.0288,-3.9292,-3.9683,-3.9546,-3.9198,-3.8961,-3.9488,-4.0132,-4.0132,-4.06,-4.0952,-4.0307,-4.06,-4.0932,-4.0288,-4.062,-4.1166,-4.1381,-4.1361,-4.161,-4.2601,-4.3233,-4.3904,-4.4755,-4.491,-4.5104,-4.5703,-4.5297,-4.5123,-4.5722,-4.5278,-4.5095,-4.56,-4.5381,-4.5159,-4.5026,-4.47,-4.4515,-4.4515,-4.444,-4.4411,-4.4411,-4.4314,-4.4244,-4.4244,-4.4147,-4.4036,-4.4005,-4.3892,-4.3542,-4.2959,-4.2716,-4.232,0.0,0.0,0.0,0.0,0.0,0.0,0.0,0.0,0.0,0.0,-3.8034,-3.8721,-3.8768,-4.0788,-4.2456,-4.2401,-4.1699,-4.1148,-4.111,-4.1753,-4.1948,-4.1188,-4.1841,-4.2013,-4.1174,-4.1097,-4.1108,-4.1108,-4.0327,-4.0229,-4.1049,-3.9585,-3.9078,-3.9839,-3.9136,-3.871,-3.8671,-3.8671,-3.8632,-3.8593,-3.8593,-3.8593,-3.8593,-3.8593,-3.9058,-3.9878,-3.9878,-4.0346,-4.1108,-4.1108,-4.1108,-4.1108,-4.1108,-4.1108,-4.1108,-4.1108,-4.1069,-4.103,-4.1088,-4.103,-4.0834,-4.0054,-4.0327,-4.0815,-3.9995,-4.0346,-4.103,-4.103,-4.1069,-4.1088,-4.103,-4.1069,-4.1088,-4.103,-4.1069,-4.1322,-4.2145,-4.2237,-4.2628,-4.4336,-4.4587,-4.4794,-4.5587,-4.5742,-4.5742,-4.578,-4.5761,-4.5742,-4.578,-4.5761,-4.5603,-4.5264,-4.5222,-4.5026,-4.456,-4.4496,-4.4515,-4.4515,-4.4515,-4.4487,-4.4487,-4.443,-4.4383,-4.4383,-4.4314,-4.4177,-4.4005,-4.3627,-4.3406,-4.3353,-4.258,-4.2198,0.0,0.0,0.0,0.0,0.0,0.0,0.0,0.0,0.0,-3.3672,-3.5022,-3.6016,-3.6052,-3.8163,-3.9891,-3.9906,-3.9633,-3.9433,-3.9435,-3.9688,-3.9747,-3.9474,-3.9716,-3.977,-3.9457,-3.9478,-3.951,-3.951,-3.9214,-3.9175,-3.9488,-3.8924,-3.8726,-3.9019,-3.8746,-3.8336,-3.777,-3.7204,-3.6931,-3.6931,-3.6931,-3.6931,-3.6931,-3.6931,-3.7399,-3.8199,-3.8199,-3.9292,-4.1108,-4.1108,-4.1108,-4.1108,-4.1108,-4.1108,-4.1108,-4.1108,-4.1108,-4.1108,-4.1108,-4.1108,-4.1049,-4.0737,-4.0854,-4.103,-4.0737,-4.0854,-4.1108,-4.1108,-4.1108,-4.1108,-4.1108,-4.1108,-4.1108,-4.1108,-4.1108,-4.1333,-4.2168,-4.2705,-4.3189,-4.3731,-4.4692,-4.5498,-4.5756,-4.5847,-4.5847,-4.5814,-4.58,-4.58,-4.58,-4.58,-4.5737,-4.561,-4.5343,-4.5137,-4.4957,-4.4674,-4.4515,-4.4515,-4.4515,-4.4515,-4.4515,-4.4458,-4.4383,-4.4383,-4.4344,-4.4255,-4.4135,-4.3974,-4.3594,-4.2996,-4.2734,-4.232,0.0,0.0,0.0,0.0,0.0,0.0,0.0,0.0,0.0,-3.0994,-3.2505,-3.3686,-3.3809,-3.5396,-3.7001,-3.7947,-3.8083,-3.8171,-3.8466,-3.85,-3.85,-3.85,-3.8761,-3.8814,-3.8521,-3.8561,-3.8593,-3.8593,-3.8336,-3.8297,-3.8573,-3.8043,-3.7731,-3.7731,-3.7731,-3.7458,-3.6872,-3.6286,-3.5991,-3.5991,-3.5991,-3.5991,-3.5991,-3.5701,-3.6033,-3.6872,-3.7165,-3.857,-4.0659,-4.0659,-4.0834,-4.1108,-4.1108,-4.1108,-4.1108,-4.1108,-4.1108,-4.1108,-4.1108,-4.1108,-4.1108,-4.1108,-4.1108,-4.1108,-4.1108,-4.1108,-4.1108,-4.1108,-4.1108,-4.1108,-4.1108,-4.1108,-4.1108,-4.1108,-4.1322,-4.1687,-4.2182,-4.2939,-4.3548,-4.3737,-4.4912,-4.586,-4.5847,-4.5847,-4.5847,-4.5814,-4.58,-4.58,-4.58,-4.58,-4.5752,-4.561,-4.5362,-4.5137,-4.4981,-4.4674,-4.4515,-4.4515,-4.4515,-4.4515,-4.4515,-4.4458,-4.444,-4.444,-4.4401,-4.4344,-4.4274,-4.4023,-4.3563,-4.2921,-4.2732,-4.2297,0.0,0.0,0.0,0.0,0.0,0.0,0.0,0.0,-2.8144,-2.9111,-3.0579,-3.1751,-3.1948,-3.2536,-3.3874,-3.6629,-3.7082,-3.7386,-3.8229,-3.835,-3.8338,-3.8338,-3.9087,-3.9277,-3.8424,-3.8404,-3.8453,-3.8475,-3.7672,-3.7575,-3.8475,-3.6891,-3.5952,-3.5952,-3.5952,-3.5971,-3.5991,-3.5991,-3.5991,-3.5991,-3.5991,-3.5991,-3.5971,-3.5115,-3.5193,-3.6049,-3.6872,-3.818,-3.9722,-3.9819,-4.0327,-4.1049,-4.1088,-4.1108,-4.1108,-4.1108,-4.1108,-4.1108,-4.1108,-4.1108,-4.1108,-4.1108,-4.1108,-4.1108,-4.1108,-4.1108,-4.1108,-4.1108,-4.1108,-4.1108,-4.1108,-4.1108,-4.1108,-4.1108,-4.1774,-4.2373,-4.2319,-4.2949,-4.3776,-4.455,-4.528,-4.5794,-4.5874,-4.5847,-4.58,-4.58,-4.58,-4.58,-4.58,-4.578,-4.5642,-4.5263,-4.5201,-4.5004,-4.4551,-4.4496,-4.4515,-4.4515,-4.4515,-4.4515,-4.4515,-4.4515,-4.4515,-4.4515,-4.4515,-4.4487,-4.4383,-4.3679,-4.3286,-4.3196,-4.2591,-4.2163,-2.5556,0.0,0.0,0.0,0.0,0.0,0.0,0.0,0.0,-2.7396,-2.8266,-2.9012,-2.913,-2.9768,-3.0568,-3.1429,-3.3122,-3.4419,-3.4691,-3.469,-3.4661,-3.4661,-3.4878,-3.4951,-3.4753,-3.4759,-3.5053,-3.574,-3.4979,-3.5135,-3.6638,-3.5662,-3.5057,-3.5057,-3.5057,-3.5369,-3.5991,-3.5991,-3.5991,-3.5991,-3.5991,-3.5991,-3.5991,-3.5759,-3.5779,-3.5971,-3.5584,-3.6404,-3.8121,-3.9976,-4.0503,-4.0229,-4.0854,-4.1108,-4.1108,-4.1108,-4.1108,-4.1108,-4.1108,-4.1108,-4.1108,-4.1108,-4.1108,-4.1108,-4.1108,-4.1108,-4.1108,-4.1108,-4.1108,-4.1108,-4.1108,-4.1108,-4.1108,-4.1108,-4.1774,-4.2375,-4.2251,-4.3383,-4.4492,-4.4666,-4.4834,-4.5111,-4.5731,-4.5847,-4.586,-4.5814,-4.58,-4.58,-4.58,-4.5673,-4.5524,-4.5418,-4.512,-4.4868,-4.4739,-4.4568,-4.4515,-4.4515,-4.4515,-4.4515,-4.4515,-4.4515,-4.4515,-4.4515,-4.4515,-4.4487,-4.4383,-4.3986,-4.3612,-4.325,-4.2613,-4.2163,0.0,0.0,0.0,0.0,0.0,0.0,-2.5389,-2.5697,-2.61,0.0,-2.6747,-2.7314,-2.7427,-2.8085,-2.8782,-2.9285,-3.0269,-3.1396,-3.2557,-3.2683,-3.2779,-3.3147,-3.3192,-3.3223,-3.3258,-3.3264,-3.3482,-3.4038,-3.3626,-3.3971,-3.5389,-3.4627,-3.4315,-3.4686,-3.4354,-3.4393,-3.4917,-3.4917,-3.5096,-3.5467,-3.5467,-3.5642,-3.5991,-3.5623,-3.5467,-3.5447,-3.531,-3.5603,-3.6384,-3.859,-3.9214,-3.8843,-3.9722,-4.0054,-4.0132,-4.0834,-4.1108,-4.1108,-4.1108,-4.1108,-4.1108,-4.1108,-4.1108,-4.1108,-4.1108,-4.1108,-4.1108,-4.1108,-4.1108,-4.1108,-4.1108,-4.1108,-4.1108,-4.1108,-4.2048,-4.2904,-4.2806,-4.3856,-4.4782,-4.4673,-4.4912,-4.5293,-4.575,-4.586,-4.5893,-4.5814,-4.5814,-4.5814,-4.5757,-4.5645,-4.5491,-4.5304,-4.5011,-4.477,-4.4662,-4.456,-4.4515,-4.4515,-4.4515,-4.4515,-4.4515,-4.4515,-4.4515,-4.4515,-4.4515,-4.4411,-4.4277,-4.4109,-4.3777,-4.3267,-4.2691,-4.2351,0.0,0.0,0.0,0.0,0.0,0.0,-2.5655,-2.5399,-2.5369,-2.5379,-2.5841,-2.6324,-2.65,-2.7074,-2.7813,-2.8702,-2.8232,-2.8656,-3.1235,-3.1518,-3.1745,-3.2529,-3.2682,-3.2718,-3.2629,-3.2703,-3.2757,-3.279,-3.3017,-3.3473,-3.4209,-3.3607,-3.3607,-3.439,-3.3668,-3.33,-3.3398,-3.3398,-3.3846,-3.4705,-3.4705,-3.5154,-3.5971,-3.5193,-3.4842,-3.4881,-3.5564,-3.5467,-3.4959,-3.6306,-3.6989,-3.7243,-3.8121,-3.8456,-3.8651,-4.0229,-4.0815,-4.0834,-4.0912,-4.0952,-4.0971,-4.1069,-4.1108,-4.1108,-4.1108,-4.1108,-4.1108,-4.1108,-4.1108,-4.1108,-4.1108,-4.1108,-4.1111,-4.1091,-4.2422,-4.3688,-4.3606,-4.4317,-4.491,-4.4776,-4.5293,-4.5777,-4.5874,-4.5893,-4.5874,-4.5814,-4.586,-4.5847,-4.5731,-4.5629,-4.5418,-4.5052,-4.4868,-4.4714,-4.4524,-4.4515,-4.4515,-4.4515,-4.4515,-4.4515,-4.4515,-4.4515,-4.4515,-4.4515,-4.4515,-4.4364,-4.414,-4.4091,-4.3823,-4.3303,-4.2882,-4.2631,0.0,0.0,0.0,0.0,-2.759,0.0,-2.6569,-2.6351,-2.6121,-2.5388,-2.5335,-2.5447,-2.5482,-2.5614,-2.5768,-2.5976,-2.6436,-2.7458,-2.9446,-2.913,-2.8742,-2.8916,-2.9505,-2.968,-2.9066,-2.9588,-3.0036,-3.0128,-3.1411,-3.1961,-3.1436,-3.1968,-3.2342,-3.2517,-3.241,-3.2695,-3.3398,-3.3398,-3.3846,-3.4705,-3.4705,-3.5154,-3.5991,-3.5818,-3.5759,-3.572,-3.5174,-3.5252,-3.5662,-3.4608,-3.4998,-3.6345,-3.7204,-3.7555,-3.7672,-3.8707,-3.91,-3.9175,-3.9839,-4.0054,-4.0171,-4.0873,-4.1108,-4.1108,-4.1108,-4.1108,-4.1108,-4.1108,-4.1108,-4.1108,-4.1108,-4.1108,-4.1091,-4.1103,-4.2438,-4.3671,-4.3602,-4.4793,-4.5833,-4.5736,-4.526,-4.5047,-4.5698,-4.5867,-4.5912,-4.5874,-4.5899,-4.5867,-4.5795,-4.5596,-4.5323,-4.503,-4.4833,-4.4667,-4.4515,-4.4515,-4.4515,-4.4515,-4.4515,-4.4515,-4.4515,-4.4515,-4.4515,-4.4515,-4.4515,-4.4468,-4.4411,-4.4199,-4.3823,-4.3303,-4.3196,-4.2957,0.0,0.0,0.0,-2.8121,-2.8345,0.0,0.0,-2.7323,-2.7015,-2.6176,-2.5928,-2.5726,-2.5275,-2.5198,-2.5335,-2.5787,-2.5844,-2.6329,-2.7711,-2.7864,-2.786,-2.789,-2.8255,-2.8364,-2.8,-2.8309,-2.8588,-2.8694,-2.9858,-3.0564,-3.06,-3.1041,-3.1518,-3.1992,-3.1609,-3.1627,-3.2109,-3.2109,-3.2539,-3.3417,-3.3846,-3.451,-3.5369,-3.5798,-3.5991,-3.5971,-3.5545,-3.5603,-3.5893,-3.4588,-3.4569,-3.5447,-3.6306,-3.6657,-3.6813,-3.8121,-3.859,-3.8726,-3.9527,-3.9819,-3.9995,-4.0834,-4.1108,-4.1108,-4.1108,-4.1108,-4.1108,-4.1108,-4.1108,-4.1108,-4.1108,-4.1108,-4.1091,-4.1099,-4.2438,-4.3671,-4.362,-4.491,-4.608,-4.6015,-4.5602,-4.5383,-4.5783,-4.588,-4.5905,-4.5912,-4.5937,-4.588,-4.5712,-4.5509,-4.5265,-4.5068,-4.4777,-4.4605,-4.4605,-4.4542,-4.4515,-4.4515,-4.4515,-4.4515,-4.4515,-4.4515,-4.4515,-4.4515,-4.4515,-4.4515,-4.4515,-4.4383,-4.4109,-4.3712,-4.3579,-4.3303,0.0,0.0,0.0,0.0,0.0,-2.9446,0.0,0.0,0.0,-2.698,0.0,0.0,0.0,0.0,0.0,-2.6132,0.0,0.0,0.0,-2.6897,0.0,-2.739,-2.7544,-2.7582,-2.7428,-2.739,-2.7489,-2.7718,-2.8336,-2.9107,-3.0021,-3.0241,-3.0678,-3.1435,-3.0974,-3.0728,-3.0774,-3.0799,-3.1231,-3.2109,-3.2812,-3.369,-3.4725,-3.5428,-3.5757,-3.5759,-3.5932,-3.5893,-3.572,-3.5174,-3.4959,-3.4998,-3.5545,-3.5759,-3.5935,-3.7516,-3.8102,-3.8238,-3.9237,-3.9608,-3.9819,-4.0776,-4.1108,-4.1108,-4.1108,-4.1108,-4.1108,-4.1108,-4.1108,-4.1108,-4.1108,-4.1091,-4.1094,-4.1111,-4.2436,-4.3632,-4.3408,-4.4807,-4.6033,-4.5803,-4.5815,-4.588,-4.5906,-4.5912,-4.5929,-4.5917,-4.596,-4.5912,-4.5645,-4.5472,-4.5304,-4.5084,-4.477,-4.4605,-4.4659,-4.4551,-4.4515,-4.4515,-4.4515,-4.4515,-4.4515,-4.4515,-4.4515,-4.4515,-4.4515,-4.4515,-4.4515,-4.4515,-4.4364,-4.4091,-4.3873,-4.3646,0.0,0.0,0.0,0.0,-3.045,-3.0321,-2.946,0.0,-2.8747,-2.7063,0.0,0.0,0.0,0.0,0.0,0.0,0.0,0.0,-2.5337,-2.5493,-2.559,-2.5591,-2.6273,-2.6446,-2.5668,-2.5591,-2.5909,-2.6698,-2.6833,-2.7286,-2.8163,-2.8946,-2.9406,-2.9511,-3.0289,-3.0691,-3.0715,-3.0768,-3.1231,-3.209,-3.2207,-3.3105,-3.4705,-3.48,-3.4859,-3.4881,-3.5662,-3.5564,-3.4901,-3.5564,-3.5857,-3.5798,-3.5115,-3.4842,-3.4979,-3.5935,-3.6306,-3.6521,-3.817,-3.8734,-3.9,-4.0581,-4.1108,-4.1108,-4.1108,-4.1108,-4.1108,-4.1108,-4.1108,-4.1108,-4.1108,-4.1099,-4.1103,-4.1091,-4.2436,-4.3466,-4.2636,-4.4364,-4.5846,-4.5006,-4.5376,-4.5827,-4.5893,-4.596,-4.5986,-4.5991,-4.5994,-4.591,-4.5712,-4.5665,-4.5475,-4.4991,-4.487,-4.4745,-4.4524,-4.4515,-4.4515,-4.4515,-4.4515,-4.4515,-4.4515,-4.4515,-4.4515,-4.4515,-4.4515,-4.4515,-4.4515,-4.4515,-4.4364,-4.4091,-4.406,-4.3905,0.0,0.0,0.0,0.0,-3.0571,-3.0506,-3.0171,-3.0064,-2.9683,-2.8421,0.0,0.0,0.0,0.0,0.0,0.0,-2.522,-2.5212,0.0,0.0,-2.5302,-2.5303,0.0,-2.5696,-2.5341,-2.5293,-2.5447,-2.5822,-2.6311,-2.6764,-2.7121,-2.7981,-2.8686,-2.9186,-2.968,-3.0194,-3.0711,-3.0768,-3.0977,-3.1348,-3.1856,-3.248,-3.3202,-3.3729,-3.4215,-3.4722,-3.5096,-3.533,-3.5486,-3.5857,-3.5991,-3.5952,-3.5603,-3.5447,-3.5506,-3.5876,-3.5991,-3.6189,-3.7424,-3.7851,-3.8043,-3.9253,-3.9976,-4.0346,-4.0346,-4.0698,-4.1108,-4.1108,-4.1108,-4.1108,-4.1108,-4.1094,-4.1238,-4.1733,-4.2792,-4.3715,-4.3796,-4.5025,-4.5964,-4.5525,-4.5661,-4.5867,-4.5912,-4.5917,-4.5953,-4.5994,-4.5997,-4.5941,-4.5731,-4.5629,-4.5437,-4.5061,-4.487,-4.4738,-4.4632,-4.4524,-4.4515,-4.4515,-4.4515,-4.4515,-4.4515,-4.4515,-4.4515,-4.4515,-4.4515,-4.4515,-4.4515,-4.4515,-4.444,-4.4335,-4.4335,-4.417,-3.1013,-3.0847,-3.0713,-3.0807,-3.0655,-3.0492,-3.0565,-3.0528,-3.026,-2.9379,-2.9148,0.0,0.0,0.0,0.0,0.0,0.0,-2.5233,0.0,-2.5302,0.0,0.0,-2.5303,-2.5303,-2.5293,-2.5302,-2.5302,-2.5303,-2.5878,-2.6243,-2.6236,-2.7063,-2.7932,-2.882,-2.9167,-2.9771,-3.0667,-3.0732,-3.0794,-3.0841,-3.1465,-3.1897,-3.2116,-3.2756,-3.3512,-3.4351,-3.4608,-3.5057,-3.5662,-3.5896,-3.5991,-3.5991,-3.5991,-3.5994,-3.5999,-3.5994,-3.5994,-3.6113,-3.7009,-3.7458,-3.7809,-3.8648,-3.9312,-3.9839,-4.0073,-4.06,-4.1108,-4.1108,-4.1108,-4.1091,-4.1094,-4.1091,-4.1253,-4.1914,-4.2707,-4.3475,-4.4042,-4.4976,-4.5705,-4.5647,-4.577,-4.5905,-4.591,-4.5941,-4.5933,-4.5997,-4.5997,-4.5941,-4.5776,-4.5613,-4.5419,-4.5175,-4.4895,-4.4712,-4.4712,-4.4578,-4.4515,-4.4515,-4.4515,-4.4515,-4.4515,-4.4515,-4.4515,-4.4515,-4.4515,-4.4515,-4.4515,-4.4515,-4.4515,-4.4515,-4.4515,-4.4411,-3.2817,-3.2251,-3.1664,-3.1664,-3.1039,-3.0413,-3.0491,-3.0501,-3.025,-2.937,-2.9148,-2.8582,-2.6909,-2.66,0.0,0.0,0.0,0.0,0.0,0.0,0.0,-2.5303,-2.5303,-2.5293,-2.5292,-2.5292,-2.5302,-2.5303,-2.5321,-2.534,-2.5341,-2.6178,-2.7044,-2.792,-2.8753,-2.9663,-3.06,-3.0667,-3.0771,-3.0899,-3.0938,-3.1355,-3.2104,-3.2135,-3.2617,-3.3495,-3.4334,-3.4725,-3.4803,-3.5642,-3.5991,-3.5991,-3.5991,-3.6001,-3.6009,-3.5999,-3.5999,-3.6122,-3.6992,-3.7848,-3.8687,-3.9507,-3.978,-3.9956,-4.0795,-4.1088,-4.1108,-4.1108,-4.1108,-4.1094,-4.1105,-4.1099,-4.1116,-4.121,-4.1818,-4.233,-4.2307,-4.3576,-4.4744,-4.4749,-4.5376,-4.5912,-4.5986,-4.5997,-4.5997,-4.5997,-4.5997,-4.5964,-4.5906,-4.5661,-4.5455,-4.5322,-4.4948,-4.4712,-4.4712,-4.4578,-4.4515,-4.4515,-4.4515,-4.4515,-4.4515,-4.4515,-4.4515,-4.4515,-4.4515,-4.4515,-4.4515,-4.4515,-4.4515,-4.4515,-4.4515,-4.4515,-3.2831,-3.2593,-3.2248,-3.1764,-3.1411,-3.1059,-3.0498,-3.0364,-3.0298,-3.0051,-2.994,-2.956,-2.8467,0.0,0.0,0.0,0.0,0.0,0.0,-2.5303,-2.5303,-2.5303,-2.5303,0.0,-2.5293,-2.5302,-2.5302,-2.5303,-2.5302,-2.5302,-2.5303,-2.6178,-2.7063,-2.7932,-2.8909,-2.9802,-3.0658,-3.0782,-3.0849,-3.0899,-3.0899,-3.1038,-3.1315,-3.1311,-3.1758,-3.2595,-3.3456,-3.4178,-3.4764,-3.5632,-3.6001,-3.5991,-3.5991,-3.6005,-3.5995,-3.6009,-3.6007,-3.6048,-3.6348,-3.6638,-3.7028,-3.7867,-3.8531,-3.9156,-3.9995,-4.0639,-4.1108,-4.1108,-4.1108,-4.1094,-4.1105,-4.1128,-4.1444,-4.2537,-4.2565,-4.2797,-4.4364,-4.473,-4.4918,-4.5402,-4.575,-4.598,-4.6003,-4.6005,-4.5997,-4.5997,-4.5997,-4.5983,-4.5906,-4.5742,-4.5545,-4.5303,-4.5019,-4.4815,-4.4712,-4.4578,-4.4515,-4.4515,-4.4515,-4.4515,-4.4515,-4.4515,-4.4515,-4.4515,-4.4515,-4.4515,-4.4515,-4.4515,-4.4515,-4.4515,-4.4515,-4.4515,-3.3655,-3.341,-3.3051,-3.2575,-3.2211,-3.1766,-3.0906,-3.0759,-3.0695,-3.0424,-3.0348,-3.0079,-2.9256,-2.8679,0.0,0.0,0.0,0.0,0.0,-2.5303,-2.5303,-2.5303,-2.5303,0.0,-2.5303,-2.5302,-2.5302,-2.5303,-2.5322,-2.5341,-2.534,-2.6235,-2.714,-2.8005,-2.8954,-2.9854,-3.0691,-3.0782,-3.0849,-3.0905,-3.0903,-3.0901,-3.0899,-3.0899,-3.1348,-3.2148,-3.3014,-3.3895,-3.4775,-3.5634,-3.6001,-3.5994,-3.6003,-3.5993,-3.5996,-3.5993,-3.6204,-3.6454,-3.6465,-3.6677,-3.7067,-3.7906,-3.857,-3.9175,-4.0015,-4.0659,-4.1166,-4.1482,-4.1342,-4.1169,-4.1472,-4.1384,-4.1458,-4.2498,-4.2539,-4.2838,-4.4704,-4.4916,-4.4969,-4.5744,-4.5937,-4.6003,-4.5994,-4.6005,-4.5997,-4.5997,-4.5997,-4.5975,-4.5937,-4.58,-4.5645,-4.5528,-4.5243,-4.4976,-4.4802,-4.4674,-4.4587,-4.4496,-4.4515,-4.4515,-4.4515,-4.4515,-4.4646,-4.4928,-4.4665,-4.4646,-4.4928,-4.4646,-4.4515,-4.4515,-4.4515,-4.4515]}]]